[[{"header":{"parameterUnit":"m.s-1","parameterCategory":1,"la1":31.0,"la2":29.5877,"lo1":-88.7671,"lo2":-86.6584,"dy":0.0162,"dx":0.0185,"nx":115,"ny":88,"refTime":"2023-09-14T06:00:00:Z","depth":0,"parameterNumber":2,"parameterNumberName":"U-component_of_WINDS"},"data":[0.0,0.0,0.0,0.0,0.0,0.0,0.0,0.0,0.0,0.0,0.0,0.0,0.0,0.0,0.0,0.0,0.0,0.0,0.0,0.0,0.0,0.0,0.0,0.0,0.0,0.0,0.0,0.0,0.0,0.0,0.0,0.0,0.0,0.0,0.0,0.0,0.0,0.0,0.0,0.0,0.0,0.0,0.0,0.0,0.0,0.0,0.0,0.0,0.0,0.0,0.0,0.0,0.0,0.0,0.0,0.0,0.0,0.0,0.0,0.0,0.0,0.0,0.0,0.0,0.0,0.0,0.0,0.0,0.0,0.0,0.0,0.0,0.0,0.0,0.0,0.0,0.0,0.0,0.0,0.0,0.0,0.0,0.0,0.0,0.0,0.0,0.0,0.0,0.0,0.0,0.0,0.0,0.0,0.0,0.0,0.0,0.0,0.0,0.0,0.0,0.0,0.0,0.0,0.0,0.0,0.0,0.0,0.0,0.0,0.0,0.0,0.0,0.0,0.0,0.0,0.0,0.0,0.0,0.0,0.0,0.0,0.0,0.0,0.0,0.0,0.0,0.0,0.0,0.0,0.0,0.0,0.0,0.0,0.0,0.0,0.0,0.0,0.0,0.0,0.0,0.0,0.0,0.0,0.0,0.0,0.0,0.0,0.0,0.0,0.0,0.0,0.0,0.0,0.0,0.0,0.0,0.0,0.0,0.0,0.0,0.0,0.0,0.0,0.0,0.0,0.0,0.0,0.0,0.0,0.0,0.0,0.0,0.0,0.0,0.0,0.0,0.0,0.0,0.0,0.0,0.0,0.0,0.0,0.0,0.0,0.0,0.0,0.0,0.0,0.0,0.0,0.0,0.0,0.0,0.0,0.0,0.0,0.0,0.0,0.0,0.0,0.0,0.0,0.0,0.0,0.0,0.0,0.0,0.0,0.0,0.0,0.0,0.0,0.0,0.0,0.0,0.0,0.0,0.0,0.0,0.0,0.0,0.0,0.0,0.0,0.0,0.0,0.0,0.0,0.0,0.0,0.0,0.0,0.0,0.0,0.0,0.0,0.0,0.0,0.0,0.0,0.0,0.0,0.0,0.0,0.0,0.0,0.0,0.0,0.0,0.0,0.0,0.0,0.0,0.0,0.0,0.0,0.0,0.0,0.0,0.0,0.0,0.0,0.0,0.0,0.0,0.0,0.0,0.0,0.0,0.0,0.0,0.0,0.0,0.0,0.0,0.0,0.0,0.0,0.0,0.0,0.0,0.0,0.0,0.0,0.0,0.0,0.0,0.0,0.0,0.0,0.0,0.0,0.0,0.0,0.0,0.0,0.0,0.0,0.0,0.0,0.0,0.0,0.0,0.0,0.0,0.0,0.0,0.0,0.0,0.0,0.0,0.0,0.0,0.0,0.0,0.0,0.0,0.0,0.0,0.0,0.0,0.0,0.0,0.0,0.0,0.0,0.0,0.0,0.0,0.0,0.0,0.0,0.0,0.0,0.0,0.0,0.0,0.0,0.0,0.0,0.0,0.0,0.0,0.0,0.0,0.0,0.0,0.0,0.0,0.0,0.0,0.0,0.0,0.0,0.0,0.0,0.0,0.0,0.0,0.0,0.0,0.0,0.0,0.0,0.0,0.0,0.0,0.0,0.0,0.0,0.0,0.0,0.0,0.0,0.0,0.0,0.0,0.0,0.0,0.0,0.0,0.0,0.0,0.0,0.0,0.0,0.0,0.0,0.0,0.0,0.0,0.0,0.0,0.0,0.0,0.0,0.0,0.0,0.0,0.0,0.0,0.0,0.0,0.0,0.0,0.0,0.0,0.0,0.0,0.0,0.0,0.0,0.0,0.0,0.0,0.0,0.0,0.0,0.0,0.0,0.0,0.0,0.0,0.0,0.0,0.0,0.0,0.0,0.0,0.0,0.0,0.0,0.0,0.0,0.0,0.0,0.0,0.0,0.0,0.0,0.0,0.0,0.0,0.0,0.0,0.0,0.0,0.0,0.0,0.0,0.0,0.0,0.0,0.0,0.0,0.0,0.0,0.0,0.0,0.0,0.0,0.0,0.0,0.0,0.0,0.0,0.0,0.0,0.0,0.0,0.0,0.0,0.0,0.0,0.0,0.0,0.0,0.0,0.0,0.0,0.0,0.0,0.0,0.0,0.0,0.0,0.0,0.0,0.0,0.0,0.0,0.0,0.0,0.0,0.0,0.0,0.0,0.0,0.0,0.0,0.0,0.0,0.0,0.0,0.0,0.0,0.0,0.0,0.0,0.0,0.0,0.0,0.0,0.0,0.0,0.0,0.0,0.0,0.0,0.0,0.0,0.0,0.0,0.0,0.0,0.0,0.0,0.0,0.0,0.0,0.0,0.0,0.0,0.0,0.0,0.0,0.0,0.0,0.0,0.0,0.0,0.0,0.0,0.0,0.0,0.0,0.0,0.0,0.0,0.0,0.0,0.0,0.0,0.0,0.0,0.0,0.0,0.0,0.0,0.0,0.0,0.0,0.0,0.0,0.0,0.0,0.0,0.0,0.0,0.0,0.0,0.0,0.0,0.0,0.0,0.0,0.0,0.0,0.0,0.0,0.0,0.0,0.0,0.0,0.0,0.0,0.0,0.0,0.0,0.0,0.0,0.0,0.0,0.0,0.0,0.0,0.0,0.0,0.0,0.0,0.0,0.0,0.0,0.0,0.0,0.0,0.0,0.0,0.0,0.0,0.0,0.0,0.0,0.0,0.0,0.0,0.0,0.0,0.0,0.0,0.0,0.0,0.0,0.0,0.0,0.0,0.0,0.0,0.0,0.0,0.0,0.0,0.0,0.0,0.0,0.0,0.0,0.0,0.0,0.0,0.0,0.0,0.0,0.0,0.0,0.0,0.0,0.0,0.0,0.0,0.0,0.0,0.0,0.0,0.0,0.0,0.0,0.0,0.0,0.0,0.0,0.0,0.0,0.0,0.0,0.0,0.0,0.0,0.0,0.0,0.0,0.0,0.0,0.0,0.0,0.0,0.0,0.0,0.0,0.0,0.0,0.0,0.0,0.0,0.0,0.0,0.0,0.0,0.0,0.0,0.0,0.0,0.0,0.0,0.0,0.0,0.0,0.0,0.0,0.0,0.0,0.0,0.0,0.0,0.0,0.0,0.0,0.0,0.0,0.0,0.0,0.0,0.0,0.0,0.0,0.0,0.0,0.0,0.0,0.0,0.0,0.0,0.0,0.0,0.0,0.0,0.0,0.0,0.0,0.0,0.0,0.0,0.0,0.0,0.0,0.0,0.0,0.0,0.0,0.0,0.0,0.0,0.0,0.0,0.0,0.0,0.0,0.0,0.0,0.0,0.0,0.0,0.0,0.0,0.0,0.0,0.0,0.0,0.0,0.0,0.0,0.0,0.0,0.0,0.0,0.0,0.0,0.0,0.0,0.0,0.0,0.0,0.0,0.0,0.0,0.0,0.0,0.0,0.0,0.0,0.0,0.0,0.0,0.0,0.0,0.0,0.0,0.0,0.0,0.0,0.0,0.0,0.0,0.0,0.0,0.0,0.0,0.0,0.0,0.0,0.0,0.0,0.0,0.0,0.0,0.0,0.0,0.0,0.0,0.0,0.0,0.0,0.0,0.0,0.0,0.0,0.0,0.0,0.0,0.0,0.0,0.0,0.0,0.0,0.0,0.0,0.0,0.0,0.0,0.0,0.0,0.0,0.0,0.0,0.0,0.0,0.0,0.0,0.0,0.0,0.0,0.0,0.0,0.0,0.0,0.0,0.0,0.0,0.0,0.0,0.0,0.0,0.0,0.0,0.0,0.0,0.0,0.0,0.0,0.0,0.0,0.0,0.0,0.0,0.0,0.0,0.0,0.0,0.0,0.0,0.0,0.0,0.0,0.0,0.0,0.0,0.0,0.0,0.0,0.0,0.0,0.0,0.0,0.0,0.0,0.0,0.0,0.0,0.0,0.0,0.0,0.0,0.0,0.0,0.0,0.0,0.0,0.0,0.0,0.0,0.0,0.0,0.0,0.0,0.0,0.0,0.0,0.0,0.0,0.0,0.0,0.0,0.0,0.0,0.0,0.0,0.0,0.0,0.0,0.0,0.0,0.0,0.0,0.0,0.0,0.0,0.0,0.0,0.0,0.0,0.0,0.0,0.0,0.0,0.0,0.0,0.0,0.0,0.0,0.0,0.0,0.0,0.0,0.0,0.0,0.0,0.0,0.0,0.0,0.0,0.0,0.0,0.0,0.0,0.0,0.0,0.0,0.0,0.0,0.0,0.0,0.0,0.0,0.0,0.0,0.446,0.0,0.0,0.0,0.0,0.0,0.0,0.0,0.0,0.0,0.0,0.0,0.0,0.0,0.0,0.0,0.0,0.0,0.0,0.0,0.0,0.0,0.0,0.0,0.0,0.0,0.0,0.0,0.0,0.0,0.0,0.0,0.0,0.0,0.0,0.0,0.0,0.0,0.0,0.0,0.0,0.0,0.0,0.0,0.0,0.0,0.0,0.0,0.0,0.0,0.0,0.0,0.0,0.0,0.0,0.0,0.0,0.0,0.0,0.0,0.0,0.0,0.0,0.0,0.0,0.0,0.0,0.0,0.0,0.0,0.0,0.0,0.0,0.0,0.0,0.0,0.0,0.0,0.0,0.0,0.0,0.0,0.0,0.0,0.0,0.0,0.0,0.0,0.0,0.0,0.0,0.0,0.0,0.0,0.0,0.0,0.0,0.0,0.0,0.0,0.0,0.0,0.0,0.0,0.0,0.0,0.0,0.0,0.0,0.0,0.0,0.3713,0.3512,0.3587,0.3932,0.4527,0.0,0.0,0.0,0.0,0.0,0.0,0.0,0.0,0.0,0.0,0.0,0.0,0.0,0.0,0.0,0.0,0.0,0.0,0.0,0.0,0.0,0.0,0.0,0.0,0.0,0.0,0.0,0.0,0.0,0.0,0.0,0.0,0.0,0.0,0.0,0.0,0.0,0.0,0.0,0.0,0.0,0.0,0.0,0.0,0.0,0.0,0.0,0.0,0.0,0.0,0.0,0.0,0.0,0.0,0.0,0.0,0.0,0.0,0.0,0.0,0.0,0.0,0.0,0.0,0.0,0.0,0.0,0.0,0.0,0.0,0.0,0.0,0.0,0.0,0.0,0.0,0.0,0.0,0.0,0.0,0.0,0.0,0.0,0.0,0.0,0.0,0.0,0.0,0.0,0.0,0.0,0.0,0.0,0.0,0.0,0.0,0.0,0.0,0.0,0.0,0.0,0.0,0.0,0.0,0.0,0.0,0.0,0.0,0.0,0.0,0.0,0.0,0.4233,0.4425,0.4761,0.0,0.0,0.0,0.0,0.0,0.0,0.0,0.0,0.0,0.0,0.0,0.0,0.0,0.0,0.0,0.0,0.0,0.0,0.0,0.0,0.0,0.0,0.0,0.0,0.0,0.0,0.0,0.0,0.0,0.0,0.0,0.0,0.0,0.0,0.0,0.0,0.0,0.0,0.0,0.0,0.0,0.0,0.0,0.0,0.0,0.0,0.0,0.0,0.0,0.0,0.0,0.0,0.0,0.0,0.0,0.0,0.0,0.0,0.0,0.0,0.0,0.0,0.0,0.0,0.0,0.0,0.0,0.0,0.0,0.0,0.0,0.0,0.0,0.0,0.0,0.0,0.0,0.0,0.0,0.0,0.0,0.0,0.0,0.0,0.0,0.0,0.0,0.0,0.0,0.0,0.0,0.0,0.0,0.0,0.0,0.0,0.0,0.0,0.0,0.0,0.0,0.0,0.0,0.0,0.0,0.0,0.0,0.0,0.0,0.0,0.4947,0.4896,0.4864,0.0,0.5233,0.0,0.0,0.0,0.0,0.0,0.0,0.0,0.0,0.0,0.0,0.0,0.0,0.0,0.0,0.0,0.0,0.0,0.0,0.0,0.0,0.0,0.0,0.0,0.0,0.0,0.0,0.0,0.0,0.0,0.0,0.0,0.0,0.0,0.0,0.0,0.0,0.0,0.0,0.0,0.0,0.0,0.0,0.0,0.0,0.0,0.0,0.0,0.0,0.0,0.0,0.0,0.0,0.0,0.0,0.0,0.0,0.0,0.0,0.0,0.0,0.0,0.0,0.0,0.0,0.0,0.0,0.0,0.0,0.0,0.0,0.0,0.0,0.0,0.0,0.0,0.0,0.0,0.0,0.0,0.0,0.0,0.0,0.0,0.0,0.0,0.0,0.0,0.0,0.0,0.0,0.0,0.0,0.0,0.0,0.0,0.0,0.0,0.0,0.0,0.0,0.0,0.0,0.0,0.0,0.0,0.0,0.0,0.0,0.0,0.0,0.5915,0.5595,0.5449,0.5396,0.0,0.0,0.0,0.0,0.0,0.0,0.0,0.0,0.0,0.0,0.0,0.0,0.0,0.0,0.0,0.0,0.0,0.0,0.0,0.0,0.0,0.0,0.0,0.0,0.0,0.0,0.0,0.0,0.0,0.0,0.0,0.0,0.0,0.0,0.0,0.0,0.0,0.0,0.0,0.0,0.0,0.0,0.0,0.0,0.0,0.0,0.0,0.0,0.0,0.0,0.0,0.0,0.0,0.0,0.0,0.0,0.0,0.0,0.0,0.0,0.0,0.0,0.0,0.0,0.0,0.0,0.0,0.0,0.0,0.0,0.0,0.0,0.0,0.0,0.0,0.0,0.0,0.0,0.0,0.0,0.0,0.0,0.0,0.0,0.0,0.0,0.0,0.0,0.0,0.0,0.0,0.0,0.0,0.0,0.0,0.0,0.0,0.0,0.0,0.0,0.0,0.0,0.0,0.0,0.0,0.0,0.0,0.0,0.0,0.0,0.6205,0.6549,0.6298,0.5959,0.5719,0.5564,0.0,0.0,0.0,0.0,0.0,0.0,0.0,0.0,0.0,0.0,0.0,0.0,0.0,0.0,0.0,0.0,0.0,0.0,0.0,0.0,0.0,0.0,0.0,0.0,0.0,0.0,0.0,0.0,0.0,0.0,0.0,0.0,0.0,0.0,0.0,0.0,0.0,0.0,0.0,0.0,0.0,0.0,0.0,0.0,0.0,0.0,0.0,0.0,0.0,0.0,0.0,0.0,0.0,0.0,0.0,0.0,0.0,0.0,0.0,0.0,0.0,0.0,0.0,0.0,0.0,0.0,0.0,0.0,0.0,0.0,0.0,0.0,0.0,0.0,0.0,0.0,0.0,0.0,0.0,0.0,0.0,0.0,0.0,0.0,0.0,0.0,0.0,0.0,0.0,0.0,0.0,0.0,0.0,0.0,0.0,0.0,0.0,0.0,0.0,0.0,0.0,0.0,0.0,0.0,0.0,0.0,0.0,0.0,0.56,0.615,0.6635,0.6983,0.6365,0.59,0.0,0.0,0.0,0.0,0.0,0.0,0.0,0.0,0.0,0.0,0.0,0.0,0.0,0.0,0.0,0.0,0.0,0.0,0.0,0.0,0.0,0.0,0.0,0.0,0.0,0.0,0.0,0.0,0.0,0.0,0.0,0.0,0.0,0.0,0.0,0.0,0.0,0.0,0.0,0.0,0.0,0.0,0.0,0.0,0.0,0.0,0.0,0.0,0.0,0.0,0.0,0.0,0.0,0.0,0.0,0.0,0.0,0.0,0.0,0.0,0.0,0.0,0.0,0.0,0.0,0.0,0.0,0.0,0.0,0.0,0.0,0.0,0.0,0.0,0.0,0.0,0.0,0.0,0.0,0.0,0.0,0.0,0.0,0.0,0.0,0.0,0.0,0.0,0.0,0.0,0.0,0.0,0.0,0.0,0.0,0.0,0.0,0.0,0.0,0.0,0.0,0.0,0.0,0.0,0.0,0.0,0.0,0.0,0.0,0.6386,0.6925,0.7064,0.6722,0.6408,0.5808,0.0,0.0,0.0,0.0,0.0,0.0,0.0,0.0,0.0,0.0,0.0,0.0,0.0,0.0,0.0,0.0,0.0,0.0,0.0,0.0,0.0,0.0,0.0,0.0,0.0,0.0,0.0,0.0,0.0,0.0,0.0,0.0,0.0,0.0,0.0,0.0,0.0,0.0,0.0,0.0,0.0,0.0,0.0,0.0,0.0,0.0,0.0,0.0,0.0,0.0,0.0,0.0,0.0,0.0,0.0,0.0,0.0,0.0,0.0,0.0,0.0,0.0,0.0,0.0,0.0,0.0,0.0,0.0,0.0,0.0,0.0,0.0,0.0,0.0,0.0,0.0,0.0,0.0,0.0,0.0,0.0,0.0,0.0,0.0,0.0,0.0,0.0,0.0,0.0,0.0,0.0,0.0,0.0,0.0,0.0,0.0,0.0,0.0,0.0,0.0,0.0,0.0,0.0,0.0,0.0,0.0,0.0,0.0,0.0,0.6942,0.0,0.7525,0.7008,0.6451,0.5785,0.0,0.0,0.0,0.0,0.0,0.0,0.0,0.0,0.0,0.0,0.0,0.0,0.0,0.0,0.0,0.0,0.0,0.0,0.0,0.0,0.0,0.0,0.0,0.0,0.0,0.0,0.0,0.0,0.0,0.0,0.0,0.0,0.0,0.0,0.0,0.0,0.0,0.0,0.0,0.0,0.0,0.0,0.0,0.0,0.0,0.0,0.0,0.0,0.0,0.0,0.0,0.0,0.0,0.0,0.0,0.0,0.0,0.0,0.0,0.0,0.0,0.0,0.0,0.0,0.0,0.0,0.0,0.0,0.0,0.0,0.0,0.0,0.0,0.0,0.0,0.0,0.0,0.0,0.0,0.0,0.0,0.0,0.0,0.0,0.0,0.0,0.0,0.0,0.0,0.0,0.0,0.0,0.0,0.0,0.0,0.0,0.0,0.0,0.0,0.0,0.0,0.0,0.0,0.0,0.0,0.0,0.0,0.0,0.703,0.7232,0.7718,0.7953,0.794,0.6502,0.5878,0.0,0.0,0.0,0.0,0.0,0.0,0.0,0.0,0.0,0.0,0.0,0.0,0.0,0.0,0.0,0.0,0.0,0.0,0.0,0.0,0.0,0.0,0.0,0.0,0.0,0.0,0.0,0.0,0.0,0.0,0.0,0.0,0.0,0.0,0.0,0.0,0.0,0.0,0.0,0.0,0.0,0.0,0.0,0.0,0.0,0.0,0.0,0.0,0.0,0.0,0.0,0.0,0.0,0.0,0.0,0.0,0.0,0.0,0.0,0.0,0.0,0.0,0.0,0.0,0.0,0.0,0.0,0.0,0.0,0.0,0.0,0.0,0.0,0.0,0.0,0.0,0.0,0.0,0.0,0.0,0.0,0.0,0.0,0.0,0.0,0.0,0.0,0.0,0.0,0.0,0.0,0.0,0.0,0.0,0.0,0.0,0.0,0.0,0.0,0.0,0.0,0.0,0.0,0.0,0.0,0.0,0.0,0.0,0.0,0.8044,0.8091,0.7883,0.7318,0.6309,0.5525,0.0,0.0,0.0,0.0,0.0,0.0,0.0,0.0,0.0,0.0,0.0,0.0,0.0,0.0,0.0,0.0,0.0,0.0,0.0,0.0,0.0,0.0,0.0,0.0,0.0,0.0,0.0,0.0,0.0,0.0,0.0,0.0,0.0,0.0,0.0,0.0,0.0,0.0,0.0,0.0,0.0,0.0,0.0,0.0,0.0,0.0,0.0,0.0,0.0,0.0,0.0,0.0,0.0,0.0,0.0,0.0,0.0,0.0,0.0,0.0,0.0,0.0,0.0,0.0,0.0,0.0,0.0,0.0,0.0,0.0,0.0,0.0,0.0,0.0,0.0,0.0,0.0,0.0,0.0,0.0,0.0,0.0,0.0,0.0,0.0,0.0,0.0,0.0,0.0,0.0,0.0,0.0,0.0,0.0,0.0,0.0,0.0,0.0,0.0,0.0,0.0,0.0,0.0,0.0,0.0,0.0,0.0,0.0,0.0,0.898,0.8917,0.8483,0.7644,0.6602,0.5739,0.5046,0.0,0.0,0.0,0.0,0.0,0.0,0.0,0.0,0.0,0.0,0.0,0.0,0.0,0.0,0.0,0.0,0.0,0.0,0.0,0.0,0.0,0.0,0.0,0.0,0.0,0.0,0.0,0.0,0.0,0.0,0.0,0.0,0.0,0.0,0.0,0.0,0.0,0.0,0.0,0.0,0.0,0.0,0.0,0.0,0.0,0.0,0.0,0.0,0.0,0.0,0.0,0.0,0.0,0.0,0.0,0.0,0.0,0.0,0.0,0.0,0.0,0.0,0.0,0.0,0.0,0.0,0.0,0.0,0.0,0.0,0.0,0.0,0.0,0.0,0.0,0.0,0.0,0.0,0.0,0.0,0.0,0.0,0.0,0.0,0.0,0.0,0.0,0.0,0.0,0.0,0.0,0.0,0.0,0.0,0.0,0.0,0.0,0.0,0.0,0.0,0.0,0.0,0.0,0.0,0.0,0.0,0.0,0.0,1.0143,1.019,0.9729,0.8752,0.7314,0.6394,0.0,0.0,0.0,0.0,0.0,0.0,0.0,0.0,0.0,0.0,0.0,0.0,0.0,0.0,0.0,0.0,0.0,0.0,0.0,0.0,0.0,0.0,0.0,0.0,0.0,0.0,0.0,0.0,0.0,0.0,0.0,0.0,0.0,0.0,0.0,0.0,0.0,0.0,0.0,0.0,0.0,0.0,0.0,0.0,0.0,0.0,0.0,0.0,0.0,0.0,0.0,0.0,0.0,0.0,0.0,0.0,0.0,0.0,0.0,0.0,0.0,0.0,0.0,0.0,0.0,0.0,0.0,0.0,0.0,0.0,0.0,0.0,0.0,0.0,0.0,0.0,0.0,0.0,0.0,0.0,0.0,0.0,0.0,0.0,0.0,0.0,0.0,0.0,0.0,0.0,0.0,0.0,0.0,0.0,0.0,0.0,0.0,0.0,0.0,0.0,0.0,0.0,0.0,0.0,0.0,0.0,0.0,0.0,0.0,1.1927,1.2383,1.1559,0.9435,0.7985,0.6808,0.0,0.0,0.0,0.0,0.0,0.0,0.0,0.0,0.0,0.0,0.0,0.0,0.0,0.0,0.0,0.0,0.0,0.0,0.0,0.0,0.0,0.0,0.0,0.0,0.0,0.0,0.0,0.0,0.0,0.0,0.0,0.0,0.0,0.0,0.0,0.0,0.0,0.0,0.0,0.0,0.0,0.0,0.0,0.0,0.0,0.0,0.0,0.0,0.0,0.0,0.0,0.0,0.0,0.0,0.0,0.0,0.0,0.0,0.0,0.0,0.0,0.0,0.0,0.0,0.0,0.0,0.0,0.0,0.0,0.0,0.0,0.0,0.0,0.0,0.0,0.0,0.0,0.0,0.0,0.0,0.0,0.0,0.0,0.0,0.0,0.0,0.0,0.0,0.0,0.0,0.0,0.0,0.0,0.0,0.0,0.0,0.0,0.0,0.0,0.0,0.0,0.0,0.0,0.0,0.0,0.0,0.0,0.0,1.0945,1.2753,1.3262,1.2616,1.0789,0.8956,0.7405,0.0,0.0,0.0,0.0,0.0,0.0,0.0,0.0,0.0,0.0,0.0,0.0,0.0,0.0,0.0,0.0,0.0,0.0,0.0,0.0,0.0,0.0,0.0,0.0,0.0,0.0,0.0,0.0,0.0,0.0,0.0,0.0,0.0,0.0,0.0,0.0,0.0,0.0,0.0,0.0,0.0,0.0,0.0,0.0,0.0,0.0,0.0,0.0,0.0,0.0,0.0,0.0,0.0,0.0,0.0,0.0,0.0,0.0,0.0,0.0,0.0,0.0,0.0,0.0,0.0,0.0,0.0,0.0,0.0,0.0,0.0,0.0,0.0,0.0,0.0,0.0,0.0,0.0,0.0,0.0,0.0,0.0,0.0,0.0,0.0,0.0,0.0,0.0,0.0,0.0,0.0,0.0,0.0,0.0,0.0,0.0,0.0,0.0,0.0,0.0,0.0,0.0,0.0,0.0,0.0,0.0,0.0,0.0,1.1441,1.303,1.3382,1.3134,1.2271,1.0084,0.8182,0.0,0.0,0.0,0.0,0.0,0.0,0.0,0.0,0.0,0.0,0.0,0.0,0.0,0.0,0.0,0.0,0.0,0.0,0.0,0.0,0.0,0.0,0.0,0.0,0.0,0.0,0.0,0.0,0.0,0.0,0.0,0.0,0.0,0.0,0.0,0.0,0.0,0.0,0.0,0.0,0.0,0.0,0.0,0.0,0.0,0.0,0.0,0.0,0.0,0.0,0.0,0.0,0.0,0.0,0.0,0.0,0.0,0.0,0.0,0.0,0.0,0.0,0.0,0.0,0.0,0.0,0.0,0.0,0.0,0.0,0.0,0.0,0.0,0.0,0.0,0.0,0.0,0.0,0.0,0.0,0.0,0.0,0.0,0.0,0.0,0.0,0.0,0.0,0.0,0.0,0.0,0.0,0.0,0.0,0.0,0.0,0.0,0.0,0.0,0.0,0.0,0.0,0.0,0.0,0.0,0.0,0.0,0.0,1.2068,1.4097,1.398,1.3353,1.2239,1.0856,0.9272,0.0,0.0,0.0,0.0,0.0,0.0,0.0,0.0,0.0,0.0,0.0,0.0,0.0,0.0,0.0,0.0,0.0,0.0,0.0,0.0,0.0,0.0,0.0,0.0,0.0,0.0,0.0,0.0,0.0,0.0,0.0,0.0,0.0,0.0,0.0,0.0,0.0,0.0,0.0,0.0,0.0,0.0,0.0,0.0,0.0,0.0,0.0,0.0,0.8281,0.0,0.0,0.0,0.0,0.0,0.0,0.0,0.0,0.0,0.0,0.0,0.0,0.0,0.0,0.0,0.0,0.0,0.0,0.0,0.0,0.0,0.0,0.0,0.0,0.0,0.0,0.0,0.0,0.0,0.0,0.0,0.0,0.0,0.0,0.0,0.0,0.0,0.0,0.0,0.0,0.0,0.0,0.0,0.0,0.0,0.0,0.0,0.0,0.0,0.0,0.0,0.0,0.0,0.0,0.0,0.0,0.0,0.0,0.0,1.2676,1.4323,1.4301,1.3672,1.2555,1.1222,0.9606,0.0,0.0,0.0,0.0,0.0,0.0,0.0,0.0,0.0,0.0,0.0,0.0,0.0,0.0,0.0,0.0,0.0,0.0,0.0,0.0,0.0,0.0,0.0,0.0,0.0,0.0,0.0,0.0,0.0,0.0,0.0,0.0,0.0,0.0,0.0,0.0,0.0,0.0,0.0,0.0,0.0,0.0,0.0,0.0,0.0,0.0,0.0,0.0,0.0,0.0,0.0,0.0,0.0,0.0,0.0,0.0,0.0,0.0,0.0,0.0,0.0,0.0,0.0,0.0,0.0,0.0,0.0,0.0,0.0,0.0,0.0,0.0,0.0,0.0,0.0,0.0,0.0,0.0,0.0,0.0,0.0,0.0,0.0,0.0,0.0,0.0,0.0,0.0,0.0,0.0,0.0,0.0,0.0,0.0,0.0,0.0,0.0,0.0,0.0,0.0,0.0,0.0,0.0,0.0,0.0,0.0,0.0,1.1354,1.3134,1.4337,1.4381,1.389,1.2882,1.1227,0.9453,0.7665,0.0,0.0,0.0,0.0,0.0,0.0,0.0,0.0,0.0,0.0,0.0,0.0,0.0,0.0,0.0,0.0,0.0,0.0,0.0,0.0,0.0,0.0,0.0,0.0,0.0,0.0,0.0,0.0,0.0,0.0,0.0,0.0,0.0,0.0,0.0,0.0,0.0,0.0,1.0304,0.9441,0.0,0.0,0.0,0.0,0.0,0.0,0.0,0.0,0.7679,0.0,0.0,0.0,0.0,0.0,0.0,0.0,0.0,0.0,0.0,0.0,0.0,0.0,0.0,0.0,0.0,0.0,0.0,0.0,0.0,0.0,0.0,0.0,0.0,0.0,0.0,0.0,0.0,0.0,0.0,0.0,0.0,0.0,0.0,0.0,0.0,0.0,0.0,0.0,0.0,0.0,0.0,0.0,0.0,0.0,0.0,0.0,0.0,0.0,0.0,0.0,0.0,0.0,0.0,0.0,0.0,0.943,1.1232,1.3063,1.4812,1.4126,1.3422,1.2723,1.064,0.8775,0.7266,0.0,0.0,0.0,0.0,0.0,0.0,0.0,0.0,0.0,0.0,0.0,0.0,0.0,0.0,0.0,0.0,0.0,0.0,0.0,0.0,0.0,0.0,0.0,0.0,0.0,0.0,0.0,0.0,0.0,0.0,0.0,0.0,0.0,0.0,0.0,0.0,0.0,0.0,0.0,0.94,0.8852,0.0,0.0,0.0,0.0,0.0,0.0,0.0,0.0,0.7635,0.0,0.0,0.0,0.0,0.0,0.0,0.0,0.0,0.0,0.0,0.0,0.0,0.0,0.0,0.0,0.0,0.0,0.0,0.0,0.0,0.0,0.0,0.0,0.0,0.0,0.0,0.0,0.0,0.0,0.0,0.0,0.0,0.0,0.0,0.0,0.0,0.0,0.0,0.0,0.0,0.0,0.0,0.0,0.0,0.0,0.0,0.0,0.0,0.0,0.0,0.0,0.0,0.0,0.0,0.0,0.9702,1.1388,1.2932,1.4256,1.3745,1.2951,1.1934,1.0257,0.8543,0.0,0.0,0.0,0.0,0.0,0.0,0.0,0.0,0.0,0.0,0.0,0.0,0.0,0.0,0.0,0.0,0.0,0.0,0.0,0.0,0.0,0.0,0.0,0.0,0.0,0.0,0.0,0.0,0.0,0.0,0.0,0.0,0.0,0.0,0.0,0.0,0.0,0.0,0.0,0.0,0.9842,0.889,0.9263,0.0,0.0,0.0,0.0,0.0,0.0,0.7612,0.7507,0.0,0.0,0.0,0.0,0.0,0.0,0.0,0.0,0.0,0.0,0.0,0.0,0.0,0.0,0.0,0.0,0.0,0.0,0.0,0.0,0.0,0.0,0.0,0.0,0.0,0.0,0.0,0.0,0.0,0.0,0.0,0.0,0.0,0.0,0.0,0.0,0.0,0.0,0.0,0.0,0.0,0.0,0.0,0.0,0.0,0.0,0.0,0.0,0.0,0.0,0.0,0.0,0.0,0.0,0.0,0.9984,1.1565,1.2867,1.3797,1.3421,1.256,1.1271,0.9948,0.8357,0.0,0.0,0.0,0.0,0.0,0.0,0.0,0.0,0.0,0.0,0.0,0.0,0.0,0.0,0.0,0.0,0.0,0.0,0.0,0.0,0.0,0.0,0.0,0.0,0.0,0.0,0.0,0.0,0.0,0.0,0.0,0.0,0.0,0.0,0.0,0.0,0.0,0.0,0.0,0.0,0.0,0.9289,0.978,0.9163,0.0,0.0,0.0,0.0,0.7773,0.7625,0.0,0.0,0.0,0.0,0.0,0.0,0.0,0.0,0.0,0.0,0.0,0.0,0.0,0.0,0.0,0.0,0.0,0.0,0.0,0.0,0.0,0.0,0.0,0.0,0.0,0.0,0.0,0.0,0.0,0.0,0.0,0.0,0.0,0.0,0.0,0.0,0.0,0.0,0.0,0.0,0.0,0.0,0.0,0.0,0.0,0.0,0.0,0.0,0.0,0.0,0.0,0.0,0.0,0.0,0.0,0.0,1.0285,1.1633,1.3012,1.4352,1.3362,1.2353,1.1472,0.973,0.79,0.0,0.0,0.0,0.0,0.0,0.0,0.0,0.0,0.0,0.0,0.0,0.0,0.0,0.0,0.0,0.0,0.0,0.0,0.0,0.0,0.0,0.0,0.0,0.0,0.0,0.0,0.0,0.0,0.0,0.0,0.0,0.0,0.0,0.0,0.0,0.0,0.0,0.0,0.0,0.0,0.0,1.0385,1.0399,0.9662,0.9147,0.0,0.0,0.8653,0.8271,0.8348,0.0,0.0,0.0,0.0,0.0,0.0,0.0,0.0,0.0,0.0,0.0,0.0,0.0,0.0,0.0,0.0,0.0,0.0,0.0,0.0,0.0,0.0,0.0,0.0,0.0,0.0,0.0,0.0,0.0,0.0,0.0,0.0,0.0,0.0,0.0,0.0,0.0,0.0,0.0,0.0,0.0,0.0,0.0,0.0,0.0,0.0,0.0,0.0,0.0,0.0,0.0,0.0,0.0,0.0,0.0,0.8425,1.0204,1.1507,1.2434,1.2865,1.2361,1.1423,1.0054,0.9092,0.7579,0.0,0.0,0.0,0.0,0.0,0.0,0.0,0.0,0.0,0.0,0.0,0.0,0.0,0.0,0.0,0.0,0.0,0.0,0.0,0.0,0.0,0.0,0.0,0.0,0.0,0.0,0.0,0.0,0.0,0.0,0.0,0.0,0.0,0.0,0.0,0.0,0.0,0.0,0.0,0.0,0.0,0.0,1.0913,1.0206,0.0,0.0,0.0,0.8969,0.8543,0.0,0.0,0.0,0.0,0.0,0.0,0.0,0.0,0.0,0.0,0.0,0.0,0.0,0.0,0.0,0.0,0.0,0.0,0.0,0.0,0.0,0.0,0.0,0.0,0.0,0.0,0.0,0.0,0.0,0.0,0.0,0.0,0.0,0.0,0.0,0.0,0.0,0.0,0.0,0.0,0.0,0.0,0.0,0.0,0.0,0.0,0.0,0.0,0.0,0.0,0.0,0.0,0.0,0.0,0.0,0.0,0.0,1.0083,1.114,1.1663,1.1627,1.1381,1.0526,0.8961,0.8489,0.0,0.0,0.0,0.0,0.0,0.0,0.0,0.0,0.0,0.0,0.0,0.0,0.0,0.0,0.0,0.0,0.0,0.0,0.0,0.0,0.0,0.0,0.0,0.0,0.0,0.0,0.0,0.5726,0.0,0.0,0.0,0.0,0.0,0.0,0.0,0.0,0.0,0.0,0.0,0.0,0.0,0.0,1.1187,1.1384,1.0642,1.0055,0.0,0.0,0.9345,0.8919,0.887,0.8691,0.0,0.0,0.0,0.0,0.0,0.0,0.0,0.0,0.0,0.0,0.0,0.0,0.0,0.0,0.0,0.0,0.0,0.0,0.0,0.0,0.0,0.0,0.0,0.0,0.0,0.0,0.0,0.0,0.0,0.0,0.0,0.0,0.0,0.0,0.0,0.0,0.0,0.0,0.0,0.0,0.0,0.0,0.0,0.0,0.0,0.0,0.0,0.0,0.0,0.0,0.0,0.0,0.0,0.0,0.0,1.002,1.0375,1.0905,1.1638,1.0855,0.9907,0.893,0.8104,0.6731,0.0,0.0,0.0,0.0,0.0,0.0,0.0,0.0,0.0,0.0,0.0,0.0,0.0,0.0,0.0,0.0,0.0,0.0,0.0,0.0,0.0,0.0,0.0,0.0,0.0,0.0,0.0,0.0,0.0,0.0,0.0,0.0,0.0,0.0,0.0,0.0,0.0,0.0,0.0,0.0,0.0,1.2296,1.1832,1.0925,1.028,0.0,0.0,0.9925,0.9582,0.9426,0.9304,0.9126,0.0,0.0,0.0,0.0,0.0,0.0,0.0,0.0,0.0,0.0,0.0,0.0,0.0,0.0,0.0,0.0,0.0,0.0,0.0,0.0,0.0,0.0,0.0,0.0,0.0,0.0,0.0,0.0,0.0,0.0,0.0,0.0,0.0,0.0,0.0,0.0,0.0,0.0,0.0,0.0,0.0,0.0,0.0,0.0,0.0,0.0,0.0,0.0,0.0,0.0,0.0,0.0,0.0,0.7421,0.8804,0.9812,1.0418,1.0555,1.0114,0.9392,0.8427,0.76,0.6395,0.0,0.0,0.0,0.0,0.0,0.0,0.0,0.0,0.0,0.0,0.0,0.0,0.0,0.0,0.0,0.0,0.0,0.0,0.0,0.0,0.0,0.0,0.0,0.0,0.0,0.0,0.0,0.0,0.2868,0.2593,0.3918,0.0,0.0,0.0,0.0,0.0,0.0,0.0,0.0,0.0,0.0,1.2258,1.1856,1.1358,0.0,0.0,1.0858,1.0489,0.983,0.9751,0.9508,0.876,0.9,0.0,0.0,0.0,0.0,0.0,0.0,0.0,0.0,0.0,0.0,0.0,0.0,0.0,0.0,0.0,0.0,0.0,0.0,0.0,0.0,0.0,0.0,0.0,0.0,0.0,0.0,0.0,0.0,0.0,0.0,0.0,0.0,0.0,0.0,0.0,0.0,0.0,0.0,0.0,0.0,0.0,0.0,0.0,0.0,0.0,0.0,0.0,0.0,0.0,0.0,0.0,0.0,0.6885,0.7962,0.9164,0.98,0.9861,0.9531,0.8949,0.8079,0.7287,0.6175,0.0,0.0,0.0,0.0,0.0,0.0,0.0,0.0,0.0,0.0,0.0,0.0,0.0,0.0,0.0,0.0,0.0,0.0,0.0,0.0,0.0,0.0,0.0,0.0,0.0,0.0,0.0,0.0,0.3036,0.3085,0.473,0.0,0.0,0.0,0.0,0.0,0.0,0.0,0.0,0.0,0.0,1.2234,1.1874,1.1648,1.1534,1.1497,1.1156,1.0704,1.0144,0.9865,0.9473,0.8767,0.0,0.0,0.0,0.0,0.0,0.0,0.0,0.0,0.0,0.0,0.0,0.0,0.0,0.0,0.0,0.0,0.0,0.0,0.0,0.0,0.0,0.0,0.0,0.0,0.0,0.0,0.0,0.0,0.0,0.0,0.3702,0.0,0.0,0.0,0.0,0.0,0.0,0.0,0.0,0.0,0.0,0.0,0.0,0.0,0.0,0.0,0.0,0.0,0.0,0.0,0.0,0.0,0.0,0.6394,0.7866,0.8348,0.8956,0.974,0.9169,0.8547,0.7998,0.7208,0.608,0.4575,0.0,0.0,0.0,0.0,0.0,0.0,0.0,0.0,0.0,0.0,0.0,0.0,0.0,0.0,0.0,0.0,0.0,0.0,0.0,0.0,0.0,0.0,0.0,0.0,0.0,0.0,0.2764,0.2656,0.3386,0.0,0.0,0.0,0.0,0.0,0.0,0.0,0.0,0.0,0.0,1.2698,1.2345,1.1939,1.1724,1.1553,1.1487,1.0892,1.0442,1.0527,0.9768,0.9213,0.0,0.0,0.0,0.0,0.0,0.0,0.0,0.0,0.0,0.0,0.0,0.0,0.0,0.0,0.0,0.0,0.0,0.0,0.0,0.0,0.0,0.0,0.0,0.0,0.0,0.0,0.0,0.4868,0.4844,0.0,0.0,0.0,0.0,0.0,0.0,0.0,0.0,0.0,0.0,0.0,0.8455,0.8201,0.0,0.0,0.0,0.0,0.0,0.0,0.0,0.0,0.0,0.0,0.0,0.0,0.6143,0.7568,0.8065,0.8551,0.904,0.8512,0.7945,0.7418,0.675,0.5954,0.4996,0.0,0.0,0.0,0.0,0.0,0.0,0.0,0.0,0.0,0.0,0.0,0.0,0.0,0.0,0.0,0.0,0.0,0.0,0.0,0.0,0.0,0.0,0.0,0.0,0.0,0.372,0.0,0.0,0.0,0.0,0.0,0.0,0.0,0.0,0.0,0.0,0.0,1.1877,1.2634,1.2642,1.2286,1.154,1.1455,1.1268,0.0,0.0,0.0,0.0,0.0,0.0,0.0,0.0,0.0,0.0,0.0,0.0,0.0,0.0,1.2417,1.3271,1.3419,1.3296,1.2907,0.0,0.0,0.0,0.0,0.0,0.0,0.0,0.0,0.0,0.0,0.0,0.0,0.0,0.0,0.6175,0.0,0.557,0.0,0.0,0.0,0.0,0.0,0.0,0.0,0.0,0.8797,0.9287,0.9654,0.9316,0.9208,0.0,0.8994,0.8383,0.0,0.0,0.0,0.0,0.0,0.0,0.0,0.0,0.5942,0.7318,0.7826,0.8222,0.853,0.8062,0.7536,0.6995,0.6255,0.565,0.5223,0.4624,0.4316,0.0,0.0,0.0,0.0,0.0,0.0,0.0,0.0,0.0,0.0,0.0,0.0,0.0,0.0,0.0,0.0,0.0,0.0,0.0,0.0,0.0,0.0,0.0,0.3484,0.0,0.0,0.0,0.0,0.0,0.0,0.0,0.0,0.0,1.1027,1.1506,1.1912,1.227,1.2372,1.2104,1.1214,0.0,0.0,0.0,0.0,0.0,0.0,0.0,1.0515,1.0034,1.0943,1.1729,1.1737,1.2005,1.2343,1.2719,0.0,0.0,1.3814,1.3876,1.3663,1.3317,1.3087,1.2859,1.2561,1.236,1.2234,0.0,0.0,0.0,0.0,0.0,0.0,0.0,0.0,0.735,0.7453,0.0,0.6439,0.0,0.0,0.0,0.0,0.0,0.7815,0.0,0.0,0.9425,1.0073,1.1021,1.0379,1.0319,1.0759,1.0073,0.9476,0.8905,0.7519,0.0,0.0,0.0,0.0,0.0,0.0,0.5782,0.7097,0.7586,0.7941,0.8228,0.7812,0.7324,0.6764,0.5768,0.5251,0.5217,0.4689,0.4363,0.4351,0.3682,0.0,0.0,0.0,0.0,0.0,0.0,0.0,0.0,0.0,0.0,0.0,0.0,0.0,0.0,0.0,0.0,0.0,0.0,0.0,0.0,0.2873,0.0,0.0,0.0,0.0,0.0,0.0,0.0,0.0,0.0,0.0,1.0503,1.1227,1.1748,1.1825,0.0,0.0,0.0,0.0,1.1885,1.155,1.1509,1.1411,1.1252,1.1122,1.1022,1.0984,0.0,0.0,1.2858,1.3057,1.3183,1.3264,1.3044,1.3144,1.3901,1.4127,1.4145,1.3893,1.3668,1.3338,1.2723,1.2473,1.2323,0.5778,0.0,0.0,0.0,0.0,0.7645,0.8559,0.9386,0.9425,0.9221,0.8824,0.8143,0.0,0.0,0.0,0.0,0.0,0.0,0.971,1.0474,1.1048,1.1413,1.1577,1.1337,1.1171,1.1074,1.0889,1.064,1.0362,0.9574,0.8263,0.6446,0.0,0.0,0.0,0.0,0.6333,0.7333,0.7712,0.7725,0.7447,0.731,0.6886,0.6175,0.5901,0.5818,0.5913,0.5663,0.5512,0.5492,0.472,0.0,0.0,0.0,0.0,0.0,0.0,0.0,0.0,0.0,0.0,0.0,0.0,0.0,0.0,0.0,0.0,0.0,0.0,0.0,0.1782,0.2316,0.3396,0.0,0.0,0.0,0.0,0.0,0.0,0.0,0.0,0.0,1.0578,1.1536,1.224,0.0,0.0,1.2379,1.1581,1.1761,1.1687,1.0798,1.0909,0.0,1.0495,1.1115,1.1499,1.107,1.1839,1.264,1.3041,1.3129,1.3092,1.2954,1.2992,1.3073,1.3149,1.3517,1.3717,1.3581,1.3488,1.3394,1.3182,1.3009,1.2876,0.7798,0.7265,0.7624,0.8153,0.8859,0.9824,1.0607,1.1249,1.1183,1.089,1.0407,0.9571,0.8837,0.8198,0.8125,0.0,0.0,0.0,1.0736,1.1511,1.1899,1.2136,1.2184,1.2117,1.1935,1.1678,1.1839,1.1626,1.1049,1.0934,0.9691,0.7453,0.0,0.0,0.6068,0.6107,0.6607,0.7505,0.7638,0.745,0.6963,0.6666,0.6304,0.5889,0.5924,0.6036,0.6189,0.6108,0.6009,0.5958,0.4783,0.381,0.0,0.0,0.0,0.0,0.0,0.0,0.0,0.0,0.0,0.0,0.0,0.7582,0.7702,0.0,0.0,0.0,0.4187,0.2568,0.1758,0.2941,0.0,0.0,0.0,0.0,0.0,0.0,0.0,1.0296,1.0765,1.1133,1.1366,1.1953,1.2261,1.1987,1.2122,1.1945,1.121,0.0,1.1305,1.0597,1.0756,1.0817,1.0491,1.1204,1.1765,1.1601,1.2157,1.2611,1.2706,1.2831,1.2835,1.2598,1.2614,1.2689,1.2624,1.2899,1.3238,1.3357,1.3406,1.339,1.339,1.3259,1.3171,0.9539,1.0345,1.0302,1.062,1.122,1.2175,1.2752,1.3031,1.2622,1.2322,1.2056,1.0709,1.0126,1.0178,1.0238,0.0,1.073,1.105,1.162,1.2308,1.2207,1.2373,1.2762,1.2703,1.2562,1.2365,1.2781,1.2346,1.1261,1.1688,1.0827,0.878,0.8016,0.7304,0.6622,0.6356,0.6656,0.7509,0.742,0.7133,0.6682,0.6008,0.5709,0.5793,0.5856,0.5993,0.6177,0.6117,0.6009,0.5783,0.4157,0.2941,0.2335,0.0,0.0,0.0,0.0,0.0,0.0,0.0,0.0,0.0,0.0,0.0,0.0,0.0,0.0,0.0,0.4252,0.0,0.2623,0.4351,0.0,0.0,0.0,0.9258,1.0243,1.0221,1.0537,1.1556,0.0,0.0,1.243,1.2291,1.1857,1.1071,1.1109,1.0979,1.0331,1.0634,1.0854,1.0698,1.0854,1.0941,1.0723,1.116,1.1643,1.2022,1.252,1.2474,1.2134,1.233,1.2433,1.2164,1.2092,1.2112,1.224,1.2374,1.2618,1.3159,1.3307,1.3365,1.3329,1.3243,1.3156,1.0742,1.1654,1.253,1.2714,1.2523,1.349,1.3825,1.3691,1.3632,1.2922,1.1778,1.1227,1.0602,1.0005,1.0503,1.1108,1.1751,1.1989,1.2525,1.3222,1.2838,1.2594,1.2502,1.249,1.2282,1.1973,1.2404,1.2396,1.1949,1.1962,1.1324,1.0065,0.9361,0.8206,0.6656,0.6482,0.6644,0.7059,0.7037,0.6868,0.655,0.6234,0.5963,0.5725,0.5793,0.59,0.6052,0.5971,0.5746,0.5288,0.4012,0.2773,0.1687,0.0288,0.0,0.0,0.0,0.0,0.0,0.0,0.0,0.0,0.0,0.7694,0.7812,0.0,0.6484,0.0,0.5117,0.4304,0.4236,0.5526,0.0,0.0,0.8968,0.9682,1.0592,1.0554,1.073,1.1325,1.14,1.1444,1.16,1.121,1.0875,1.0717,1.1073,1.1139,1.0605,1.0597,1.0512,1.0177,1.0508,1.069,1.0145,1.0271,1.0664,1.1186,1.1291,1.1402,1.1714,1.1944,1.2051,1.1977,1.1957,1.1932,1.183,1.1947,1.2067,1.2264,1.2657,1.3017,1.3022,1.2988,1.2958,1.0948,1.1925,1.3059,1.3497,1.3565,1.4487,1.4562,1.4034,1.3985,1.3173,1.1856,1.1499,1.1035,1.0537,1.1155,1.1784,1.2399,1.2617,1.3047,1.3599,1.3207,1.292,1.2754,1.2686,1.2512,1.2212,1.2676,1.2693,1.2309,1.2196,1.157,1.0518,0.9656,0.8529,0.7171,0.6764,0.6527,0.641,0.6457,0.6461,0.6406,0.6181,0.5894,0.5576,0.5436,0.5416,0.5544,0.5316,0.5007,0.4607,0.337,0.2274,0.1373,-0.0503,-0.1283,0.0,0.0,0.0,0.0,0.0,0.0,0.0,0.0,0.0,0.0,0.0,0.6679,0.6346,0.6168,0.6028,0.5927,0.6857,0.7985,0.921,0.9517,1.0078,1.1209,1.1164,1.1218,1.1666,1.1483,1.133,1.1252,1.0792,1.0374,1.016,1.0284,1.0387,1.0269,1.0152,0.9957,0.9699,0.9763,0.9788,0.9417,0.9411,0.9632,1.0147,1.0329,1.055,1.1011,1.1125,1.1184,1.1306,1.1222,1.1079,1.1035,1.107,1.1186,1.1436,1.1786,1.218,1.2486,1.25,1.2451,1.0754,1.1701,1.2749,1.3552,1.4204,1.4983,1.4842,1.4088,1.3882,1.3094,1.1867,1.1471,1.1214,1.1135,1.1763,1.2305,1.2765,1.297,1.3306,1.3672,1.338,1.3223,1.3113,1.3004,1.2858,1.2685,1.3129,1.3057,1.2461,1.2328,1.1701,1.0595,0.952,0.8577,0.784,0.7127,0.6474,0.5892,0.6063,0.6208,0.6282,0.6091,0.5784,0.5414,0.504,0.4899,0.4967,0.4573,0.4211,0.3891,0.2686,0.1757,0.1202,-0.0835,-0.1851,0.0,0.0754,0.0,0.0,0.0,0.0,0.0,0.0,0.0,0.0,0.7386,0.697,0.6435,0.7256,0.7743,0.7529,0.8112,0.8925,0.99,0.9897,1.0328,1.1574,1.1543,1.1518,1.1849,1.1457,1.1126,1.0951,1.0536,0.9985,0.9529,0.9268,0.9268,0.9497,0.9409,0.9233,0.9217,0.8792,0.8608,0.8734,0.8595,0.8666,0.9197,0.9519,0.9858,1.0218,1.0223,1.022,1.0439,1.0288,1.0089,1.0059,1.0109,1.0244,1.0628,1.0871,1.1216,1.184,1.189,1.1796,1.0851,1.1701,1.2652,1.3362,1.3881,1.4174,1.3994,1.3529,1.3376,1.2419,1.0898,1.0739,1.064,1.0698,1.1427,1.2059,1.2571,1.2883,1.3236,1.3603,1.3175,1.2905,1.28,1.2774,1.2647,1.2483,1.2931,1.3048,1.2787,1.2288,1.1754,1.1136,0.996,0.8893,0.798,0.0,0.0,0.0,0.6737,0.6767,0.6316,0.636,0.6072,0.5429,0.5283,0.0,0.4845,0.4692,0.425,0.346,0.2807,0.0,0.0,0.0,0.0,0.0,0.0,0.0,0.0,0.0,0.0,0.0,0.6644,0.7008,0.7712,0.8044,0.8144,0.7991,0.8021,0.8184,0.8563,0.8629,0.9102,1.0087,0.9973,1.0016,1.048,1.0359,1.0217,1.0166,1.0029,0.9931,0.9882,0.9473,0.9175,0.9064,0.8736,0.851,0.8572,0.857,0.8434,0.8213,0.7978,0.7825,0.787,0.7795,0.7861,0.828,0.8536,0.8925,0.9487,0.9708,0.9727,0.9737,0.9665,0.9532,0.9409,0.9517,0.9611,0.9744,1.0027,1.0514,1.1534,1.1403,1.109,1.021,0.0,1.2143,1.2832,0.0,1.352,1.3327,1.2909,1.2946,1.195,1.0306,1.0273,1.024,1.0241,1.1029,1.1747,1.2367,1.2824,1.3258,1.3678,1.3454,1.3319,1.3236,1.3169,1.3097,1.3,1.3224,1.331,1.3214,1.2684,1.2103,1.1547,1.0479,0.9525,0.871,0.8147,0.7432,0.6507,0.6761,0.6809,0.6615,0.6625,0.6273,0.5524,0.5274,0.0,0.0,0.0,0.0,0.0,0.0,0.0,0.0,0.1222,0.0,0.2034,0.3014,0.3843,0.4441,0.4979,0.5811,0.7044,0.7384,0.7713,0.8168,0.8603,0.8798,0.8655,0.8702,0.8815,0.8973,0.8837,0.906,0.9773,0.9665,0.9636,0.995,0.977,0.9577,0.948,0.9206,0.8992,0.897,0.8623,0.8354,0.8348,0.8185,0.8043,0.8066,0.8138,0.8066,0.7705,0.7384,0.7224,0.7243,0.7146,0.7197,0.7539,0.7715,0.803,0.8599,0.8646,0.8629,0.8659,0.8532,0.8349,0.8404,0.8496,0.8711,0.9104,0.9432,0.9849,1.0591,1.0533,1.0358,0.9436,1.0397,1.1481,1.2201,1.2647,1.2895,1.2675,1.2155,0.0,0.0,0.0,0.9871,0.9838,0.984,1.055,1.1321,1.2086,1.2618,1.3194,1.3744,1.375,1.3744,1.3773,1.3644,1.3615,1.3615,1.3615,1.3615,1.3576,1.3045,1.2523,1.1947,1.0998,1.0166,0.9471,0.8979,0.818,0.7086,0.7012,0.6971,0.6943,0.6959,0.6601,0.5796,0.5468,0.5142,0.479,0.4472,0.4309,0.4311,0.3936,0.3583,0.3264,0.2788,0.3022,0.4146,0.4704,0.5297,0.5977,0.6321,0.6908,0.7861,0.8315,0.8555,0.8572,0.8936,0.9095,0.893,0.9132,0.9187,0.9012,0.8833,0.8878,0.9235,0.9123,0.9157,0.9441,0.9213,0.8939,0.8906,0.8486,0.816,0.8103,0.7889,0.7686,0.7661,0.771,0.771,0.772,0.7831,0.7797,0.7401,0.7054,0.6788,0.6771,0.6672,0.6656,0.6891,0.702,0.7245,0.7546,0.7539,0.7504,0.7732,0.7392,0.7278,0.7349,0.756,0.7824,0.8438,0.8871,0.9197,0.9473,0.9577,0.9581,0.9061,0.9969,1.0981,1.1648,1.2047,1.219,1.1853,1.1168,1.0859,1.0176,0.9315,0.9307,0.93,0.9326,0.9902,1.0648,1.1541,1.2132,1.2774,1.3438,1.3457,1.3515,1.3621,1.3615,1.3615,1.3615,1.3615,1.3615,1.3545,1.3073,1.2743,1.254,1.1551,1.0558,0.9698,0.9418,0.9081,0.8662,0.8532,0.8028,0.7104,0.745,0.727,0.6509,0.6416,0.6217,0.5884,0.5873,0.5778,0.5563,0.5436,0.5257,0.5035,0.4671,0.4682,0.509,0.5461,0.5909,0.6485,0.6966,0.7577,0.8345,0.8874,0.897,0.8499,0.8796,0.8999,0.8989,0.8844,0.8678,0.8597,0.8505,0.8476,0.849,0.8351,0.8223,0.8183,0.7939,0.7793,0.7748,0.75,0.7386,0.7396,0.7346,0.7344,0.7413,0.7452,0.7422,0.7334,0.7397,0.7372,0.7101,0.6807,0.6575,0.6454,0.6317,0.6274,0.6221,0.6491,0.6714,0.6956,0.7011,0.7032,0.7062,0.6975,0.6924,0.6854,0.7065,0.7363,0.7684,0.8095,0.8457,0.8642,0.871,0.8833,0.8231,0.9075,1.0141,1.0829,1.1209,1.1473,1.1167,1.0562,1.0229,0.9748,0.922,0.9048,0.8956,0.8919,0.9432,1.0119,1.0893,1.1701,1.2421,1.3026,1.3281,1.3438,1.3491,1.3573,1.3615,1.3615,1.3615,1.3615,1.3595,1.3351,1.3094,1.2743,1.1663,1.0874,1.0469,1.0079,0.9697,0.9338,0.9,0.8655,0.8242,0.8373,0.8212,0.7695,0.7478,0.7197,0.6888,0.6774,0.67,0.6621,0.6584,0.6499,0.634,0.6175,0.617,0.6324,0.6576,0.698,0.7548,0.802,0.8394,0.8638,0.8813,0.8809,0.8538,0.8748,0.8864,0.8792,0.8609,0.8486,0.846,0.8356,0.8257,0.8195,0.8013,0.7811,0.7603,0.7363,0.7224,0.7181,0.7096,0.7041,0.7026,0.7081,0.7096,0.7131,0.7151,0.7131,0.7,0.7033,0.7044,0.694,0.6743,0.6543,0.633,0.6171,0.6074,0.5956,0.6017,0.6183,0.6386,0.6488,0.6532,0.661,0.6642,0.662,0.6593,0.6784,0.7013,0.7293,0.7691,0.8019,0.818,0.8316,0.8511,0.7334,0.8171,0.9258,0.9994,1.0502,1.0816,1.0612,1.0065,0.9877,0.9514,0.911,0.8827,0.8643,0.858,0.905,0.9636,1.0372,1.1276,1.2051,1.2676,1.3094,1.3324,1.3396,1.3515,1.3563,1.3592,1.3615,1.3615,1.3615,1.3615,1.3341,1.2748,1.179,1.1264,1.1139,1.0577,1.0155,0.9836,0.9427,0.9226,0.9227,0.9212,0.9065,0.8804,0.8521,0.8278,0.8034,0.7879,0.7785,0.7751,0.7758,0.7653,0.7422,0.7411,0.746,0.7517,0.7655,0.7968,0.841,0.871,0.8809,0.8717,0.8603,0.8519,0.8539,0.8598,0.862,0.8547,0.8435,0.8356,0.8313,0.8191,0.8076,0.7975,0.7744,0.752,0.7319,0.7062,0.6897,0.6882,0.6835,0.6801,0.6835,0.6882,0.6897,0.6846,0.6857,0.6816,0.6727,0.6686,0.6662,0.6665,0.6595,0.6448,0.6276,0.6052,0.5893,0.5772,0.5688,0.5765,0.5908,0.5959,0.6026,0.6184,0.6221,0.626,0.6357,0.648,0.6694,0.7018,0.7416,0.777,0.7966,0.818,0.8353,0.6608,0.7498,0.8475,0.9361,1.0051,1.0415,1.0223,0.9721,0.9762,0.9435,0.8883,0.8563,0.8374,0.8295,0.8676,0.9268,1.0042,1.077,1.159,1.2475,1.2798,1.3109,1.3372,1.342,1.3491,1.3586,1.3586,1.3615,1.3615,1.3615,1.3341,1.2802,1.2206,1.1686,1.1266,1.0637,1.0346,1.0503,1.0338,0.9941,0.9362,0.9629,0.9677,0.9435,0.9499,0.9555,0.9526,0.9638,0.947,0.9157,0.9085,0.8862,0.8435,0.8354,0.8395,0.8451,0.8475,0.8527,0.8566,0.8492,0.8453,0.8439,0.8359,0.8333,0.8319,0.8221,0.8239,0.8342,0.829,0.8201,0.8125,0.7952,0.7792,0.7661,0.7417,0.7171,0.697,0.6766,0.6611,0.6543,0.6567,0.6571,0.663,0.6637,0.6645,0.6615,0.6569,0.6508,0.6432,0.6314,0.6179,0.6195,0.6229,0.6206,0.6056,0.585,0.5729,0.5582,0.5491,0.5511,0.5549,0.5624,0.5685,0.581,0.5739,0.5846,0.5986,0.612,0.6299,0.6668,0.7036,0.7402,0.7791,0.8044,0.8212,0.5794,0.675,0.7652,0.862,0.9502,0.9921,0.9951,0.9736,0.9769,0.9506,0.9031,0.8689,0.8398,0.8218,0.8451,0.8935,0.9562,1.0226,1.1019,1.1898,1.2431,1.2822,1.3109,1.33,1.3415,1.3496,1.3563,1.3615,1.3615,1.3615,1.347,1.3209,1.2438,1.1916,1.1651,1.079,1.037,1.0462,1.0418,1.0321,1.0225,1.035,1.0407,1.0319,1.0149,1.0068,1.0065,0.9985,0.9697,0.9287,0.9279,0.9062,0.8526,0.8524,0.8493,0.8477,0.8449,0.8404,0.8361,0.8209,0.8084,0.8047,0.7976,0.7956,0.7994,0.7952,0.7966,0.8009,0.8023,0.8004,0.7933,0.7793,0.7598,0.7393,0.716,0.6921,0.6688,0.6543,0.6463,0.644,0.6421,0.6471,0.6532,0.6513,0.6478,0.6436,0.636,0.6295,0.6191,0.606,0.5921,0.5777,0.5753,0.5831,0.5882,0.5819,0.5666,0.555,0.5457,0.5399,0.5452,0.5451,0.5509,0.5631,0.5594,0.5609,0.5736,0.5794,0.592,0.6298,0.678,0.7199,0.7576,0.7721,0.787,0.4889,0.5905,0.7093,0.8193,0.9185,0.961,0.9799,0.9821,0.9873,0.9684,0.929,0.8893,0.855,0.8348,0.8345,0.8606,0.9103,0.971,1.0456,1.1263,1.1947,1.2431,1.2779,1.3069,1.3252,1.3343,1.3462,1.3563,1.3592,1.3615,1.353,1.3284,1.2488,1.1946,1.1748,1.0835,1.0428,1.05,1.05,1.0602,1.0788,1.0822,1.0847,1.0869,1.063,1.0467,1.0456,1.0158,0.9759,0.9303,0.9237,0.8928,0.8384,0.8313,0.8246,0.8138,0.8052,0.7961,0.7875,0.7715,0.7593,0.7515,0.749,0.7515,0.7578,0.7603,0.7603,0.7627,0.7666,0.7656,0.7705,0.7559,0.7373,0.7141,0.6925,0.6684,0.6475,0.636,0.6279,0.6295,0.6237,0.6272,0.6318,0.6299,0.6214,0.6153,0.6106,0.6041,0.5866,0.5746,0.5602,0.5425,0.5334,0.5437,0.5715,0.5714,0.5615,0.5608,0.554,0.5505,0.5474,0.5394,0.5278,0.5314,0.5388,0.545,0.5478,0.5508,0.5602,0.5943,0.6364,0.6784,0.6964,0.7176,0.7377,0.3923,0.5052,0.7004,0.8276,0.9038,0.9561,0.9799,0.9795,1.0106,0.9999,0.954,0.9129,0.8821,0.8553,0.8321,0.8374,0.8709,0.9328,0.9976,1.0651,1.1242,1.1873,1.2505,1.2671,1.2905,1.3175,1.3324,1.3449,1.3592,1.3586,1.3359,1.2913,1.2361,1.1868,1.1425,1.0873,1.064,1.0741,1.0755,1.0813,1.0876,1.09,1.09,1.0914,1.0864,1.0802,1.0781,1.0433,0.9944,0.95,0.9124,0.8627,0.8011,0.7864,0.7739,0.749,0.7328,0.7215,0.7087,0.6996,0.6897,0.679,0.6887,0.6955,0.7066,0.7105,0.7175,0.7225,0.7209,0.7259,0.7411,0.7254,0.7065,0.69,0.663,0.6402,0.6322,0.6118,0.6037,0.6025,0.5971,0.594,0.5921,0.5932,0.5893,0.5808,0.5663,0.5519,0.5468,0.5292,0.5182,0.5137,0.5096,0.5131,0.5425,0.5538,0.5604,0.5651,0.5651,0.5608,0.5428,0.5256,0.5132,0.5006,0.5006,0.5063,0.5165,0.528,0.5398,0.563,0.5832,0.6139,0.6387,0.6629,0.6799,0.3535,0.5324,0.6872,0.7934,0.8659,0.9263,0.9599,0.9706,0.9895,0.9788,0.9465,0.9133,0.8775,0.8345,0.8348,0.8371,0.8504,0.8735,0.923,0.9947,1.0456,1.0994,1.1539,1.2076,1.2446,1.2754,1.3016,1.3209,1.3333,1.3343,1.3133,1.2696,1.2226,1.1774,1.1323,1.0848,1.0664,1.0798,1.0798,1.0871,1.1006,1.103,1.1082,1.1198,1.0714,1.0448,1.0448,1.0004,0.9545,0.9144,0.8963,0.8597,0.7958,0.7598,0.7334,0.7095,0.6826,0.6648,0.6537,0.6413,0.6325,0.6324,0.6363,0.6459,0.6638,0.6703,0.6779,0.6889,0.6924,0.6949,0.6887,0.6842,0.6695,0.6521,0.6279,0.6098,0.5998,0.5885,0.5819,0.5788,0.571,0.5632,0.5597,0.5575,0.5547,0.5498,0.5423,0.5318,0.5213,0.509,0.5033,0.4966,0.4928,0.4947,0.5135,0.5349,0.5503,0.5655,0.5709,0.5643,0.5495,0.5321,0.518,0.501,0.4889,0.4833,0.5005,0.5114,0.524,0.5318,0.5527,0.566,0.5844,0.6054,0.6213,0.3312,0.5269,0.6473,0.7447,0.8282,0.8998,0.9387,0.9618,0.9792,0.974,0.9502,0.9192,0.8824,0.8484,0.8374,0.8348,0.8398,0.8444,0.8784,0.935,0.971,1.0174,1.0719,1.1326,1.1819,1.217,1.2613,1.2924,1.3094,1.3108,1.2822,1.2308,1.196,1.1603,1.1166,1.0811,1.0722,1.0803,1.0822,1.0919,1.1087,1.1111,1.1206,1.1263,1.0716,1.0343,1.031,0.991,0.9422,0.9,0.8786,0.8433,0.7812,0.7344,0.6955,0.6636,0.6283,0.6029,0.5879,0.5715,0.5641,0.5614,0.5711,0.5859,0.6068,0.6156,0.6299,0.646,0.6529,0.6494,0.6386,0.6287,0.6214,0.6129,0.5928,0.5714,0.5557,0.5491,0.5456,0.546,0.54,0.5337,0.5286,0.5264,0.5255,0.5179,0.5182,0.5116,0.5017,0.496,0.4915,0.4877,0.4835,0.4867,0.4992,0.5157,0.5362,0.5529,0.5671,0.5636,0.551,0.5353,0.5198,0.5023,0.4899,0.4825,0.4854,0.4969,0.5032,0.5081,0.5142,0.5255,0.539,0.5495,0.5658,0.3145,0.4697,0.5767,0.6826,0.7848,0.8623,0.9211,0.9514,0.981,0.9814,0.961,0.9345,0.9057,0.8877,0.848,0.8321,0.8427,0.8524,0.8676,0.8856,0.9099,0.9488,0.9991,1.0444,1.0939,1.1456,1.215,1.2598,1.2774,1.2774,1.2456,1.1854,1.1728,1.1408,1.0816,1.0802,1.0819,1.0862,1.0881,1.0957,1.1092,1.1111,1.1214,1.1359,1.0983,1.0711,1.0594,1.0166,0.9579,0.8972,0.8547,0.8077,0.7534,0.7105,0.6632,0.6056,0.569,0.5315,0.4963,0.4899,0.4801,0.474,0.4871,0.5096,0.5337,0.5481,0.5665,0.5862,0.5944,0.5955,0.5874,0.5688,0.5606,0.5808,0.5503,0.5233,0.5068,0.4963,0.4934,0.5004,0.501,0.5017,0.4988,0.4985,0.4972,0.4938,0.4925,0.4912,0.4854,0.4828,0.4796,0.4796,0.4809,0.4835,0.4893,0.4966,0.5176,0.5384,0.5522,0.5582,0.539,0.5232,0.5112,0.4957,0.4883,0.4809,0.4796,0.489,0.4875,0.4905,0.4902,0.4943,0.5048,0.5168,0.5211,0.2425,0.3841,0.5054,0.6122,0.7069,0.8007,0.8587,0.8916,0.929,0.9375,0.9248,0.9113,0.8926,0.8791,0.8715,0.8613,0.8424,0.8613,0.8666,0.855,0.8629,0.8837,0.9216,0.9681,1.0307,1.0977,1.1544,1.1852,1.1952,1.2126,1.1956,1.1574,1.145,1.1246,1.0879,1.0744,1.0678,1.0688,1.0784,1.0928,1.108,1.1147,1.1322,1.1617,1.1567,1.1374,1.0977,1.0053,0.9229,0.8567,0.8346,0.7932,0.7299,0.6801,0.6221,0.5578,0.5106,0.4676,0.4274,0.4143,0.4073,0.4113,0.4199,0.4409,0.4695,0.4798,0.4973,0.5217,0.5306,0.5337,0.5397,0.5201,0.5084,0.5267,0.5017,0.4774,0.4655,0.4727,0.4789,0.4741,0.4762,0.4764,0.4729,0.4714,0.4711,0.4714,0.4749,0.479,0.4777,0.4745,0.4796,0.4796,0.479,0.4739,0.4733,0.4746,0.4845,0.5004,0.5157,0.5295,0.515,0.5074,0.4969,0.4909,0.4835,0.4809,0.4796,0.4796,0.4796,0.4796,0.4839,0.4839,0.4833,0.4885,0.499,0.1573,0.2978,0.419,0.5256,0.6151,0.7135,0.7788,0.8206,0.8623,0.883,0.8893,0.8929,0.8877,0.8788,0.8873,0.8745,0.8501,0.8666,0.8557,0.8371,0.8318,0.8421,0.8629,0.9122,0.9721,1.0383,1.0766,1.1028,1.1192,1.1385,1.1405,1.1198,1.1058,1.0916,1.0751,1.0513,1.0414,1.052,1.0602,1.0779,1.0959,1.1064,1.1292,1.1634,1.1784,1.1622,1.1172,1.0225,0.9383,0.8673,0.8188,0.7564,0.6912,0.6355,0.5716,0.4982,0.4443,0.3981,0.3558,0.3358,0.3278,0.338,0.3427,0.3602,0.3911,0.4057,0.4253,0.4465,0.458,0.4641,0.4647,0.4501,0.4353,0.4219,0.4229,0.4157,0.4107,0.4152,0.4302,0.4314,0.4368,0.4399,0.4468,0.4428,0.4457,0.4473,0.4557,0.4595,0.4611,0.4595,0.4611,0.463,0.4614,0.4578,0.454,0.4527,0.453,0.4624,0.473,0.4807,0.4775,0.4746,0.4685,0.4743,0.4698,0.4758,0.4761,0.478,0.4796,0.4796,0.4796,0.4799,0.4818,0.4841,0.494,0.0598,0.2077,0.3133,0.4154,0.5141,0.6072,0.6779,0.7376,0.7839,0.8237,0.8567,0.8659,0.8775,0.8877,0.8801,0.8689,0.86,0.86,0.8451,0.8245,0.8195,0.8248,0.8354,0.8745,0.9237,0.9688,0.9887,1.0153,1.0476,1.0702,1.0814,1.0771,1.0639,1.0498,1.0465,1.0161,1.0141,1.0298,1.037,1.0553,1.0864,1.0921,1.1121,1.1509,1.1623,1.1575,1.1273,1.0553,0.9844,0.9079,0.7896,0.7063,0.6469,0.5821,0.5055,0.4234,0.3705,0.3227,0.2832,0.2537,0.2437,0.2455,0.2552,0.2736,0.3019,0.3245,0.3426,0.3617,0.3754,0.3782,0.3655,0.3528,0.3304,0.2974,0.3269,0.3437,0.3327,0.3353,0.361,0.389,0.3885,0.3875,0.4157,0.4096,0.4158,0.4234,0.4293,0.4312,0.4312,0.4331,0.4315,0.4347,0.4385,0.435,0.4299,0.4266,0.4253,0.4134,0.4245,0.4328,0.4428,0.4447,0.4476,0.4535,0.4602,0.4675,0.4729,0.4748,0.478,0.4796,0.4796,0.4796,0.4827,0.4888,0.5101,-0.0668,0.0646,0.177,0.2785,0.3797,0.4771,0.5527,0.6145,0.6824,0.7329,0.7711,0.801,0.8232,0.8401,0.858,0.8527,0.8395,0.8497,0.8368,0.8062,0.8141,0.8198,0.8251,0.8427,0.8685,0.8939,0.9175,0.9361,0.9573,0.995,1.0263,1.0484,1.0443,1.0412,1.0317,1.0101,0.9985,0.9989,1.0123,1.0365,1.0701,1.0835,1.1096,1.1461,1.1575,1.1603,1.1492,1.0445,0.9287,0.8213,0.7448,0.6674,0.5948,0.5202,0.4397,0.3598,0.2989,0.2463,0.2005,0.1727,0.1637,0.1609,0.1629,0.1822,0.2169,0.2283,0.2468,0.2652,0.2723,0.2673,0.2629,0.2473,0.2148,0.1926,0.235,0.2832,0.2924,0.3114,0.3354,0.3633,0.3546,0.3499,0.3503,0.3623,0.3782,0.3923,0.4005,0.4056,0.4023,0.4021,0.4021,0.4072,0.4107,0.4075,0.404,0.4023,0.3923,0.3709,0.3742,0.3858,0.4007,0.4158,0.4234,0.4342,0.4428,0.4501,0.4633,0.4716,0.4748,0.4837,0.4842,0.4866,0.4962,0.5035,0.5356,-0.2396,-0.1127,0.0031,0.1155,0.2178,0.3199,0.3985,0.4694,0.545,0.616,0.6684,0.7179,0.7592,0.7984,0.8153,0.8099,0.7975,0.8265,0.8185,0.7922,0.8005,0.8058,0.8112,0.8162,0.8268,0.8451,0.8639,0.8873,0.9084,0.9439,0.9855,1.0146,1.0204,1.0184,1.0116,0.9913,0.9803,0.9782,0.9917,1.0176,1.063,1.0725,1.0969,1.1274,1.1397,1.1357,1.087,0.9927,0.8826,0.7736,0.6899,0.6129,0.5274,0.4402,0.3589,0.2778,0.2144,0.1584,0.1195,0.0888,0.072,0.0705,0.0681,0.0852,0.1121,0.1267,0.146,0.1668,0.1613,0.1555,0.1445,0.1228,0.1046,0.1022,0.1379,0.1831,0.2176,0.2353,0.2677,0.2873,0.2917,0.2855,0.2839,0.3062,0.3266,0.3429,0.353,0.36,0.3635,0.3665,0.3714,0.3763,0.3796,0.3763,0.3733,0.3698,0.3639,0.3441,0.3376,0.3466,0.3669,0.386,0.3961,0.4088,0.4223,0.4397,0.4578,0.4758,0.4911,0.4972,0.4949,0.4985,0.5081,0.5294,0.5613,-0.4478,-0.3128,-0.1954,-0.0769,0.0351,0.1366,0.222,0.3055,0.3827,0.4712,0.5534,0.617,0.675,0.7505,0.7456,0.7488,0.7413,0.7732,0.7806,0.7726,0.7812,0.7901,0.7955,0.7955,0.8035,0.8192,0.8321,0.8563,0.8824,0.9181,0.9573,0.9913,0.9941,0.9939,0.9945,0.9759,0.9708,0.9865,1.0077,1.0411,1.0795,1.0857,1.0962,1.1199,1.1163,1.07,0.9993,0.9253,0.8501,0.7268,0.6409,0.555,0.4599,0.3552,0.2688,0.1958,0.1263,0.0679,0.0359,-0.0036,-0.0276,-0.0299,-0.0328,-0.0237,0.002,0.0201,0.0403,0.0645,0.0576,0.0441,0.0242,-0.0041,-0.0021,0.0154,0.0289,0.0648,0.1097,0.1412,0.1704,0.2033,0.2074,0.2135,0.2268,0.2463,0.2698,0.2935,0.3034,0.3085,0.3138,0.3155,0.3253,0.3387,0.342,0.3436,0.3405,0.3375,0.3305,0.32,0.3147,0.3203,0.3419,0.3592,0.3674,0.3812,0.4037,0.4337,0.4657,0.484,0.5022,0.5108,0.5102,0.5148,0.524,0.5545,0.5863,-0.6852,-0.5323,-0.4229,-0.2928,-0.1563,-0.062,0.027,0.1165,0.2197,0.3077,0.3934,0.4849,0.5599,0.6213,0.6482,0.665,0.6623,0.6891,0.7044,0.7426,0.7643,0.7785,0.7872,0.7875,0.7931,0.8008,0.8165,0.8398,0.8682,0.9031,0.9349,0.9792,0.9973,0.9965,0.9919,1.0076,1.0279,1.0378,1.0693,1.1055,1.1323,1.1257,1.1216,1.1389,1.1108,1.0383,0.9488,0.8984,0.8107,0.6893,0.5952,0.5116,0.4174,0.3109,0.2188,0.138,0.049,-0.0196,-0.0576,-0.0973,-0.1331,-0.1406,-0.1326,-0.1218,-0.1,-0.0822,-0.0629,-0.0457,-0.0479,-0.0603,-0.0841,-0.0984,-0.0928,-0.0736,-0.0425,-0.0134,0.0202,0.0785,0.1255,0.1418,0.1602,0.1754,0.1903,0.2083,0.2263,0.2455,0.2539,0.2573,0.2625,0.2676,0.2831,0.3009,0.3025,0.3067,0.3202,0.3186,0.3163,0.3124,0.3058,0.3023,0.3233,0.3375,0.3498,0.3685,0.3898,0.4247,0.4624,0.4936,0.5128,0.5199,0.5288,0.5348,0.5487,0.5795,0.6089,-0.9176,-0.7693,-0.6388,-0.5012,-0.3637,-0.2692,-0.1774,-0.0783,0.0282,0.1361,0.2332,0.3273,0.3996,0.4666,0.5277,0.5607,0.5803,0.6159,0.6561,0.6942,0.7217,0.7413,0.7604,0.7708,0.7818,0.8032,0.8342,0.8573,0.8814,0.9162,0.9591,0.987,1.0051,1.005,0.991,1.009,1.0069,1.0154,1.0586,1.103,1.1333,1.1503,1.1397,1.1303,1.0818,1.0091,0.9259,0.8576,0.7619,0.6486,0.5501,0.4699,0.3815,0.2669,0.169,0.0907,-0.0129,-0.0864,-0.1312,-0.1828,-0.2243,-0.2401,-0.2301,-0.2095,-0.1891,-0.1677,-0.1431,-0.1231,-0.1207,-0.1364,-0.1699,-0.1834,-0.1745,-0.1475,-0.1118,-0.0761,-0.0381,0.0314,0.0875,0.0979,0.1144,0.133,0.1501,0.169,0.1835,0.2007,0.2145,0.2195,0.2311,0.2388,0.2524,0.2631,0.2635,0.2721,0.2923,0.3014,0.3059,0.3073,0.3085,0.3068,0.3155,0.3257,0.3349,0.3573,0.3833,0.4201,0.4589,0.4885,0.521,0.5387,0.549,0.5555,0.5696,0.5921,0.6224,-1.1378,-0.9999,-0.8522,-0.7101,-0.5752,-0.4812,-0.385,-0.284,-0.1798,-0.061,0.0695,0.15,0.2362,0.3145,0.4006,0.445,0.484,0.5397,0.5884,0.6288,0.6628,0.6901,0.7168,0.7378,0.7673,0.8135,0.8474,0.8735,0.9028,0.9476,0.971,0.9999,1.0217,1.0212,1.001,0.999,1.0122,1.0256,1.0704,1.1038,1.1303,1.1614,1.1538,1.097,1.0459,0.9747,0.8961,0.8152,0.7205,0.6128,0.5037,0.4277,0.3493,0.2362,0.1193,0.0565,-0.0568,-0.1383,-0.1975,-0.2533,-0.2989,-0.3219,-0.3136,-0.2955,-0.2678,-0.239,-0.21,-0.188,-0.1814,-0.1901,-0.2302,-0.2369,-0.2302,-0.2055,-0.1699,-0.1276,-0.0784,-0.0112,0.0337,0.0582,0.0768,0.097,0.1124,0.1269,0.1432,0.1565,0.1696,0.183,0.1947,0.2041,0.2146,0.2277,0.2299,0.2418,0.2622,0.2814,0.2858,0.2963,0.3011,0.3073,0.3106,0.3257,0.3374,0.3521,0.3789,0.4167,0.4523,0.4859,0.5176,0.5477,0.5645,0.5688,0.5848,0.6033,0.629,-1.318,-1.1847,-1.0669,-0.9337,-0.8009,-0.7112,-0.6098,-0.5062,-0.3957,-0.2739,-0.1387,-0.0167,0.0973,0.1948,0.2705,0.3292,0.3818,0.4427,0.4979,0.5412,0.5832,0.6297,0.6642,0.6961,0.7337,0.7803,0.8232,0.8553,0.8903,0.9267,0.9762,0.9992,1.0249,1.033,1.0479,1.0668,1.0733,1.0767,1.1281,1.1701,1.1855,1.181,1.1449,1.0714,1.0145,0.9383,0.8463,0.7679,0.6868,0.5948,0.4796,0.4072,0.3406,0.2241,0.1151,0.0219,-0.0856,-0.1783,-0.2484,-0.3101,-0.3522,-0.3694,-0.3641,-0.3539,-0.3344,-0.3056,-0.2657,-0.246,-0.2348,-0.2415,-0.2616,-0.2639,-0.2571,-0.2325,-0.1924,-0.1501,-0.1142,-0.0673,-0.018,0.0022,0.031,0.0631,0.0786,0.0944,0.1104,0.1222,0.1317,0.1421,0.153,0.1602,0.1649,0.1817,0.1987,0.2151,0.2333,0.2518,0.2647,0.2798,0.2877,0.2994,0.3069,0.3267,0.3418,0.3503,0.3715,0.4041,0.4396,0.477,0.5008,0.5233,0.5511,0.5763,0.5869,0.5979,0.6193,-1.4556,-1.3252,-1.2144,-1.0959,-0.985,-0.9094,-0.822,-0.718,-0.6028,-0.4729,-0.3314,-0.1969,-0.0667,0.0418,0.1228,0.1954,0.2764,0.3405,0.3903,0.4369,0.4952,0.5475,0.5959,0.6389,0.6858,0.7324,0.778,0.8368,0.8927,0.9599,0.9943,1.0303,1.0632,1.0801,1.0751,1.0762,1.0847,1.0984,1.1325,1.1662,1.1768,1.1629,1.121,1.0705,0.9813,0.8971,0.8122,0.7042,0.6244,0.5415,0.4433,0.3778,0.3059,0.2159,0.1091,0.021,-0.0961,-0.2035,-0.2795,-0.3387,-0.3831,-0.4076,-0.4032,-0.3922,-0.3722,-0.339,-0.3013,-0.2636,-0.2549,-0.2526,-0.2593,-0.2661,-0.2639,-0.2483,-0.2127,-0.1816,-0.1547,-0.1166,-0.083,-0.0494,-0.0045,0.0306,0.0506,0.0644,0.079,0.0881,0.0942,0.1061,0.1171,0.1225,0.1303,0.159,0.1837,0.2056,0.2194,0.2277,0.2388,0.2527,0.2653,0.276,0.295,0.3111,0.327,0.3405,0.3653,0.3902,0.4246,0.4589,0.4786,0.4991,0.5246,0.549,0.5723,0.5927,0.6079,-1.5589,-1.4392,-1.3395,-1.2415,-1.1522,-1.091,-1.0146,-0.9183,-0.806,-0.6639,-0.5087,-0.3733,-0.2363,-0.1171,-0.0168,0.0726,0.1707,0.2293,0.2791,0.3378,0.4016,0.4567,0.5113,0.5716,0.6293,0.6815,0.7345,0.8017,0.8771,0.9565,1.0145,1.0445,1.0895,1.1208,1.1039,1.0863,1.0593,1.0631,1.071,1.0959,1.1068,1.1092,1.0959,1.0664,0.9466,0.8475,0.7728,0.6563,0.5674,0.4935,0.4162,0.3451,0.2811,0.1924,0.112,0.0335,-0.0959,-0.2007,-0.2853,-0.3471,-0.3946,-0.4208,-0.4276,-0.4166,-0.3924,-0.3548,-0.3061,-0.2524,-0.239,-0.2481,-0.2525,-0.2593,-0.2593,-0.2505,-0.2308,-0.2088,-0.1839,-0.1547,-0.1322,-0.0897,-0.0381,-0.0044,0.015,0.0373,0.0498,0.0664,0.074,0.0863,0.096,0.0974,0.1118,0.1462,0.1743,0.2007,0.2122,0.2094,0.2161,0.2212,0.2314,0.24,0.2642,0.288,0.3054,0.3187,0.346,0.372,0.4069,0.4346,0.4528,0.4753,0.4985,0.5248,0.5476,0.5663,0.5828,-1.6218,-1.5351,-1.4601,-1.3912,-1.321,-1.257,-1.1929,-1.1107,-0.9962,-0.8583,-0.6916,-0.5339,-0.3876,-0.2502,-0.1116,-0.0168,0.0532,0.1147,0.1732,0.2377,0.3103,0.3767,0.4369,0.5087,0.5662,0.6238,0.6826,0.7554,0.8284,0.9071,0.9736,1.0105,1.0741,1.1112,1.1166,1.0938,1.0999,1.1015,1.0915,1.0927,1.1002,1.0822,1.0429,0.98,0.8875,0.7969,0.7206,0.6068,0.514,0.4618,0.3959,0.3345,0.2704,0.1903,0.112,0.0246,-0.0825,-0.2008,-0.2833,-0.3434,-0.3899,-0.4186,-0.4298,-0.4276,-0.399,-0.3548,-0.2994,-0.257,-0.239,-0.2369,-0.2438,-0.2505,-0.2504,-0.244,-0.2309,-0.2155,-0.1975,-0.1862,-0.1637,-0.1434,-0.0941,-0.0538,-0.0221,0.0,0.0226,0.0392,0.0545,0.0679,0.0781,0.0839,0.0922,0.1258,0.1516,0.1768,0.1887,0.187,0.1888,0.1917,0.1992,0.2069,0.2295,0.2572,0.2773,0.2962,0.3239,0.3459,0.3678,0.3944,0.4238,0.4458,0.4672,0.4954,0.5258,0.5424,0.5559,-1.7084,-1.6176,-1.5521,-1.4943,-1.4411,-1.3909,-1.3278,-1.2512,-1.1497,-1.0128,-0.8476,-0.682,-0.5078,-0.3335,-0.2035,-0.1257,-0.0643,0.0028,0.07,0.14,0.2154,0.2847,0.3541,0.4288,0.4976,0.5525,0.6127,0.662,0.746,0.8574,0.9507,1.0021,1.0665,1.107,1.1095,1.0884,1.0686,1.0555,1.0448,1.0445,1.0484,1.031,0.9963,0.9496,0.8341,0.7511,0.6713,0.5524,0.4655,0.416,0.361,0.2988,0.2389,0.17,0.0985,0.0067,-0.0849,-0.1811,-0.2636,-0.3278,-0.3765,-0.41,-0.4212,-0.4142,-0.3792,-0.335,-0.2861,-0.2435,-0.2305,-0.2285,-0.2331,-0.2333,-0.2333,-0.231,-0.2267,-0.2222,-0.211,-0.2065,-0.1907,-0.1726,-0.1502,-0.1031,-0.0558,-0.0174,0.0105,0.0327,0.0492,0.0634,0.0734,0.0807,0.0897,0.1059,0.1261,0.1463,0.1537,0.1581,0.1582,0.1609,0.1698,0.1795,0.198,0.2194,0.2417,0.2662,0.2929,0.3126,0.3322,0.3588,0.3902,0.4122,0.4298,0.4583,0.4861,0.5211,0.5392,-1.7868,-1.6942,-1.629,-1.5782,-1.5354,-1.4954,-1.4363,-1.37,-1.2715,-1.138,-0.9673,-0.7785,-0.569,-0.409,-0.3012,-0.2288,-0.1622,-0.0924,-0.0168,0.0532,0.1259,0.1985,0.2765,0.3541,0.4207,0.468,0.5393,0.5952,0.6721,0.7739,0.8872,0.9766,1.0493,1.0834,1.0779,1.0534,1.0245,0.9836,0.9821,0.9844,0.9832,0.9662,0.9406,0.8827,0.7973,0.7037,0.6504,0.5289,0.4361,0.39,0.3367,0.2789,0.2191,0.1611,0.094,0.0112,-0.0738,-0.1499,-0.2279,-0.2968,-0.3566,-0.3902,-0.3992,-0.3853,-0.3391,-0.3018,-0.2729,-0.2345,-0.2262,-0.2221,-0.2201,-0.2223,-0.2223,-0.2245,-0.2201,-0.2201,-0.2178,-0.2133,-0.2088,-0.1952,-0.1704,-0.1412,-0.0911,-0.0371,-0.0021,0.0252,0.0432,0.0583,0.0671,0.0769,0.0865,0.096,0.1057,0.1209,0.1279,0.1311,0.1297,0.13,0.1412,0.1479,0.1614,0.1836,0.2081,0.2326,0.2573,0.2772,0.2923,0.3257,0.359,0.3792,0.4016,0.4168,0.4456,0.4814,0.5144,-1.8411,-1.7767,-1.697,-1.646,-1.6166,-1.5657,-1.5187,-1.464,-1.3577,-1.2293,-1.0532,-0.8088,-0.6002,-0.4752,-0.4013,-0.3153,-0.2041,-0.179,-0.0979,-0.0084,0.0671,0.1342,0.2096,0.2794,0.349,0.4047,0.468,0.5284,0.5962,0.6778,0.787,0.8852,0.9812,1.0278,1.0322,1.0024,0.966,0.9291,0.9255,0.9218,0.9155,0.8991,0.8804,0.8383,0.7611,0.6854,0.6476,0.5241,0.4356,0.3937,0.3344,0.2747,0.2171,0.1634,0.0985,0.0268,-0.0492,-0.1208,-0.1901,-0.2681,-0.3301,-0.3588,-0.3632,-0.3454,-0.3056,-0.2839,-0.2571,-0.2325,-0.2219,-0.22,-0.2201,-0.2201,-0.2201,-0.2201,-0.2201,-0.2201,-0.2201,-0.2201,-0.2133,-0.2088,-0.1885,-0.1569,-0.1209,-0.0661,-0.0109,0.0194,0.0471,0.0629,0.0656,0.0733,0.079,0.0865,0.0889,0.0984,0.1071,0.1075,0.1032,0.1033,0.11,0.1144,0.1188,0.1433,0.1768,0.1902,0.2126,0.2348,0.2549,0.2749,0.3016,0.342,0.3716,0.3937,0.4218,0.4587,0.4792,-1.8509,-1.8023,-1.7317,-1.6835,-1.6528,-1.6116,-1.5663,-1.5181,-1.4336,-1.2643,-1.0477,-0.8347,-0.677,-0.5769,-0.4869,-0.4101,-0.3212,-0.2463,-0.1651,-0.0812,-0.0028,0.0672,0.14,0.21,0.2798,0.3301,0.3882,0.4472,0.5061,0.601,0.6761,0.7743,0.8839,0.9444,0.9528,0.9409,0.9072,0.8874,0.8788,0.8788,0.8732,0.8629,0.8471,0.8217,0.7356,0.6801,0.6358,0.5259,0.4527,0.3943,0.3371,0.2793,0.2262,0.1702,0.1097,0.047,-0.0268,-0.0895,-0.1523,-0.2303,-0.2926,-0.3236,-0.3192,-0.2926,-0.2681,-0.2508,-0.233,-0.2174,-0.2153,-0.2133,-0.2201,-0.2201,-0.2201,-0.2201,-0.2201,-0.2201,-0.2178,-0.2178,-0.2156,-0.211,-0.1952,-0.1726,-0.1344,-0.0961,-0.0377,0.0132,0.0418,0.0658,0.0682,0.0705,0.0759,0.0787,0.0809,0.0809,0.0875,0.0853,0.0788,0.081,0.0856,0.0901,0.0991,0.121,0.1478,0.159,0.168,0.188,0.2037,0.2171,0.2506,0.304,0.3433,0.3729,0.4037,0.4382,0.4574,-1.8541,-1.8056,-1.7447,-1.7031,-1.6754,-1.6411,-1.6007,-1.553,-1.4841,-1.3008,-1.0289,-0.8784,-0.7527,-0.6534,-0.5666,-0.4734,-0.3935,-0.3132,-0.2265,-0.1399,-0.0588,0.0084,0.0757,0.1429,0.2072,0.252,0.3134,0.3749,0.4369,0.5325,0.604,0.6779,0.7574,0.8298,0.88,0.8695,0.8477,0.8419,0.8395,0.8391,0.8365,0.8259,0.8156,0.7934,0.7195,0.6661,0.6177,0.5314,0.4566,0.4023,0.35,0.2926,0.2415,0.1858,0.1231,0.0604,0.0,-0.0582,-0.1164,-0.1946,-0.2526,-0.2769,-0.264,-0.2438,-0.2261,-0.2086,-0.1883,-0.1906,-0.1952,-0.2042,-0.211,-0.2133,-0.2156,-0.2156,-0.2201,-0.2201,-0.2156,-0.2156,-0.2133,-0.2088,-0.1907,-0.1659,-0.1256,-0.083,-0.0269,0.0223,0.0467,0.0644,0.069,0.0692,0.0716,0.0719,0.0719,0.0719,0.0719,0.0753,0.0784,0.0771,0.0794,0.0818,0.0908,0.1104,0.1188,0.1256,0.1345,0.1435,0.1613,0.1792,0.2215,0.2725,0.3097,0.3504,0.3855,0.4172,0.4415,-1.845,-1.7875,-1.7413,-1.7115,-1.6933,-1.6571,-1.616,-1.5653,-1.4846,-1.3142,-1.0733,-0.9235,-0.7981,-0.6964,-0.6184,-0.5308,-0.4346,-0.363,-0.2795,-0.1845,-0.1008,-0.0364,0.0252,0.0869,0.1485,0.1875,0.249,0.3159,0.3769,0.46,0.5296,0.5957,0.6689,0.7389,0.8043,0.7994,0.7913,0.7931,0.7955,0.7978,0.7975,0.7886,0.7806,0.7605,0.7095,0.6556,0.6009,0.5344,0.4642,0.4136,0.3643,0.3152,0.2708,0.215,0.1567,0.0962,0.0381,-0.0112,-0.0561,-0.1658,-0.2077,-0.2147,-0.2022,-0.1858,-0.1665,-0.1526,-0.1502,-0.1569,-0.1637,-0.1794,-0.1907,-0.202,-0.2088,-0.2156,-0.2178,-0.2201,-0.2156,-0.211,-0.2088,-0.2043,-0.1794,-0.1502,-0.1077,-0.0629,-0.0068,0.0339,0.054,0.0653,0.0702,0.0697,0.0697,0.0697,0.0697,0.0697,0.0702,0.0771,0.0777,0.0739,0.0755,0.078,0.0798,0.0901,0.0943,0.0944,0.1033,0.1189,0.1323,0.1479,0.1914,0.2356,0.2891,0.3292,0.3643,0.3994,0.4247,-1.845,-1.7862,-1.7392,-1.7094,-1.689,-1.6549,-1.6154,-1.558,-1.4202,-1.2619,-1.1057,-0.9599,-0.8488,-0.7554,-0.6559,-0.5689,-0.4893,-0.3846,-0.3041,-0.2347,-0.14,-0.0729,-0.014,0.0477,0.1009,0.1429,0.196,0.2491,0.3051,0.3909,0.4541,0.5169,0.5996,0.6769,0.7345,0.7519,0.755,0.7732,0.7785,0.7812,0.7872,0.7756,0.7646,0.7542,0.6972,0.6461,0.6004,0.5307,0.4775,0.4331,0.3883,0.347,0.3059,0.2538,0.1996,0.1456,0.092,0.0454,-0.0093,-0.0878,-0.1339,-0.1416,-0.1394,-0.1255,-0.1118,-0.1088,-0.1147,-0.1254,-0.1321,-0.1524,-0.1794,-0.1953,-0.2043,-0.2156,-0.2201,-0.2201,-0.2178,-0.2088,-0.202,-0.1975,-0.1817,-0.1391,-0.0988,-0.0505,0.0046,0.0371,0.0579,0.0696,0.0745,0.0728,0.0698,0.0697,0.0697,0.0697,0.0728,0.0783,0.0783,0.0739,0.0738,0.0768,0.0783,0.0801,0.0796,0.0847,0.0884,0.0943,0.11,0.1283,0.1578,0.198,0.2521,0.3114,0.3569,0.3898,0.4156,-1.8443,-1.7963,-1.7427,-1.7107,-1.6897,-1.6543,-1.606,-1.522,-1.3669,-1.2287,-1.1111,-0.9862,-0.8778,-0.7848,-0.6907,-0.6018,-0.5336,-0.4207,-0.3349,-0.2683,-0.1652,-0.0981,-0.0393,0.014,0.0617,0.1009,0.1457,0.1989,0.269,0.3327,0.4099,0.484,0.5469,0.6059,0.6611,0.696,0.7279,0.7461,0.7539,0.7702,0.7732,0.7702,0.7566,0.7303,0.6883,0.6375,0.5936,0.5449,0.5005,0.4631,0.4289,0.3901,0.3511,0.3035,0.2496,0.196,0.1368,0.0885,0.029,0.0025,-0.0378,-0.0649,-0.0656,-0.0643,-0.0567,-0.0481,-0.0608,-0.0738,-0.0942,-0.1259,-0.1531,-0.1711,-0.1938,-0.2029,-0.2189,-0.2168,-0.2121,-0.2032,-0.1827,-0.1795,-0.1606,-0.121,-0.0863,-0.0349,0.0167,0.0382,0.0573,0.0695,0.079,0.0749,0.0709,0.0707,0.0708,0.0733,0.0749,0.0802,0.0793,0.074,0.0752,0.0797,0.0768,0.0791,0.0756,0.0746,0.0814,0.0877,0.095,0.1131,0.1357,0.1693,0.216,0.278,0.3435,0.3821,0.4067,-1.8443,-1.8109,-1.7468,-1.7122,-1.6939,-1.6528,-1.5718,-1.4606,-1.3379,-1.2218,-1.1149,-1.0068,-0.8984,-0.7951,-0.7176,-0.6399,-0.5504,-0.4348,-0.3601,-0.2823,-0.1904,-0.1289,-0.0729,-0.0224,0.0224,0.0617,0.1065,0.1626,0.241,0.3021,0.3796,0.457,0.5011,0.5449,0.5914,0.6354,0.679,0.7087,0.7381,0.7568,0.7676,0.7625,0.7491,0.7225,0.6845,0.6407,0.6003,0.568,0.5448,0.5233,0.5036,0.4634,0.4162,0.3615,0.3016,0.235,0.1693,0.1172,0.0831,0.0653,0.0505,0.0184,-0.005,0.0,0.0047,0.014,0.0046,-0.0136,-0.0341,-0.0772,-0.1134,-0.1431,-0.1705,-0.1887,-0.2128,-0.2103,-0.2037,-0.187,-0.1633,-0.1453,-0.1205,-0.0904,-0.0586,-0.0143,0.0247,0.0401,0.0578,0.0752,0.0822,0.0801,0.0761,0.0724,0.0725,0.0751,0.0796,0.0825,0.082,0.0771,0.0826,0.0846,0.0838,0.0797,0.0785,0.0775,0.0794,0.0831,0.0881,0.099,0.111,0.1496,0.1925,0.2504,0.3199,0.3708,0.4042,-1.8528,-1.8156,-1.7625,-1.7255,-1.6905,-1.6163,-1.5288,-1.434,-1.3365,-1.2296,-1.1145,-1.0167,-0.9168,-0.8203,-0.731,-0.6502,-0.5576,-0.4673,-0.3878,-0.3073,-0.2267,-0.1681,-0.1093,-0.0561,-0.014,0.028,0.0729,0.1206,0.1822,0.2519,0.3466,0.4272,0.4572,0.4871,0.5201,0.5563,0.622,0.6795,0.7144,0.7437,0.7622,0.7625,0.7467,0.7201,0.6928,0.6485,0.607,0.5828,0.561,0.5343,0.5098,0.4765,0.4566,0.4079,0.3552,0.2754,0.2068,0.1507,0.1369,0.1056,0.091,0.0985,0.0817,0.0715,0.072,0.0697,0.0704,0.0515,0.0187,-0.0235,-0.0708,-0.1063,-0.1374,-0.163,-0.182,-0.1857,-0.1761,-0.1642,-0.1386,-0.1117,-0.0871,-0.0641,-0.034,-0.0025,0.031,0.0446,0.0608,0.0762,0.0855,0.0834,0.0787,0.0748,0.0778,0.0783,0.0821,0.0847,0.084,0.0836,0.0864,0.0876,0.0828,0.0814,0.0809,0.0802,0.0819,0.0826,0.0829,0.0922,0.0998,0.1306,0.1711,0.2317,0.2893,0.34,0.3881,-1.8586,-1.8262,-1.7733,-1.7234,-1.6686,-1.5994,-1.5181,-1.4299,-1.3423,-1.2359,-1.128,-1.0299,-0.9402,-0.8491,-0.7477,-0.6564,-0.5805,-0.4701,-0.3876,-0.3299,-0.2603,-0.1961,-0.1374,-0.0869,-0.0421,-0.0028,0.0393,0.0869,0.1486,0.2406,0.3408,0.3993,0.4184,0.4432,0.4736,0.5122,0.5641,0.6302,0.6877,0.7228,0.7467,0.7571,0.7416,0.7176,0.6931,0.654,0.6108,0.5888,0.5736,0.5549,0.5311,0.511,0.4805,0.4312,0.3797,0.3044,0.2529,0.2135,0.1954,0.16,0.148,0.1506,0.1593,0.1577,0.1445,0.1397,0.1303,0.1145,0.0708,0.0269,-0.0222,-0.0669,-0.0997,-0.1331,-0.1435,-0.154,-0.1463,-0.1359,-0.1096,-0.0828,-0.059,-0.0382,-0.0103,0.0184,0.0373,0.0481,0.0621,0.0792,0.0888,0.0867,0.0817,0.0771,0.0807,0.0845,0.0858,0.084,0.0841,0.0843,0.0859,0.0863,0.0842,0.084,0.0845,0.0832,0.084,0.0849,0.0834,0.0832,0.0937,0.1224,0.1492,0.1944,0.2488,0.3019,0.3494,-1.8641,-1.8432,-1.774,-1.7088,-1.6386,-1.5963,-1.5283,-1.4421,-1.3447,-1.2462,-1.1431,-1.0456,-0.9577,-0.8672,-0.7661,-0.6729,-0.5857,-0.484,-0.4042,-0.3414,-0.2769,-0.2156,-0.1682,-0.1178,-0.0785,-0.0336,0.0168,0.0673,0.1457,0.2293,0.3073,0.3712,0.3825,0.4047,0.4379,0.4708,0.5226,0.5828,0.6408,0.6874,0.723,0.7338,0.7281,0.6931,0.6736,0.6497,0.6179,0.6052,0.6066,0.5871,0.5645,0.5416,0.4899,0.4352,0.3799,0.3377,0.2923,0.2636,0.2429,0.2149,0.1984,0.2016,0.2096,0.2194,0.2158,0.1988,0.1856,0.1621,0.1217,0.0718,0.0232,-0.0308,-0.0693,-0.0959,-0.1121,-0.1156,-0.1119,-0.0945,-0.0676,-0.0402,-0.0187,0.0,0.0026,0.0323,0.0489,0.0543,0.0655,0.0836,0.0887,0.0895,0.085,0.0799,0.0786,0.0798,0.077,0.0778,0.0815,0.085,0.0856,0.0885,0.0872,0.0876,0.0884,0.0864,0.0868,0.0855,0.0844,0.0866,0.0919,0.1096,0.1362,0.1602,0.2065,0.2589,0.307,-1.8678,-1.8406,-1.7611,-1.6968,-1.6451,-1.5985,-1.5255,-1.4299,-1.3494,-1.2555,-1.1551,-1.0668,-0.9766,-0.8801,-0.7845,-0.6912,-0.5966,-0.5119,-0.4375,-0.3742,-0.3074,-0.2518,-0.2074,-0.1599,-0.115,-0.0701,-0.014,0.0617,0.1511,0.2182,0.2628,0.3129,0.3409,0.3773,0.4021,0.4377,0.4869,0.5416,0.5884,0.6438,0.6879,0.7122,0.7176,0.6847,0.6623,0.6379,0.6082,0.5891,0.5811,0.5675,0.5373,0.5099,0.4767,0.4346,0.3996,0.3664,0.3274,0.3019,0.2838,0.2686,0.2548,0.2575,0.2685,0.2757,0.2715,0.2563,0.2315,0.2024,0.1637,0.1123,0.0645,0.0106,-0.0344,-0.0587,-0.0781,-0.0763,-0.0717,-0.0471,-0.0195,0.0,0.0194,0.0275,0.03,0.0383,0.058,0.0694,0.0779,0.0897,0.0896,0.0885,0.0883,0.084,0.0738,0.0716,0.0712,0.0655,0.0689,0.0749,0.078,0.0811,0.0869,0.0895,0.0891,0.0883,0.0869,0.0883,0.0873,0.087,0.0955,0.1049,0.1168,0.1379,0.1553,0.1986,0.2516,-1.8676,-1.84,-1.7496,-1.6871,-1.6423,-1.5957,-1.521,-1.4351,-1.36,-1.2735,-1.173,-1.0774,-0.9877,-0.9014,-0.8084,-0.7122,-0.6211,-0.534,-0.4572,-0.3936,-0.3437,-0.2936,-0.2464,-0.1991,-0.1514,-0.1009,-0.014,0.0728,0.1567,0.2015,0.2378,0.277,0.319,0.3495,0.3717,0.4161,0.4574,0.5013,0.5452,0.5918,0.6389,0.6633,0.6682,0.6431,0.6238,0.605,0.5755,0.5506,0.5424,0.5317,0.5097,0.4961,0.473,0.4472,0.4231,0.3958,0.3652,0.3379,0.3268,0.316,0.3081,0.3135,0.3242,0.3341,0.3206,0.3026,0.2752,0.245,0.1797,0.1265,0.0937,0.0465,0.0164,-0.0082,-0.0138,-0.0111,-0.0056,0.0112,0.0196,0.0196,0.0362,0.0418,0.0443,0.0499,0.0642,0.0698,0.0813,0.0869,0.0897,0.0897,0.0897,0.0841,0.0729,0.0701,0.0695,0.0611,0.0558,0.0588,0.0673,0.0757,0.0841,0.0869,0.0895,0.0889,0.0885,0.088,0.0873,0.0895,0.0898,0.0962,0.1053,0.1175,0.1319,0.1459,0.1906,-1.8618,-1.8248,-1.7366,-1.6795,-1.638,-1.5806,-1.513,-1.4374,-1.3647,-1.2837,-1.1943,-1.0782,-1.0061,-0.9298,-0.8352,-0.7447,-0.6534,-0.5641,-0.482,-0.4189,-0.3662,-0.3245,-0.2799,-0.2325,-0.1737,-0.1037,-0.0224,0.0588,0.1428,0.1708,0.2017,0.2522,0.2885,0.3189,0.3526,0.389,0.4276,0.4662,0.5044,0.5369,0.5727,0.603,0.6025,0.5912,0.5719,0.5504,0.5207,0.5016,0.4959,0.4932,0.4875,0.4769,0.466,0.4467,0.4359,0.4109,0.391,0.3769,0.3741,0.3635,0.361,0.3665,0.3798,0.377,0.3635,0.3438,0.3155,0.2681,0.2065,0.1529,0.1198,0.086,0.0583,0.0359,0.0359,0.036,0.0444,0.053,0.0476,0.042,0.0504,0.0588,0.0617,0.0673,0.0701,0.0729,0.0785,0.0841,0.0897,0.0897,0.0897,0.0813,0.0701,0.0673,0.0645,0.0505,0.0364,0.0449,0.0505,0.0673,0.0813,0.0841,0.0869,0.0897,0.0893,0.0889,0.0891,0.0888,0.0893,0.0921,0.0979,0.1038,0.1094,0.1262,0.1403,-1.8358,-1.7645,-1.7193,-1.671,-1.6203,-1.5607,-1.488,-1.4043,-1.327,-1.254,-1.1843,-1.104,-1.0241,-0.9558,-0.8501,-0.7599,-0.6802,-0.5912,-0.5234,-0.4575,-0.3995,-0.358,-0.3135,-0.252,-0.1766,-0.1009,-0.0336,0.0224,0.1036,0.1261,0.1514,0.1992,0.2438,0.277,0.3048,0.3467,0.3945,0.433,0.4603,0.4901,0.523,0.5506,0.5702,0.5593,0.5375,0.5209,0.4989,0.4825,0.4772,0.4715,0.4655,0.4603,0.4548,0.4439,0.433,0.4275,0.4076,0.4047,0.3993,0.3967,0.3941,0.3941,0.4019,0.405,0.3913,0.377,0.3434,0.3019,0.2421,0.1814,0.1423,0.1079,0.0778,0.0558,0.0476,0.0454,0.0484,0.0578,0.0616,0.0643,0.0671,0.0755,0.0785,0.0813,0.0813,0.0841,0.0841,0.0897,0.0897,0.0897,0.0897,0.0785,0.0673,0.0533,0.0449,0.028,0.0168,0.0252,0.0393,0.0589,0.0729,0.0841,0.0869,0.0869,0.0897,0.0895,0.0897,0.0897,0.0897,0.0896,0.0924,0.0953,0.0981,0.1039,0.1183]},{"header":{"parameterUnit":"m.s-1","parameterCategory":1,"la1":31.0,"la2":29.5877,"lo1":-88.7671,"lo2":-86.6584,"dy":0.0162,"dx":0.0185,"nx":115,"ny":88,"refTime":"2023-09-14T06:00:00:Z","depth":0,"parameterNumber":3,"parameterNumberName":"V-component_of_WINDS"},"data":[0.0,0.0,0.0,0.0,0.0,0.0,0.0,0.0,0.0,0.0,0.0,0.0,0.0,0.0,0.0,0.0,0.0,0.0,0.0,0.0,0.0,0.0,0.0,0.0,0.0,0.0,0.0,0.0,0.0,0.0,0.0,0.0,0.0,0.0,0.0,0.0,0.0,0.0,0.0,0.0,0.0,0.0,0.0,0.0,0.0,0.0,0.0,0.0,0.0,0.0,0.0,0.0,0.0,0.0,0.0,0.0,0.0,0.0,0.0,0.0,0.0,0.0,0.0,0.0,0.0,0.0,0.0,0.0,0.0,0.0,0.0,0.0,0.0,0.0,0.0,0.0,0.0,0.0,0.0,0.0,0.0,0.0,0.0,0.0,0.0,0.0,0.0,0.0,0.0,0.0,0.0,0.0,0.0,0.0,0.0,0.0,0.0,0.0,0.0,0.0,0.0,0.0,0.0,0.0,0.0,0.0,0.0,0.0,0.0,0.0,0.0,0.0,0.0,0.0,0.0,0.0,0.0,0.0,0.0,0.0,0.0,0.0,0.0,0.0,0.0,0.0,0.0,0.0,0.0,0.0,0.0,0.0,0.0,0.0,0.0,0.0,0.0,0.0,0.0,0.0,0.0,0.0,0.0,0.0,0.0,0.0,0.0,0.0,0.0,0.0,0.0,0.0,0.0,0.0,0.0,0.0,0.0,0.0,0.0,0.0,0.0,0.0,0.0,0.0,0.0,0.0,0.0,0.0,0.0,0.0,0.0,0.0,0.0,0.0,0.0,0.0,0.0,0.0,0.0,0.0,0.0,0.0,0.0,0.0,0.0,0.0,0.0,0.0,0.0,0.0,0.0,0.0,0.0,0.0,0.0,0.0,0.0,0.0,0.0,0.0,0.0,0.0,0.0,0.0,0.0,0.0,0.0,0.0,0.0,0.0,0.0,0.0,0.0,0.0,0.0,0.0,0.0,0.0,0.0,0.0,0.0,0.0,0.0,0.0,0.0,0.0,0.0,0.0,0.0,0.0,0.0,0.0,0.0,0.0,0.0,0.0,0.0,0.0,0.0,0.0,0.0,0.0,0.0,0.0,0.0,0.0,0.0,0.0,0.0,0.0,0.0,0.0,0.0,0.0,0.0,0.0,0.0,0.0,0.0,0.0,0.0,0.0,0.0,0.0,0.0,0.0,0.0,0.0,0.0,0.0,0.0,0.0,0.0,0.0,0.0,0.0,0.0,0.0,0.0,0.0,0.0,0.0,0.0,0.0,0.0,0.0,0.0,0.0,0.0,0.0,0.0,0.0,0.0,0.0,0.0,0.0,0.0,0.0,0.0,0.0,0.0,0.0,0.0,0.0,0.0,0.0,0.0,0.0,0.0,0.0,0.0,0.0,0.0,0.0,0.0,0.0,0.0,0.0,0.0,0.0,0.0,0.0,0.0,0.0,0.0,0.0,0.0,0.0,0.0,0.0,0.0,0.0,0.0,0.0,0.0,0.0,0.0,0.0,0.0,0.0,0.0,0.0,0.0,0.0,0.0,0.0,0.0,0.0,0.0,0.0,0.0,0.0,0.0,0.0,0.0,0.0,0.0,0.0,0.0,0.0,0.0,0.0,0.0,0.0,0.0,0.0,0.0,0.0,0.0,0.0,0.0,0.0,0.0,0.0,0.0,0.0,0.0,0.0,0.0,0.0,0.0,0.0,0.0,0.0,0.0,0.0,0.0,0.0,0.0,0.0,0.0,0.0,0.0,0.0,0.0,0.0,0.0,0.0,0.0,0.0,0.0,0.0,0.0,0.0,0.0,0.0,0.0,0.0,0.0,0.0,0.0,0.0,0.0,0.0,0.0,0.0,0.0,0.0,0.0,0.0,0.0,0.0,0.0,0.0,0.0,0.0,0.0,0.0,0.0,0.0,0.0,0.0,0.0,0.0,0.0,0.0,0.0,0.0,0.0,0.0,0.0,0.0,0.0,0.0,0.0,0.0,0.0,0.0,0.0,0.0,0.0,0.0,0.0,0.0,0.0,0.0,0.0,0.0,0.0,0.0,0.0,0.0,0.0,0.0,0.0,0.0,0.0,0.0,0.0,0.0,0.0,0.0,0.0,0.0,0.0,0.0,0.0,0.0,0.0,0.0,0.0,0.0,0.0,0.0,0.0,0.0,0.0,0.0,0.0,0.0,0.0,0.0,0.0,0.0,0.0,0.0,0.0,0.0,0.0,0.0,0.0,0.0,0.0,0.0,0.0,0.0,0.0,0.0,0.0,0.0,0.0,0.0,0.0,0.0,0.0,0.0,0.0,0.0,0.0,0.0,0.0,0.0,0.0,0.0,0.0,0.0,0.0,0.0,0.0,0.0,0.0,0.0,0.0,0.0,0.0,0.0,0.0,0.0,0.0,0.0,0.0,0.0,0.0,0.0,0.0,0.0,0.0,0.0,0.0,0.0,0.0,0.0,0.0,0.0,0.0,0.0,0.0,0.0,0.0,0.0,0.0,0.0,0.0,0.0,0.0,0.0,0.0,0.0,0.0,0.0,0.0,0.0,0.0,0.0,0.0,0.0,0.0,0.0,0.0,0.0,0.0,0.0,0.0,0.0,0.0,0.0,0.0,0.0,0.0,0.0,0.0,0.0,0.0,0.0,0.0,0.0,0.0,0.0,0.0,0.0,0.0,0.0,0.0,0.0,0.0,0.0,0.0,0.0,0.0,0.0,0.0,0.0,0.0,0.0,0.0,0.0,0.0,0.0,0.0,0.0,0.0,0.0,0.0,0.0,0.0,0.0,0.0,0.0,0.0,0.0,0.0,0.0,0.0,0.0,0.0,0.0,0.0,0.0,0.0,0.0,0.0,0.0,0.0,0.0,0.0,0.0,0.0,0.0,0.0,0.0,0.0,0.0,0.0,0.0,0.0,0.0,0.0,0.0,0.0,0.0,0.0,0.0,0.0,0.0,0.0,0.0,0.0,0.0,0.0,0.0,0.0,0.0,0.0,0.0,0.0,0.0,0.0,0.0,0.0,0.0,0.0,0.0,0.0,0.0,0.0,0.0,0.0,0.0,0.0,0.0,0.0,0.0,0.0,0.0,0.0,0.0,0.0,0.0,0.0,0.0,0.0,0.0,0.0,0.0,0.0,0.0,0.0,0.0,0.0,0.0,0.0,0.0,0.0,0.0,0.0,0.0,0.0,0.0,0.0,0.0,0.0,0.0,0.0,0.0,0.0,0.0,0.0,0.0,0.0,0.0,0.0,0.0,0.0,0.0,0.0,0.0,0.0,0.0,0.0,0.0,0.0,0.0,0.0,0.0,0.0,0.0,0.0,0.0,0.0,0.0,0.0,0.0,0.0,0.0,0.0,0.0,0.0,0.0,0.0,0.0,0.0,0.0,0.0,0.0,0.0,0.0,0.0,0.0,0.0,0.0,0.0,0.0,0.0,0.0,0.0,0.0,0.0,0.0,0.0,0.0,0.0,0.0,0.0,0.0,0.0,0.0,0.0,0.0,0.0,0.0,0.0,0.0,0.0,0.0,0.0,0.0,0.0,0.0,0.0,0.0,0.0,0.0,0.0,0.0,0.0,0.0,0.0,0.0,0.0,0.0,0.0,0.0,0.0,0.0,0.0,0.0,0.0,0.0,0.0,0.0,0.0,0.0,0.0,0.0,0.0,0.0,0.0,0.0,0.0,0.0,0.0,0.0,0.0,0.0,0.0,0.0,0.0,0.0,0.0,0.0,0.0,0.0,0.0,0.0,0.0,0.0,0.0,0.0,0.0,0.0,0.0,0.0,0.0,0.0,0.0,0.0,0.0,0.0,0.0,0.0,0.0,0.0,0.0,0.0,0.0,0.0,0.0,0.0,0.0,0.0,0.0,0.0,0.0,0.0,0.0,0.0,0.0,0.0,0.0,0.0,0.0,0.0,0.0,0.0,0.0,0.0,0.0,0.0,0.0,0.0,0.0,0.0,0.0,0.0,0.0,0.0,0.0,0.0,0.0,0.0,0.0,0.0,0.0,0.0,0.0,0.0,0.0,0.0,0.0,0.0,0.0,0.0,0.0,0.0,0.0,0.0,0.0,0.0,0.0,0.0,0.0,0.0,0.0,0.0,0.0,0.0,0.0,0.0,0.0,0.0,0.0,0.0,0.0,0.0,0.0,0.0,0.0,0.0,0.0,0.0,0.0,0.0,0.0,0.0,0.0,0.0,0.0,0.0,0.0,0.0,0.0,0.0,0.0,0.0,0.0,0.0,0.0,0.0,0.0,0.0,0.0,0.0,0.0,0.0,0.0,0.0,0.6139,0.0,0.0,0.0,0.0,0.0,0.0,0.0,0.0,0.0,0.0,0.0,0.0,0.0,0.0,0.0,0.0,0.0,0.0,0.0,0.0,0.0,0.0,0.0,0.0,0.0,0.0,0.0,0.0,0.0,0.0,0.0,0.0,0.0,0.0,0.0,0.0,0.0,0.0,0.0,0.0,0.0,0.0,0.0,0.0,0.0,0.0,0.0,0.0,0.0,0.0,0.0,0.0,0.0,0.0,0.0,0.0,0.0,0.0,0.0,0.0,0.0,0.0,0.0,0.0,0.0,0.0,0.0,0.0,0.0,0.0,0.0,0.0,0.0,0.0,0.0,0.0,0.0,0.0,0.0,0.0,0.0,0.0,0.0,0.0,0.0,0.0,0.0,0.0,0.0,0.0,0.0,0.0,0.0,0.0,0.0,0.0,0.0,0.0,0.0,0.0,0.0,0.0,0.0,0.0,0.0,0.0,0.0,0.0,0.0,0.0,0.5088,0.4703,0.4793,0.5278,0.6174,0.0,0.0,0.0,0.0,0.0,0.0,0.0,0.0,0.0,0.0,0.0,0.0,0.0,0.0,0.0,0.0,0.0,0.0,0.0,0.0,0.0,0.0,0.0,0.0,0.0,0.0,0.0,0.0,0.0,0.0,0.0,0.0,0.0,0.0,0.0,0.0,0.0,0.0,0.0,0.0,0.0,0.0,0.0,0.0,0.0,0.0,0.0,0.0,0.0,0.0,0.0,0.0,0.0,0.0,0.0,0.0,0.0,0.0,0.0,0.0,0.0,0.0,0.0,0.0,0.0,0.0,0.0,0.0,0.0,0.0,0.0,0.0,0.0,0.0,0.0,0.0,0.0,0.0,0.0,0.0,0.0,0.0,0.0,0.0,0.0,0.0,0.0,0.0,0.0,0.0,0.0,0.0,0.0,0.0,0.0,0.0,0.0,0.0,0.0,0.0,0.0,0.0,0.0,0.0,0.0,0.0,0.0,0.0,0.0,0.0,0.0,0.0,0.5504,0.5873,0.6463,0.0,0.0,0.0,0.0,0.0,0.0,0.0,0.0,0.0,0.0,0.0,0.0,0.0,0.0,0.0,0.0,0.0,0.0,0.0,0.0,0.0,0.0,0.0,0.0,0.0,0.0,0.0,0.0,0.0,0.0,0.0,0.0,0.0,0.0,0.0,0.0,0.0,0.0,0.0,0.0,0.0,0.0,0.0,0.0,0.0,0.0,0.0,0.0,0.0,0.0,0.0,0.0,0.0,0.0,0.0,0.0,0.0,0.0,0.0,0.0,0.0,0.0,0.0,0.0,0.0,0.0,0.0,0.0,0.0,0.0,0.0,0.0,0.0,0.0,0.0,0.0,0.0,0.0,0.0,0.0,0.0,0.0,0.0,0.0,0.0,0.0,0.0,0.0,0.0,0.0,0.0,0.0,0.0,0.0,0.0,0.0,0.0,0.0,0.0,0.0,0.0,0.0,0.0,0.0,0.0,0.0,0.0,0.0,0.0,0.0,0.5882,0.5822,0.5913,0.0,0.717,0.0,0.0,0.0,0.0,0.0,0.0,0.0,0.0,0.0,0.0,0.0,0.0,0.0,0.0,0.0,0.0,0.0,0.0,0.0,0.0,0.0,0.0,0.0,0.0,0.0,0.0,0.0,0.0,0.0,0.0,0.0,0.0,0.0,0.0,0.0,0.0,0.0,0.0,0.0,0.0,0.0,0.0,0.0,0.0,0.0,0.0,0.0,0.0,0.0,0.0,0.0,0.0,0.0,0.0,0.0,0.0,0.0,0.0,0.0,0.0,0.0,0.0,0.0,0.0,0.0,0.0,0.0,0.0,0.0,0.0,0.0,0.0,0.0,0.0,0.0,0.0,0.0,0.0,0.0,0.0,0.0,0.0,0.0,0.0,0.0,0.0,0.0,0.0,0.0,0.0,0.0,0.0,0.0,0.0,0.0,0.0,0.0,0.0,0.0,0.0,0.0,0.0,0.0,0.0,0.0,0.0,0.0,0.0,0.0,0.0,0.6775,0.638,0.648,0.6738,0.0,0.0,0.0,0.0,0.0,0.0,0.0,0.0,0.0,0.0,0.0,0.0,0.0,0.0,0.0,0.0,0.0,0.0,0.0,0.0,0.0,0.0,0.0,0.0,0.0,0.0,0.0,0.0,0.0,0.0,0.0,0.0,0.0,0.0,0.0,0.0,0.0,0.0,0.0,0.0,0.0,0.0,0.0,0.0,0.0,0.0,0.0,0.0,0.0,0.0,0.0,0.0,0.0,0.0,0.0,0.0,0.0,0.0,0.0,0.0,0.0,0.0,0.0,0.0,0.0,0.0,0.0,0.0,0.0,0.0,0.0,0.0,0.0,0.0,0.0,0.0,0.0,0.0,0.0,0.0,0.0,0.0,0.0,0.0,0.0,0.0,0.0,0.0,0.0,0.0,0.0,0.0,0.0,0.0,0.0,0.0,0.0,0.0,0.0,0.0,0.0,0.0,0.0,0.0,0.0,0.0,0.0,0.0,0.0,0.0,0.6712,0.7178,0.6918,0.684,0.6891,0.7042,0.0,0.0,0.0,0.0,0.0,0.0,0.0,0.0,0.0,0.0,0.0,0.0,0.0,0.0,0.0,0.0,0.0,0.0,0.0,0.0,0.0,0.0,0.0,0.0,0.0,0.0,0.0,0.0,0.0,0.0,0.0,0.0,0.0,0.0,0.0,0.0,0.0,0.0,0.0,0.0,0.0,0.0,0.0,0.0,0.0,0.0,0.0,0.0,0.0,0.0,0.0,0.0,0.0,0.0,0.0,0.0,0.0,0.0,0.0,0.0,0.0,0.0,0.0,0.0,0.0,0.0,0.0,0.0,0.0,0.0,0.0,0.0,0.0,0.0,0.0,0.0,0.0,0.0,0.0,0.0,0.0,0.0,0.0,0.0,0.0,0.0,0.0,0.0,0.0,0.0,0.0,0.0,0.0,0.0,0.0,0.0,0.0,0.0,0.0,0.0,0.0,0.0,0.0,0.0,0.0,0.0,0.0,0.0,0.5349,0.6017,0.6678,0.7294,0.687,0.6698,0.0,0.0,0.0,0.0,0.0,0.0,0.0,0.0,0.0,0.0,0.0,0.0,0.0,0.0,0.0,0.0,0.0,0.0,0.0,0.0,0.0,0.0,0.0,0.0,0.0,0.0,0.0,0.0,0.0,0.0,0.0,0.0,0.0,0.0,0.0,0.0,0.0,0.0,0.0,0.0,0.0,0.0,0.0,0.0,0.0,0.0,0.0,0.0,0.0,0.0,0.0,0.0,0.0,0.0,0.0,0.0,0.0,0.0,0.0,0.0,0.0,0.0,0.0,0.0,0.0,0.0,0.0,0.0,0.0,0.0,0.0,0.0,0.0,0.0,0.0,0.0,0.0,0.0,0.0,0.0,0.0,0.0,0.0,0.0,0.0,0.0,0.0,0.0,0.0,0.0,0.0,0.0,0.0,0.0,0.0,0.0,0.0,0.0,0.0,0.0,0.0,0.0,0.0,0.0,0.0,0.0,0.0,0.0,0.0,0.5663,0.6276,0.6587,0.6577,0.645,0.6134,0.0,0.0,0.0,0.0,0.0,0.0,0.0,0.0,0.0,0.0,0.0,0.0,0.0,0.0,0.0,0.0,0.0,0.0,0.0,0.0,0.0,0.0,0.0,0.0,0.0,0.0,0.0,0.0,0.0,0.0,0.0,0.0,0.0,0.0,0.0,0.0,0.0,0.0,0.0,0.0,0.0,0.0,0.0,0.0,0.0,0.0,0.0,0.0,0.0,0.0,0.0,0.0,0.0,0.0,0.0,0.0,0.0,0.0,0.0,0.0,0.0,0.0,0.0,0.0,0.0,0.0,0.0,0.0,0.0,0.0,0.0,0.0,0.0,0.0,0.0,0.0,0.0,0.0,0.0,0.0,0.0,0.0,0.0,0.0,0.0,0.0,0.0,0.0,0.0,0.0,0.0,0.0,0.0,0.0,0.0,0.0,0.0,0.0,0.0,0.0,0.0,0.0,0.0,0.0,0.0,0.0,0.0,0.0,0.0,0.5672,0.0,0.6527,0.6227,0.6055,0.5747,0.0,0.0,0.0,0.0,0.0,0.0,0.0,0.0,0.0,0.0,0.0,0.0,0.0,0.0,0.0,0.0,0.0,0.0,0.0,0.0,0.0,0.0,0.0,0.0,0.0,0.0,0.0,0.0,0.0,0.0,0.0,0.0,0.0,0.0,0.0,0.0,0.0,0.0,0.0,0.0,0.0,0.0,0.0,0.0,0.0,0.0,0.0,0.0,0.0,0.0,0.0,0.0,0.0,0.0,0.0,0.0,0.0,0.0,0.0,0.0,0.0,0.0,0.0,0.0,0.0,0.0,0.0,0.0,0.0,0.0,0.0,0.0,0.0,0.0,0.0,0.0,0.0,0.0,0.0,0.0,0.0,0.0,0.0,0.0,0.0,0.0,0.0,0.0,0.0,0.0,0.0,0.0,0.0,0.0,0.0,0.0,0.0,0.0,0.0,0.0,0.0,0.0,0.0,0.0,0.0,0.0,0.0,0.0,0.5579,0.5364,0.603,0.6426,0.6458,0.5664,0.5566,0.0,0.0,0.0,0.0,0.0,0.0,0.0,0.0,0.0,0.0,0.0,0.0,0.0,0.0,0.0,0.0,0.0,0.0,0.0,0.0,0.0,0.0,0.0,0.0,0.0,0.0,0.0,0.0,0.0,0.0,0.0,0.0,0.0,0.0,0.0,0.0,0.0,0.0,0.0,0.0,0.0,0.0,0.0,0.0,0.0,0.0,0.0,0.0,0.0,0.0,0.0,0.0,0.0,0.0,0.0,0.0,0.0,0.0,0.0,0.0,0.0,0.0,0.0,0.0,0.0,0.0,0.0,0.0,0.0,0.0,0.0,0.0,0.0,0.0,0.0,0.0,0.0,0.0,0.0,0.0,0.0,0.0,0.0,0.0,0.0,0.0,0.0,0.0,0.0,0.0,0.0,0.0,0.0,0.0,0.0,0.0,0.0,0.0,0.0,0.0,0.0,0.0,0.0,0.0,0.0,0.0,0.0,0.0,0.0,0.5791,0.6139,0.62,0.5953,0.5424,0.513,0.0,0.0,0.0,0.0,0.0,0.0,0.0,0.0,0.0,0.0,0.0,0.0,0.0,0.0,0.0,0.0,0.0,0.0,0.0,0.0,0.0,0.0,0.0,0.0,0.0,0.0,0.0,0.0,0.0,0.0,0.0,0.0,0.0,0.0,0.0,0.0,0.0,0.0,0.0,0.0,0.0,0.0,0.0,0.0,0.0,0.0,0.0,0.0,0.0,0.0,0.0,0.0,0.0,0.0,0.0,0.0,0.0,0.0,0.0,0.0,0.0,0.0,0.0,0.0,0.0,0.0,0.0,0.0,0.0,0.0,0.0,0.0,0.0,0.0,0.0,0.0,0.0,0.0,0.0,0.0,0.0,0.0,0.0,0.0,0.0,0.0,0.0,0.0,0.0,0.0,0.0,0.0,0.0,0.0,0.0,0.0,0.0,0.0,0.0,0.0,0.0,0.0,0.0,0.0,0.0,0.0,0.0,0.0,0.0,0.663,0.6843,0.6748,0.6386,0.5802,0.5458,0.5295,0.0,0.0,0.0,0.0,0.0,0.0,0.0,0.0,0.0,0.0,0.0,0.0,0.0,0.0,0.0,0.0,0.0,0.0,0.0,0.0,0.0,0.0,0.0,0.0,0.0,0.0,0.0,0.0,0.0,0.0,0.0,0.0,0.0,0.0,0.0,0.0,0.0,0.0,0.0,0.0,0.0,0.0,0.0,0.0,0.0,0.0,0.0,0.0,0.0,0.0,0.0,0.0,0.0,0.0,0.0,0.0,0.0,0.0,0.0,0.0,0.0,0.0,0.0,0.0,0.0,0.0,0.0,0.0,0.0,0.0,0.0,0.0,0.0,0.0,0.0,0.0,0.0,0.0,0.0,0.0,0.0,0.0,0.0,0.0,0.0,0.0,0.0,0.0,0.0,0.0,0.0,0.0,0.0,0.0,0.0,0.0,0.0,0.0,0.0,0.0,0.0,0.0,0.0,0.0,0.0,0.0,0.0,0.0,0.7924,0.8179,0.811,0.7675,0.6805,0.6394,0.0,0.0,0.0,0.0,0.0,0.0,0.0,0.0,0.0,0.0,0.0,0.0,0.0,0.0,0.0,0.0,0.0,0.0,0.0,0.0,0.0,0.0,0.0,0.0,0.0,0.0,0.0,0.0,0.0,0.0,0.0,0.0,0.0,0.0,0.0,0.0,0.0,0.0,0.0,0.0,0.0,0.0,0.0,0.0,0.0,0.0,0.0,0.0,0.0,0.0,0.0,0.0,0.0,0.0,0.0,0.0,0.0,0.0,0.0,0.0,0.0,0.0,0.0,0.0,0.0,0.0,0.0,0.0,0.0,0.0,0.0,0.0,0.0,0.0,0.0,0.0,0.0,0.0,0.0,0.0,0.0,0.0,0.0,0.0,0.0,0.0,0.0,0.0,0.0,0.0,0.0,0.0,0.0,0.0,0.0,0.0,0.0,0.0,0.0,0.0,0.0,0.0,0.0,0.0,0.0,0.0,0.0,0.0,0.0,0.9572,1.1174,1.1212,0.9622,0.8563,0.7628,0.0,0.0,0.0,0.0,0.0,0.0,0.0,0.0,0.0,0.0,0.0,0.0,0.0,0.0,0.0,0.0,0.0,0.0,0.0,0.0,0.0,0.0,0.0,0.0,0.0,0.0,0.0,0.0,0.0,0.0,0.0,0.0,0.0,0.0,0.0,0.0,0.0,0.0,0.0,0.0,0.0,0.0,0.0,0.0,0.0,0.0,0.0,0.0,0.0,0.0,0.0,0.0,0.0,0.0,0.0,0.0,0.0,0.0,0.0,0.0,0.0,0.0,0.0,0.0,0.0,0.0,0.0,0.0,0.0,0.0,0.0,0.0,0.0,0.0,0.0,0.0,0.0,0.0,0.0,0.0,0.0,0.0,0.0,0.0,0.0,0.0,0.0,0.0,0.0,0.0,0.0,0.0,0.0,0.0,0.0,0.0,0.0,0.0,0.0,0.0,0.0,0.0,0.0,0.0,0.0,0.0,0.0,0.0,0.7879,1.0916,1.3061,1.3738,1.2886,1.0816,0.8943,0.0,0.0,0.0,0.0,0.0,0.0,0.0,0.0,0.0,0.0,0.0,0.0,0.0,0.0,0.0,0.0,0.0,0.0,0.0,0.0,0.0,0.0,0.0,0.0,0.0,0.0,0.0,0.0,0.0,0.0,0.0,0.0,0.0,0.0,0.0,0.0,0.0,0.0,0.0,0.0,0.0,0.0,0.0,0.0,0.0,0.0,0.0,0.0,0.0,0.0,0.0,0.0,0.0,0.0,0.0,0.0,0.0,0.0,0.0,0.0,0.0,0.0,0.0,0.0,0.0,0.0,0.0,0.0,0.0,0.0,0.0,0.0,0.0,0.0,0.0,0.0,0.0,0.0,0.0,0.0,0.0,0.0,0.0,0.0,0.0,0.0,0.0,0.0,0.0,0.0,0.0,0.0,0.0,0.0,0.0,0.0,0.0,0.0,0.0,0.0,0.0,0.0,0.0,0.0,0.0,0.0,0.0,0.0,0.8622,1.2045,1.4226,1.5687,1.6285,1.3201,1.0449,0.0,0.0,0.0,0.0,0.0,0.0,0.0,0.0,0.0,0.0,0.0,0.0,0.0,0.0,0.0,0.0,0.0,0.0,0.0,0.0,0.0,0.0,0.0,0.0,0.0,0.0,0.0,0.0,0.0,0.0,0.0,0.0,0.0,0.0,0.0,0.0,0.0,0.0,0.0,0.0,0.0,0.0,0.0,0.0,0.0,0.0,0.0,0.0,0.0,0.0,0.0,0.0,0.0,0.0,0.0,0.0,0.0,0.0,0.0,0.0,0.0,0.0,0.0,0.0,0.0,0.0,0.0,0.0,0.0,0.0,0.0,0.0,0.0,0.0,0.0,0.0,0.0,0.0,0.0,0.0,0.0,0.0,0.0,0.0,0.0,0.0,0.0,0.0,0.0,0.0,0.0,0.0,0.0,0.0,0.0,0.0,0.0,0.0,0.0,0.0,0.0,0.0,0.0,0.0,0.0,0.0,0.0,0.0,0.9708,1.3377,1.5323,1.638,1.654,1.4806,1.2588,0.0,0.0,0.0,0.0,0.0,0.0,0.0,0.0,0.0,0.0,0.0,0.0,0.0,0.0,0.0,0.0,0.0,0.0,0.0,0.0,0.0,0.0,0.0,0.0,0.0,0.0,0.0,0.0,0.0,0.0,0.0,0.0,0.0,0.0,0.0,0.0,0.0,0.0,0.0,0.0,0.0,0.0,0.0,0.0,0.0,0.0,0.0,0.0,0.6113,0.0,0.0,0.0,0.0,0.0,0.0,0.0,0.0,0.0,0.0,0.0,0.0,0.0,0.0,0.0,0.0,0.0,0.0,0.0,0.0,0.0,0.0,0.0,0.0,0.0,0.0,0.0,0.0,0.0,0.0,0.0,0.0,0.0,0.0,0.0,0.0,0.0,0.0,0.0,0.0,0.0,0.0,0.0,0.0,0.0,0.0,0.0,0.0,0.0,0.0,0.0,0.0,0.0,0.0,0.0,0.0,0.0,0.0,0.0,1.0826,1.4014,1.6164,1.7226,1.7084,1.5482,1.3252,0.0,0.0,0.0,0.0,0.0,0.0,0.0,0.0,0.0,0.0,0.0,0.0,0.0,0.0,0.0,0.0,0.0,0.0,0.0,0.0,0.0,0.0,0.0,0.0,0.0,0.0,0.0,0.0,0.0,0.0,0.0,0.0,0.0,0.0,0.0,0.0,0.0,0.0,0.0,0.0,0.0,0.0,0.0,0.0,0.0,0.0,0.0,0.0,0.0,0.0,0.0,0.0,0.0,0.0,0.0,0.0,0.0,0.0,0.0,0.0,0.0,0.0,0.0,0.0,0.0,0.0,0.0,0.0,0.0,0.0,0.0,0.0,0.0,0.0,0.0,0.0,0.0,0.0,0.0,0.0,0.0,0.0,0.0,0.0,0.0,0.0,0.0,0.0,0.0,0.0,0.0,0.0,0.0,0.0,0.0,0.0,0.0,0.0,0.0,0.0,0.0,0.0,0.0,0.0,0.0,0.0,0.0,0.8673,1.18,1.4431,1.669,1.7738,1.7449,1.5382,1.2952,1.0218,0.0,0.0,0.0,0.0,0.0,0.0,0.0,0.0,0.0,0.0,0.0,0.0,0.0,0.0,0.0,0.0,0.0,0.0,0.0,0.0,0.0,0.0,0.0,0.0,0.0,0.0,0.0,0.0,0.0,0.0,0.0,0.0,0.0,0.0,0.0,0.0,0.0,0.0,0.5479,0.5247,0.0,0.0,0.0,0.0,0.0,0.0,0.0,0.0,0.6824,0.0,0.0,0.0,0.0,0.0,0.0,0.0,0.0,0.0,0.0,0.0,0.0,0.0,0.0,0.0,0.0,0.0,0.0,0.0,0.0,0.0,0.0,0.0,0.0,0.0,0.0,0.0,0.0,0.0,0.0,0.0,0.0,0.0,0.0,0.0,0.0,0.0,0.0,0.0,0.0,0.0,0.0,0.0,0.0,0.0,0.0,0.0,0.0,0.0,0.0,0.0,0.0,0.0,0.0,0.0,0.0,0.6153,0.9342,1.2423,1.5305,1.6613,1.6988,1.6394,1.3992,1.1619,0.9405,0.0,0.0,0.0,0.0,0.0,0.0,0.0,0.0,0.0,0.0,0.0,0.0,0.0,0.0,0.0,0.0,0.0,0.0,0.0,0.0,0.0,0.0,0.0,0.0,0.0,0.0,0.0,0.0,0.0,0.0,0.0,0.0,0.0,0.0,0.0,0.0,0.0,0.0,0.0,0.5319,0.5214,0.0,0.0,0.0,0.0,0.0,0.0,0.0,0.0,0.6859,0.0,0.0,0.0,0.0,0.0,0.0,0.0,0.0,0.0,0.0,0.0,0.0,0.0,0.0,0.0,0.0,0.0,0.0,0.0,0.0,0.0,0.0,0.0,0.0,0.0,0.0,0.0,0.0,0.0,0.0,0.0,0.0,0.0,0.0,0.0,0.0,0.0,0.0,0.0,0.0,0.0,0.0,0.0,0.0,0.0,0.0,0.0,0.0,0.0,0.0,0.0,0.0,0.0,0.0,0.0,0.7278,1.0367,1.3073,1.5321,1.6563,1.6539,1.5139,1.3277,1.1108,0.0,0.0,0.0,0.0,0.0,0.0,0.0,0.0,0.0,0.0,0.0,0.0,0.0,0.0,0.0,0.0,0.0,0.0,0.0,0.0,0.0,0.0,0.0,0.0,0.0,0.0,0.0,0.0,0.0,0.0,0.0,0.0,0.0,0.0,0.0,0.0,0.0,0.0,0.0,0.0,0.5668,0.5435,0.5649,0.0,0.0,0.0,0.0,0.0,0.0,0.6884,0.697,0.0,0.0,0.0,0.0,0.0,0.0,0.0,0.0,0.0,0.0,0.0,0.0,0.0,0.0,0.0,0.0,0.0,0.0,0.0,0.0,0.0,0.0,0.0,0.0,0.0,0.0,0.0,0.0,0.0,0.0,0.0,0.0,0.0,0.0,0.0,0.0,0.0,0.0,0.0,0.0,0.0,0.0,0.0,0.0,0.0,0.0,0.0,0.0,0.0,0.0,0.0,0.0,0.0,0.0,0.0,0.8322,1.129,1.3678,1.5357,1.65,1.6112,1.4107,1.2762,1.0697,0.0,0.0,0.0,0.0,0.0,0.0,0.0,0.0,0.0,0.0,0.0,0.0,0.0,0.0,0.0,0.0,0.0,0.0,0.0,0.0,0.0,0.0,0.0,0.0,0.0,0.0,0.0,0.0,0.0,0.0,0.0,0.0,0.0,0.0,0.0,0.0,0.0,0.0,0.0,0.0,0.0,0.5903,0.6367,0.6166,0.0,0.0,0.0,0.0,0.6983,0.7173,0.0,0.0,0.0,0.0,0.0,0.0,0.0,0.0,0.0,0.0,0.0,0.0,0.0,0.0,0.0,0.0,0.0,0.0,0.0,0.0,0.0,0.0,0.0,0.0,0.0,0.0,0.0,0.0,0.0,0.0,0.0,0.0,0.0,0.0,0.0,0.0,0.0,0.0,0.0,0.0,0.0,0.0,0.0,0.0,0.0,0.0,0.0,0.0,0.0,0.0,0.0,0.0,0.0,0.0,0.0,0.0,0.9301,1.1735,1.3984,1.5974,1.6246,1.553,1.3855,1.2151,0.9888,0.0,0.0,0.0,0.0,0.0,0.0,0.0,0.0,0.0,0.0,0.0,0.0,0.0,0.0,0.0,0.0,0.0,0.0,0.0,0.0,0.0,0.0,0.0,0.0,0.0,0.0,0.0,0.0,0.0,0.0,0.0,0.0,0.0,0.0,0.0,0.0,0.0,0.0,0.0,0.0,0.0,0.6922,0.7214,0.702,0.683,0.0,0.0,0.7341,0.7712,0.77,0.0,0.0,0.0,0.0,0.0,0.0,0.0,0.0,0.0,0.0,0.0,0.0,0.0,0.0,0.0,0.0,0.0,0.0,0.0,0.0,0.0,0.0,0.0,0.0,0.0,0.0,0.0,0.0,0.0,0.0,0.0,0.0,0.0,0.0,0.0,0.0,0.0,0.0,0.0,0.0,0.0,0.0,0.0,0.0,0.0,0.0,0.0,0.0,0.0,0.0,0.0,0.0,0.0,0.0,0.0,0.7292,0.9705,1.1994,1.3719,1.4799,1.5436,1.4621,1.2278,1.156,0.9657,0.0,0.0,0.0,0.0,0.0,0.0,0.0,0.0,0.0,0.0,0.0,0.0,0.0,0.0,0.0,0.0,0.0,0.0,0.0,0.0,0.0,0.0,0.0,0.0,0.0,0.0,0.0,0.0,0.0,0.0,0.0,0.0,0.0,0.0,0.0,0.0,0.0,0.0,0.0,0.0,0.0,0.0,0.7874,0.7778,0.0,0.0,0.0,0.8237,0.8637,0.0,0.0,0.0,0.0,0.0,0.0,0.0,0.0,0.0,0.0,0.0,0.0,0.0,0.0,0.0,0.0,0.0,0.0,0.0,0.0,0.0,0.0,0.0,0.0,0.0,0.0,0.0,0.0,0.0,0.0,0.0,0.0,0.0,0.0,0.0,0.0,0.0,0.0,0.0,0.0,0.0,0.0,0.0,0.0,0.0,0.0,0.0,0.0,0.0,0.0,0.0,0.0,0.0,0.0,0.0,0.0,0.0,0.9887,1.1817,1.3125,1.3764,1.4469,1.3625,1.1115,1.1064,0.0,0.0,0.0,0.0,0.0,0.0,0.0,0.0,0.0,0.0,0.0,0.0,0.0,0.0,0.0,0.0,0.0,0.0,0.0,0.0,0.0,0.0,0.0,0.0,0.0,0.0,0.0,0.4504,0.0,0.0,0.0,0.0,0.0,0.0,0.0,0.0,0.0,0.0,0.0,0.0,0.0,0.0,0.7653,0.8617,0.8599,0.8512,0.0,0.0,0.9104,0.9482,0.9367,0.9039,0.0,0.0,0.0,0.0,0.0,0.0,0.0,0.0,0.0,0.0,0.0,0.0,0.0,0.0,0.0,0.0,0.0,0.0,0.0,0.0,0.0,0.0,0.0,0.0,0.0,0.0,0.0,0.0,0.0,0.0,0.0,0.0,0.0,0.0,0.0,0.0,0.0,0.0,0.0,0.0,0.0,0.0,0.0,0.0,0.0,0.0,0.0,0.0,0.0,0.0,0.0,0.0,0.0,0.0,0.0,0.9825,1.0981,1.2245,1.3626,1.3464,1.2596,1.1052,1.0657,0.9075,0.0,0.0,0.0,0.0,0.0,0.0,0.0,0.0,0.0,0.0,0.0,0.0,0.0,0.0,0.0,0.0,0.0,0.0,0.0,0.0,0.0,0.0,0.0,0.0,0.0,0.0,0.0,0.0,0.0,0.0,0.0,0.0,0.0,0.0,0.0,0.0,0.0,0.0,0.0,0.0,0.0,0.871,0.9581,0.9581,0.9524,0.0,0.0,0.9838,1.0186,0.9385,0.8695,0.8585,0.0,0.0,0.0,0.0,0.0,0.0,0.0,0.0,0.0,0.0,0.0,0.0,0.0,0.0,0.0,0.0,0.0,0.0,0.0,0.0,0.0,0.0,0.0,0.0,0.0,0.0,0.0,0.0,0.0,0.0,0.0,0.0,0.0,0.0,0.0,0.0,0.0,0.0,0.0,0.0,0.0,0.0,0.0,0.0,0.0,0.0,0.0,0.0,0.0,0.0,0.0,0.0,0.0,0.6905,0.8901,1.0545,1.1776,1.2496,1.2518,1.1833,1.0429,0.9949,0.8583,0.0,0.0,0.0,0.0,0.0,0.0,0.0,0.0,0.0,0.0,0.0,0.0,0.0,0.0,0.0,0.0,0.0,0.0,0.0,0.0,0.0,0.0,0.0,0.0,0.0,0.0,0.0,0.0,0.4657,0.4434,0.5118,0.0,0.0,0.0,0.0,0.0,0.0,0.0,0.0,0.0,0.0,0.9029,0.9752,0.9961,0.0,0.0,1.0192,1.024,1.0069,0.9666,0.9062,0.8133,0.6766,0.0,0.0,0.0,0.0,0.0,0.0,0.0,0.0,0.0,0.0,0.0,0.0,0.0,0.0,0.0,0.0,0.0,0.0,0.0,0.0,0.0,0.0,0.0,0.0,0.0,0.0,0.0,0.0,0.0,0.0,0.0,0.0,0.0,0.0,0.0,0.0,0.0,0.0,0.0,0.0,0.0,0.0,0.0,0.0,0.0,0.0,0.0,0.0,0.0,0.0,0.0,0.0,0.6634,0.8317,1.0001,1.1175,1.1804,1.1797,1.1225,1.0044,0.9561,0.8345,0.0,0.0,0.0,0.0,0.0,0.0,0.0,0.0,0.0,0.0,0.0,0.0,0.0,0.0,0.0,0.0,0.0,0.0,0.0,0.0,0.0,0.0,0.0,0.0,0.0,0.0,0.0,0.0,0.4966,0.4785,0.5489,0.0,0.0,0.0,0.0,0.0,0.0,0.0,0.0,0.0,0.0,0.9094,0.9745,1.0059,1.0249,1.0261,1.0245,1.0114,0.9753,0.9239,0.8511,0.7373,0.0,0.0,0.0,0.0,0.0,0.0,0.0,0.0,0.0,0.0,0.0,0.0,0.0,0.0,0.0,0.0,0.0,0.0,0.0,0.0,0.0,0.0,0.0,0.0,0.0,0.0,0.0,0.0,0.0,0.0,0.952,0.0,0.0,0.0,0.0,0.0,0.0,0.0,0.0,0.0,0.0,0.0,0.0,0.0,0.0,0.0,0.0,0.0,0.0,0.0,0.0,0.0,0.0,0.6339,0.8381,0.9251,1.0394,1.1815,1.1374,1.0746,1.001,0.9609,0.8426,0.6369,0.0,0.0,0.0,0.0,0.0,0.0,0.0,0.0,0.0,0.0,0.0,0.0,0.0,0.0,0.0,0.0,0.0,0.0,0.0,0.0,0.0,0.0,0.0,0.0,0.0,0.0,0.5078,0.4892,0.5043,0.0,0.0,0.0,0.0,0.0,0.0,0.0,0.0,0.0,0.0,0.8505,0.901,0.9604,0.9925,1.0065,1.014,0.9722,0.9361,0.9191,0.7893,0.6725,0.0,0.0,0.0,0.0,0.0,0.0,0.0,0.0,0.0,0.0,0.0,0.0,0.0,0.0,0.0,0.0,0.0,0.0,0.0,0.0,0.0,0.0,0.0,0.0,0.0,0.0,0.0,0.9477,0.9533,0.0,0.0,0.0,0.0,0.0,0.0,0.0,0.0,0.0,0.0,0.0,0.9087,0.895,0.0,0.0,0.0,0.0,0.0,0.0,0.0,0.0,0.0,0.0,0.0,0.0,0.6502,0.8573,0.9422,1.0327,1.139,1.0773,1.0101,0.941,0.8877,0.8083,0.7004,0.0,0.0,0.0,0.0,0.0,0.0,0.0,0.0,0.0,0.0,0.0,0.0,0.0,0.0,0.0,0.0,0.0,0.0,0.0,0.0,0.0,0.0,0.0,0.0,0.0,0.5288,0.0,0.0,0.0,0.0,0.0,0.0,0.0,0.0,0.0,0.0,0.0,0.753,0.8442,0.8709,0.8824,0.8895,0.8829,0.8705,0.0,0.0,0.0,0.0,0.0,0.0,0.0,0.0,0.0,0.0,0.0,0.0,0.0,0.0,1.0512,1.0439,1.1385,1.213,1.1905,0.0,0.0,0.0,0.0,0.0,0.0,0.0,0.0,0.0,0.0,0.0,0.0,0.0,0.0,1.0405,0.0,1.0366,0.0,0.0,0.0,0.0,0.0,0.0,0.0,0.0,0.9622,0.9981,1.0399,1.0324,1.0408,0.0,1.0554,0.9946,0.0,0.0,0.0,0.0,0.0,0.0,0.0,0.0,0.6687,0.8838,0.9621,1.043,1.1217,1.0579,0.9887,0.9219,0.8358,0.7688,0.7322,0.6728,0.6383,0.0,0.0,0.0,0.0,0.0,0.0,0.0,0.0,0.0,0.0,0.0,0.0,0.0,0.0,0.0,0.0,0.0,0.0,0.0,0.0,0.0,0.0,0.0,0.513,0.0,0.0,0.0,0.0,0.0,0.0,0.0,0.0,0.0,0.7403,0.7634,0.7941,0.8354,0.8325,0.8145,0.7889,0.0,0.0,0.0,0.0,0.0,0.0,0.0,0.7674,0.7323,0.8228,0.9288,1.0136,1.0952,1.1764,1.2526,0.0,0.0,1.2548,1.3283,1.4025,1.3911,1.4034,1.4125,1.4012,1.4125,1.4261,0.0,0.0,0.0,0.0,0.0,0.0,0.0,0.0,1.1027,1.1075,0.0,1.0611,0.0,0.0,0.0,0.0,0.0,1.0301,0.0,0.0,1.0724,1.1286,1.2429,1.1992,1.2082,1.2681,1.2275,1.1728,1.1022,0.9001,0.0,0.0,0.0,0.0,0.0,0.0,0.6953,0.9104,0.9886,1.0658,1.1404,1.0777,1.0057,0.9353,0.8049,0.7362,0.7314,0.679,0.6469,0.6465,0.5921,0.0,0.0,0.0,0.0,0.0,0.0,0.0,0.0,0.0,0.0,0.0,0.0,0.0,0.0,0.0,0.0,0.0,0.0,0.0,0.0,0.4927,0.0,0.0,0.0,0.0,0.0,0.0,0.0,0.0,0.0,0.0,0.7457,0.7734,0.7905,0.7771,0.0,0.0,0.0,0.0,0.7535,0.7919,0.8115,0.8252,0.8402,0.867,0.8827,0.8718,0.0,0.0,1.3431,1.4565,1.5504,1.6564,1.6923,1.6673,1.5038,1.5519,1.6236,1.663,1.6766,1.6768,1.6394,1.6328,1.6465,1.6663,0.0,0.0,0.0,0.0,1.2323,1.2366,1.2772,1.245,1.2237,1.2118,1.1988,0.0,0.0,0.0,0.0,0.0,0.0,1.165,1.2129,1.2378,1.2759,1.3201,1.3099,1.3254,1.3614,1.3537,1.3436,1.3232,1.2199,1.0273,0.7581,0.0,0.0,0.0,0.0,0.8348,0.9978,1.0837,1.1162,1.0938,1.0736,0.9996,0.8718,0.8254,0.7989,0.7955,0.7812,0.7764,0.7754,0.7286,0.0,0.0,0.0,0.0,0.0,0.0,0.0,0.0,0.0,0.0,0.0,0.0,0.0,0.0,0.0,0.0,0.0,0.0,0.0,0.4598,0.4803,0.5095,0.0,0.0,0.0,0.0,0.0,0.0,0.0,0.0,0.0,0.8739,0.8772,0.8771,0.0,0.0,0.7905,0.7521,0.7439,0.7464,0.7614,0.8127,0.0,0.9123,1.0687,1.1934,1.2241,1.4109,1.5963,1.7111,1.7582,1.7937,1.8373,1.9036,1.9382,1.8999,1.8267,1.7958,1.8146,1.8228,1.8225,1.8102,1.8154,1.8261,1.9241,1.6808,1.585,1.5253,1.4854,1.4293,1.414,1.4237,1.3902,1.3599,1.3321,1.3084,1.2768,1.2386,1.2422,0.0,0.0,0.0,1.3082,1.3568,1.384,1.4178,1.452,1.4602,1.4738,1.498,1.5325,1.5254,1.4797,1.4675,1.3007,0.9913,0.0,0.0,0.7961,0.8503,0.9524,1.0946,1.1539,1.1499,1.0825,1.0191,0.9412,0.8489,0.8382,0.8289,0.8213,0.8273,0.8309,0.8333,0.7617,0.6999,0.0,0.0,0.0,0.0,0.0,0.0,0.0,0.0,0.0,0.0,0.0,0.6917,0.6754,0.0,0.0,0.0,0.5205,0.4817,0.4733,0.5146,0.0,0.0,0.0,0.0,0.0,0.0,0.0,0.9749,1.0149,1.0427,1.0622,1.0645,1.0197,0.9033,0.8567,0.8171,0.7741,0.0,0.8082,0.8639,0.9433,1.0265,1.1127,1.306,1.4824,1.5822,1.7524,1.8963,1.9613,2.0044,2.0342,2.0558,2.0994,2.1381,2.1431,2.0693,2.0047,2.0038,2.0017,2.004,2.004,2.0127,2.0185,2.1237,2.0693,1.8876,1.7806,1.7318,1.6757,1.6322,1.5949,1.5312,1.5015,1.4854,1.3988,1.4033,1.4808,1.4862,0.0,1.4668,1.4466,1.4641,1.5165,1.5108,1.5451,1.6116,1.6187,1.6297,1.6446,1.7233,1.7031,1.597,1.6577,1.5606,1.3078,1.1554,1.0407,0.968,0.9741,1.0523,1.1901,1.1991,1.1698,1.1012,0.95,0.8646,0.8508,0.8441,0.8344,0.8234,0.8266,0.8309,0.8278,0.7219,0.6548,0.6414,0.0,0.0,0.0,0.0,0.0,0.0,0.0,0.0,0.0,0.0,0.0,0.0,0.0,0.0,0.0,0.4935,0.0,0.5305,0.5867,0.0,0.0,0.0,0.8282,0.9678,0.9913,1.0469,1.1811,0.0,0.0,1.2732,1.2811,1.1883,0.9352,0.8718,0.8311,0.7856,0.8421,0.923,1.0444,1.1563,1.2642,1.3632,1.5466,1.7343,1.9007,2.0182,2.0759,2.123,2.1849,2.2429,2.252,2.2681,2.2659,2.2602,2.2439,2.2415,2.1954,2.1876,2.1863,2.1805,2.1824,2.1842,2.2585,2.2151,2.1113,1.991,1.861,1.7983,1.7303,1.6646,1.639,1.5887,1.5211,1.5103,1.5036,1.4973,1.5426,1.5791,1.6099,1.5947,1.614,1.6548,1.6067,1.6011,1.633,1.6351,1.6484,1.6746,1.747,1.7703,1.7549,1.7776,1.7028,1.5425,1.4554,1.2974,1.073,1.0734,1.1251,1.2196,1.222,1.1867,1.1091,1.005,0.9204,0.8589,0.8508,0.8446,0.835,0.8372,0.8149,0.7658,0.702,0.6397,0.5764,0.4982,0.0,0.0,0.0,0.0,0.0,0.0,0.0,0.0,0.0,0.6807,0.6657,0.0,0.5699,0.0,0.5721,0.583,0.6295,0.6885,0.0,0.0,0.9327,1.0292,1.1712,1.1981,1.2398,1.329,1.3406,1.3458,1.3582,1.3183,1.2621,1.1902,1.1367,1.0804,1.0218,1.0212,1.0604,1.1402,1.2663,1.3868,1.4795,1.6967,1.9189,2.0928,2.1404,2.1787,2.2384,2.2583,2.2725,2.2764,2.2786,2.2799,2.2786,2.2769,2.2694,2.2588,2.2371,2.2209,2.2217,2.2214,2.222,2.3147,2.2725,2.2059,2.1136,2.0063,1.9445,1.8514,1.7486,1.7464,1.6861,1.5913,1.6614,1.6832,1.67,1.7301,1.7636,1.7748,1.7606,1.7631,1.7803,1.7487,1.7421,1.7555,1.7581,1.7704,1.7936,1.866,1.8908,1.8729,1.878,1.8161,1.6873,1.5913,1.4516,1.2739,1.2016,1.1746,1.1899,1.1862,1.1626,1.1152,1.0288,0.9479,0.871,0.8312,0.8067,0.7992,0.7698,0.7354,0.701,0.6525,0.6083,0.5636,0.4886,0.4458,0.0,0.0,0.0,0.0,0.0,0.0,0.0,0.0,0.0,0.0,0.0,0.5935,0.6263,0.6746,0.7231,0.7638,0.8154,0.8947,1.0184,1.0734,1.1722,1.3477,1.3817,1.4199,1.4965,1.4797,1.4632,1.4631,1.4097,1.3581,1.3241,1.2958,1.2433,1.1556,1.1424,1.1736,1.2498,1.35,1.4788,1.627,1.7935,1.9586,2.1095,2.1473,2.1691,2.239,2.2192,2.2009,2.2309,2.2143,2.192,2.1953,2.1902,2.1953,2.2264,2.2224,2.2201,2.2411,2.2492,2.252,2.3259,2.2841,2.2251,2.1794,2.141,2.086,1.974,1.8277,1.8422,1.7899,1.6988,1.8269,1.8896,1.8999,1.9626,1.974,1.9423,1.9275,1.9092,1.8904,1.8933,1.8972,1.9036,1.9099,1.9197,1.9347,2.0072,2.0154,1.9654,1.9634,1.9001,1.7809,1.6447,1.5433,1.4744,1.3299,1.2208,1.1564,1.1585,1.1464,1.1189,1.0444,0.9649,0.8834,0.8124,0.7671,0.7522,0.6892,0.6499,0.6366,0.5945,0.5682,0.5625,0.4831,0.436,0.0,0.4696,0.0,0.0,0.0,0.0,0.0,0.0,0.0,0.0,0.6478,0.6386,0.6871,0.7988,0.881,0.9133,0.9498,1.0267,1.1617,1.1926,1.2811,1.4714,1.5146,1.5531,1.6233,1.5806,1.5491,1.546,1.5012,1.436,1.3832,1.3644,1.3205,1.2321,1.2179,1.2593,1.3537,1.4071,1.5214,1.7328,1.8275,1.9071,2.0417,2.0828,2.108,2.185,2.1372,2.107,2.1582,2.133,2.0917,2.0855,2.0842,2.1004,2.161,2.1685,2.1894,2.2505,2.26,2.266,2.3203,2.2841,2.2306,2.1911,2.1632,2.1465,2.0362,1.8706,1.884,1.8762,1.864,1.9727,2.0223,2.0281,2.0776,2.0834,2.0564,2.0369,2.0188,1.9979,1.9396,1.9177,1.9248,1.9253,1.9337,1.9501,2.02,2.0531,2.0464,2.0004,1.9323,1.8487,1.7208,1.5961,1.4736,0.0,0.0,0.0,1.2908,1.2528,1.1249,1.0988,1.0205,0.8859,0.8663,0.0,0.7624,0.749,0.6902,0.5759,0.5693,0.0,0.0,0.0,0.0,0.0,0.0,0.0,0.0,0.0,0.0,0.0,0.7643,0.7632,0.8056,0.8495,0.8869,0.9072,0.9433,0.9884,1.0457,1.068,1.134,1.2653,1.3027,1.3629,1.4692,1.4968,1.5148,1.5323,1.5296,1.5256,1.5217,1.4656,1.4163,1.399,1.3516,1.3104,1.2829,1.2796,1.2956,1.3304,1.4101,1.5193,1.65,1.7406,1.8188,1.9156,1.9928,2.0526,2.1122,2.1118,2.098,2.1244,2.1148,2.1037,2.1071,2.1065,2.0969,2.1198,2.1141,2.1438,2.2576,2.238,2.2002,2.3482,0.0,2.2599,2.2226,0.0,2.1848,2.1071,1.9877,1.9888,1.9889,1.9957,2.0947,2.1408,2.1472,2.2,2.2035,2.1693,2.1449,2.1218,2.0961,2.0618,2.0461,2.048,2.0523,2.0558,2.0654,2.1009,2.1197,2.1199,2.0597,1.9945,1.9265,1.7968,1.6793,1.5795,1.5045,1.3977,1.2566,1.2885,1.2638,1.1842,1.1769,1.1003,0.9519,0.9089,0.0,0.0,0.0,0.0,0.0,0.0,0.0,0.0,0.504,0.0,0.6034,0.6428,0.6723,0.692,0.716,0.78,0.8996,0.9387,0.9398,0.8992,0.9639,1.0144,1.0292,1.0746,1.1206,1.1641,1.178,1.2272,1.3299,1.3582,1.402,1.4751,1.508,1.5215,1.5207,1.4986,1.4819,1.4855,1.4175,1.3733,1.369,1.339,1.3156,1.313,1.3086,1.313,1.3379,1.3925,1.473,1.5576,1.6145,1.7059,1.8145,1.8801,1.9506,2.057,2.037,2.0207,2.0587,2.0471,2.0219,2.0164,2.0137,2.0215,2.0448,2.046,2.0707,2.1715,2.1656,2.1415,2.3803,2.3421,2.2964,2.2589,2.2298,2.2167,2.1843,2.1375,0.0,0.0,0.0,2.2105,2.2558,2.2631,2.3084,2.3021,2.2552,2.2303,2.2013,2.1731,2.1739,2.1731,2.1724,2.1783,2.1789,2.1789,2.1789,2.1789,2.1779,2.1132,2.0536,1.9982,1.8671,1.7608,1.6869,1.6282,1.5027,1.3154,1.305,1.2839,1.2397,1.2489,1.1817,1.0297,0.9664,0.8973,0.8172,0.7498,0.7083,0.6933,0.7064,0.6975,0.6655,0.6731,0.7077,0.7616,0.762,0.7853,0.8535,0.8601,0.9126,1.0315,1.111,1.1074,0.9926,1.0579,1.1082,1.1177,1.1875,1.236,1.2548,1.2615,1.2917,1.3596,1.3718,1.4,1.4607,1.4924,1.4988,1.5007,1.4552,1.4278,1.4322,1.3803,1.3345,1.3337,1.3354,1.3354,1.3337,1.3261,1.3303,1.3561,1.3844,1.4192,1.4815,1.5298,1.5921,1.7217,1.7765,1.8453,1.9468,1.9512,1.9484,2.0076,1.9704,1.9402,1.9208,1.9253,1.9305,1.9758,1.975,1.9837,2.043,2.0597,2.0606,2.3917,2.3628,2.3218,2.2923,2.2716,2.2628,2.2708,2.2835,2.2203,2.2074,2.2419,2.3329,2.3762,2.3752,2.3613,2.3297,2.2835,2.2638,2.2293,2.1876,2.1853,2.184,2.1797,2.1789,2.1789,2.1789,2.1789,2.1789,2.1729,2.1126,2.0744,2.0514,1.932,1.8013,1.6841,1.6731,1.6214,1.5194,1.5235,1.4263,1.2305,1.2839,1.2435,1.0968,1.0785,1.0346,0.9554,0.9354,0.894,0.8286,0.8312,0.8311,0.8276,0.8342,0.8403,0.8471,0.9,0.9343,0.9348,0.9857,1.0453,1.11,1.1777,1.1876,1.1228,1.186,1.2329,1.2372,1.2572,1.2746,1.2836,1.285,1.2928,1.3105,1.3172,1.3321,1.3585,1.3752,1.388,1.3871,1.3741,1.3747,1.3764,1.3635,1.3526,1.3477,1.3478,1.3494,1.3542,1.3552,1.3577,1.3677,1.3803,1.398,1.4326,1.4972,1.5528,1.5844,1.7132,1.8018,1.8543,1.8939,1.9254,1.9534,1.9493,1.9418,1.9422,1.9346,1.9308,1.9382,1.9246,1.9164,1.9296,1.9222,1.9327,2.4247,2.3954,2.3533,2.3289,2.3109,2.3011,2.3151,2.3379,2.3111,2.3106,2.3406,2.3881,2.4113,2.4096,2.3868,2.3553,2.3162,2.2841,2.2525,2.2169,2.1995,2.1876,2.1855,2.1827,2.1789,2.1789,2.1789,2.1789,2.1756,2.1471,2.1159,2.0744,1.9458,1.8461,1.7861,1.7545,1.701,1.6214,1.5867,1.5143,1.4027,1.4358,1.3977,1.2807,1.2414,1.1831,1.1023,1.0506,1.0052,0.9657,0.967,0.9704,0.9739,0.9764,0.9755,0.9715,0.9935,1.0204,1.051,1.1217,1.1741,1.1999,1.2355,1.2465,1.2166,1.2436,1.263,1.2703,1.2793,1.2851,1.2904,1.296,1.3023,1.3051,1.314,1.3261,1.3404,1.3526,1.3623,1.3613,1.3668,1.3708,1.3715,1.3676,1.3668,1.3661,1.3628,1.3661,1.3739,1.3766,1.375,1.377,1.3824,1.3952,1.4093,1.445,1.4988,1.5517,1.6256,1.7162,1.7909,1.8577,1.8903,1.9403,1.9495,1.9503,1.9491,1.9426,1.9334,1.9251,1.9095,1.8949,1.887,1.8789,1.8894,2.4563,2.4246,2.3884,2.3617,2.3449,2.3327,2.3421,2.364,2.3698,2.3846,2.4045,2.4171,2.4238,2.4229,2.4047,2.3776,2.3432,2.3054,2.2725,2.2405,2.2118,2.1957,2.1913,2.184,2.1811,2.1804,2.1789,2.1789,2.1789,2.1789,2.1454,2.0753,1.9621,1.8934,1.877,1.8137,1.7501,1.6908,1.6411,1.594,1.551,1.5678,1.539,1.4545,1.3974,1.3344,1.2702,1.2047,1.157,1.1357,1.1341,1.1294,1.1213,1.1197,1.1165,1.1091,1.1008,1.117,1.1682,1.2296,1.2668,1.2684,1.2785,1.2841,1.284,1.2777,1.275,1.2822,1.2896,1.296,1.2987,1.3076,1.3147,1.3175,1.3278,1.3428,1.355,1.3675,1.3759,1.3766,1.3822,1.3828,1.3822,1.3766,1.3759,1.3806,1.379,1.3821,1.3908,1.3938,1.3928,1.3894,1.3906,1.3986,1.4096,1.4214,1.4587,1.5336,1.5628,1.6337,1.7342,1.7809,1.8208,1.8753,1.8936,1.8985,1.9138,1.9158,1.9168,1.9217,1.9193,1.9053,1.894,1.887,1.8815,2.4768,2.4524,2.4183,2.3917,2.3678,2.353,2.3582,2.3762,2.3788,2.3951,2.4161,2.4266,2.4321,2.4348,2.4164,2.3911,2.3586,2.3295,2.2931,2.2506,2.2335,2.2143,2.1928,2.1899,2.1855,2.1796,2.1796,2.1789,2.1789,2.1789,2.1454,2.0788,2.0065,1.9353,1.875,1.8102,1.7696,1.7523,1.7507,1.6835,1.5543,1.6066,1.6026,1.5247,1.5091,1.4963,1.4738,1.4665,1.4273,1.3672,1.3532,1.3294,1.2744,1.2681,1.2654,1.2558,1.2565,1.2612,1.2669,1.28,1.2862,1.2871,1.2934,1.2986,1.2995,1.3092,1.3058,1.2969,1.3013,1.3093,1.3163,1.3234,1.3295,1.3371,1.3485,1.3629,1.3754,1.3834,1.3899,1.3952,1.3963,1.3971,1.39,1.3875,1.3893,1.3907,1.3929,1.3957,1.3993,1.4057,1.4085,1.4078,1.4074,1.4105,1.4181,1.4299,1.4453,1.4636,1.5242,1.5836,1.6288,1.6809,1.7303,1.7683,1.7532,1.7795,1.8221,1.8424,1.8622,1.9094,1.9201,1.922,1.9044,1.8949,1.8887,2.4971,2.476,2.4456,2.4173,2.3893,2.3732,2.373,2.3798,2.3806,2.3902,2.4075,2.42,2.4303,2.4385,2.4284,2.4058,2.3816,2.3518,2.3167,2.2795,2.2542,2.2321,2.2143,2.1972,2.189,2.1863,2.1811,2.1789,2.1789,2.1789,2.1661,2.1294,2.0347,1.9636,1.9294,1.8318,1.7738,1.7673,1.7687,1.7348,1.6767,1.6931,1.6942,1.6594,1.6124,1.5841,1.5761,1.5302,1.4685,1.4031,1.3919,1.3594,1.2942,1.2908,1.2893,1.2869,1.2887,1.294,1.2968,1.3042,1.3096,1.3131,1.3208,1.3209,1.3174,1.3234,1.3225,1.3166,1.3157,1.3191,1.3268,1.3329,1.3396,1.351,1.3646,1.3768,1.3905,1.3952,1.3979,1.401,1.4009,1.3996,1.3968,1.3966,1.3972,1.4002,1.4037,1.4055,1.4112,1.4147,1.4206,1.4255,1.4285,1.4254,1.4244,1.4312,1.4383,1.446,1.4693,1.5037,1.5722,1.6001,1.6466,1.6951,1.6963,1.7071,1.7523,1.7637,1.7822,1.8488,1.9147,1.9255,1.911,1.9051,1.9001,2.5154,2.4955,2.4634,2.4311,2.4006,2.386,2.3804,2.3784,2.3763,2.3819,2.3966,2.4105,2.4229,2.433,2.4321,2.4219,2.4027,2.3735,2.3416,2.3093,2.2769,2.2542,2.2358,2.2132,2.2001,2.1934,2.1861,2.1811,2.1804,2.1789,2.1705,2.1363,2.0328,1.9686,1.9361,1.8303,1.7704,1.765,1.765,1.7601,1.7476,1.7489,1.7485,1.7437,1.6929,1.6629,1.6612,1.583,1.5064,1.4394,1.4122,1.3683,1.3034,1.2987,1.3007,1.3086,1.3139,1.3183,1.3269,1.3329,1.3387,1.342,1.3478,1.3487,1.3429,1.3404,1.3404,1.3379,1.3345,1.3362,1.3346,1.3429,1.3543,1.3645,1.3777,1.3896,1.4005,1.4037,1.4062,1.4055,1.4091,1.4087,1.4066,1.4064,1.408,1.415,1.417,1.4187,1.425,1.4267,1.4314,1.4413,1.4458,1.4398,1.428,1.4322,1.4393,1.4374,1.4432,1.4675,1.53,1.5391,1.5493,1.5883,1.628,1.6589,1.6734,1.6827,1.7052,1.7763,1.8352,1.8638,1.8321,1.8574,1.8726,2.5303,2.5112,2.4629,2.4293,2.4093,2.389,2.3804,2.3795,2.3665,2.37,2.3836,2.4017,2.4153,2.4238,2.4339,2.4321,2.4172,2.3909,2.3646,2.3371,2.3114,2.2808,2.2501,2.2396,2.224,2.2036,2.1957,2.1892,2.1804,2.1796,2.1431,2.0766,2.0073,1.9368,1.8735,1.8007,1.7577,1.7527,1.7507,1.7517,1.749,1.7486,1.7486,1.7466,1.7428,1.7329,1.7296,1.6696,1.5953,1.524,1.4531,1.3874,1.3267,1.3185,1.3303,1.3512,1.3567,1.3606,1.3651,1.3731,1.3759,1.3768,1.3775,1.3762,1.3683,1.3685,1.3638,1.3589,1.3631,1.3616,1.3544,1.3607,1.3717,1.3801,1.39,1.4007,1.4075,1.4154,1.4179,1.4194,1.4238,1.4251,1.4206,1.4191,1.4228,1.4284,1.4332,1.4377,1.4386,1.4442,1.4482,1.4508,1.4543,1.4541,1.4413,1.4381,1.4365,1.4347,1.4347,1.4374,1.4422,1.4538,1.4696,1.4801,1.5069,1.541,1.5778,1.613,1.6431,1.6889,1.7243,1.7396,1.7608,1.7789,1.7945,2.535,2.5046,2.4676,2.4417,2.4201,2.3976,2.3833,2.38,2.3743,2.3777,2.3876,2.4026,2.419,2.4321,2.433,2.4312,2.4266,2.4163,2.3968,2.3648,2.3416,2.3179,2.2956,2.2712,2.2511,2.2315,2.2152,2.2038,2.1918,2.1934,2.1536,2.0819,2.0099,1.9402,1.8659,1.7965,1.7574,1.7492,1.7492,1.7482,1.7443,1.7439,1.7395,1.7285,1.6981,1.6802,1.6802,1.6088,1.535,1.4634,1.4344,1.3893,1.331,1.3362,1.3542,1.3702,1.3805,1.3859,1.3901,1.3991,1.4041,1.3999,1.4003,1.397,1.3918,1.3897,1.3861,1.3817,1.3811,1.3787,1.3775,1.3797,1.388,1.3984,1.4062,1.4152,1.4216,1.4253,1.4269,1.4282,1.4313,1.4344,1.4347,1.4335,1.4356,1.4417,1.4456,1.4463,1.447,1.4525,1.4565,1.4578,1.4622,1.4625,1.455,1.4452,1.4383,1.4356,1.4356,1.4371,1.4408,1.4473,1.4627,1.4707,1.4665,1.4766,1.5347,1.5681,1.5948,1.6128,1.646,1.6673,1.7033,1.7156,1.7245,2.5371,2.5057,2.4804,2.455,2.4311,2.4066,2.3907,2.3804,2.3786,2.3807,2.3893,2.4024,2.4162,2.4294,2.4321,2.433,2.4303,2.4266,2.4135,2.389,2.3735,2.354,2.3318,2.303,2.2825,2.265,2.2407,2.2217,2.2118,2.2087,2.1552,2.0585,2.0054,1.9311,1.8401,1.7816,1.7539,1.75,1.7489,1.7474,1.7403,1.7399,1.7338,1.7138,1.662,1.6314,1.63,1.5594,1.4897,1.4263,1.3959,1.3661,1.3362,1.3526,1.3762,1.3951,1.4071,1.4161,1.4192,1.428,1.432,1.4299,1.4271,1.4232,1.4165,1.4116,1.4064,1.4012,1.4002,1.4007,1.4014,1.4037,1.408,1.4139,1.4224,1.4322,1.4384,1.4399,1.4401,1.4411,1.4443,1.4467,1.4475,1.4462,1.4487,1.4524,1.4533,1.4547,1.4571,1.4611,1.4636,1.4628,1.4663,1.4652,1.46,1.4511,1.4437,1.4405,1.435,1.4353,1.4402,1.4461,1.4528,1.4589,1.4642,1.4687,1.4883,1.5236,1.5431,1.5579,1.5652,1.582,1.6166,1.6481,1.655,2.5382,2.5191,2.4978,2.4719,2.4424,2.4182,2.3996,2.3846,2.3757,2.3766,2.386,2.3954,2.4065,2.4142,2.4284,2.4339,2.4303,2.4238,2.4164,2.4087,2.4018,2.3856,2.3608,2.3389,2.3194,2.2976,2.2672,2.2438,2.2349,2.2293,2.1574,2.0275,2.001,1.9223,1.7607,1.7627,1.7525,1.751,1.7498,1.7451,1.7411,1.7399,1.731,1.7121,1.6515,1.6145,1.6082,1.5358,1.4645,1.4049,1.3417,1.3181,1.3488,1.3685,1.3943,1.4223,1.4353,1.4454,1.4568,1.459,1.4612,1.4642,1.461,1.4543,1.4467,1.4371,1.4289,1.4241,1.4218,1.4202,1.4225,1.4301,1.4323,1.4242,1.4383,1.4526,1.4667,1.4672,1.464,1.474,1.4759,1.4622,1.4591,1.4581,1.4596,1.4598,1.4612,1.4627,1.4667,1.4696,1.4706,1.4706,1.4692,1.4663,1.4623,1.4578,1.4515,1.4449,1.4387,1.4353,1.4416,1.4474,1.4537,1.4602,1.4647,1.4692,1.4706,1.4994,1.4948,1.5041,1.5031,1.51,1.5364,1.5674,1.5804,2.548,2.5325,2.5122,2.4903,2.4651,2.4373,2.4164,2.4086,2.3966,2.3953,2.4013,2.4054,2.4114,2.4153,2.4191,2.4238,2.4294,2.4238,2.4219,2.4229,2.4201,2.4115,2.3931,2.3737,2.3493,2.3209,2.2965,2.2829,2.2777,2.2685,2.2078,2.1152,2.0394,1.9578,1.8515,1.7925,1.7554,1.7571,1.7512,1.7446,1.735,1.733,1.7228,1.6983,1.6674,1.632,1.5823,1.4799,1.3976,1.3416,1.3163,1.3234,1.3583,1.3828,1.4056,1.4344,1.4519,1.4663,1.4785,1.4812,1.4812,1.4831,1.4827,1.4766,1.4667,1.4603,1.4545,1.448,1.4478,1.4467,1.4434,1.4485,1.4558,1.4472,1.4571,1.497,1.5589,1.6087,1.6232,1.5941,1.57,1.5342,1.4831,1.4671,1.4662,1.4671,1.467,1.4688,1.4702,1.4713,1.4706,1.4706,1.4688,1.4694,1.4676,1.4661,1.4639,1.4585,1.4511,1.4451,1.4493,1.453,1.4587,1.4618,1.4663,1.4692,1.4706,1.4706,1.4706,1.4706,1.4836,1.4836,1.4766,1.4924,1.5188,2.5723,2.5884,2.5725,2.5549,2.5378,2.5089,2.47,2.4348,2.4182,2.4097,2.4105,2.4123,2.4142,2.4144,2.4133,2.419,2.4257,2.4219,2.4247,2.4312,2.433,2.4284,2.4201,2.3999,2.3762,2.3459,2.3286,2.3185,2.3139,2.3022,2.2565,2.1684,2.0798,1.9898,1.9051,1.8208,1.7724,1.7638,1.7601,1.7504,1.7369,1.7325,1.7224,1.7007,1.6868,1.6444,1.5698,1.474,1.3944,1.3452,1.3296,1.3437,1.3751,1.3985,1.4237,1.4521,1.4705,1.4857,1.4964,1.499,1.5018,1.5015,1.4994,1.4933,1.4855,1.4816,1.4771,1.4719,1.4693,1.4664,1.4683,1.5014,1.5179,1.5278,1.5315,1.5719,1.6549,1.7131,1.7094,1.6607,1.6229,1.5663,1.5023,1.477,1.4751,1.4747,1.4731,1.474,1.4735,1.474,1.4735,1.4739,1.4744,1.4745,1.4736,1.4751,1.476,1.4721,1.4666,1.4631,1.4641,1.4661,1.4691,1.4652,1.4677,1.4698,1.4708,1.4712,1.4706,1.4706,1.4706,1.4716,1.472,1.4681,1.4926,2.6116,2.6765,2.6721,2.6601,2.6448,2.617,2.5521,2.4703,2.4397,2.4265,2.4192,2.4201,2.419,2.4142,2.4181,2.42,2.4201,2.4201,2.4284,2.4376,2.4403,2.4385,2.4349,2.419,2.3986,2.3755,2.3651,2.356,2.3461,2.3348,2.2865,2.2084,2.1223,2.022,1.9376,1.8474,1.8016,1.7791,1.7738,1.7607,1.7428,1.7393,1.7289,1.7103,1.6991,1.6608,1.5914,1.5142,1.4457,1.3981,1.3607,1.3641,1.3911,1.4184,1.4475,1.4766,1.4928,1.5019,1.5098,1.516,1.5276,1.5391,1.5356,1.5225,1.544,1.5514,1.5455,1.5361,1.5268,1.517,1.5372,1.5832,1.6329,1.6551,1.6625,1.699,1.7628,1.7872,1.7842,1.7192,1.6582,1.5912,1.5052,1.4896,1.4869,1.4827,1.479,1.4794,1.4794,1.4799,1.4804,1.4794,1.4804,1.4804,1.4809,1.4818,1.4832,1.4845,1.4804,1.479,1.477,1.4775,1.4756,1.4718,1.4707,1.4715,1.4718,1.4722,1.4712,1.4706,1.4706,1.4706,1.4748,1.4769,1.5027,2.6603,2.6916,2.7462,2.7653,2.7453,2.6716,2.6141,2.5721,2.4922,2.4544,2.4458,2.4382,2.4339,2.4312,2.4229,2.4247,2.4294,2.4248,2.4303,2.4447,2.4421,2.4412,2.4394,2.4303,2.4191,2.4067,2.3979,2.3917,2.3843,2.3657,2.3395,2.3071,2.2079,2.1172,2.0302,1.9403,1.868,1.8067,1.7892,1.7729,1.7506,1.7424,1.7293,1.7112,1.7,1.6803,1.6488,1.5595,1.4543,1.3601,1.3647,1.3836,1.4099,1.4391,1.4668,1.4914,1.5028,1.5123,1.523,1.5303,1.5578,1.616,1.6178,1.6472,1.705,1.7055,1.7019,1.6982,1.6951,1.6879,1.6956,1.7186,1.7653,1.8327,1.8317,1.8397,1.8728,1.9252,1.9519,1.925,1.8033,1.6638,1.5558,1.5018,1.4959,1.4902,1.4881,1.4877,1.4886,1.4876,1.4876,1.4872,1.4873,1.4882,1.4881,1.4886,1.4902,1.4947,1.4939,1.4919,1.489,1.4869,1.4827,1.4776,1.477,1.4779,1.4749,1.4732,1.4722,1.4888,1.4846,1.492,1.4991,1.5049,1.5445,2.7042,2.7897,2.8408,2.86,2.8462,2.7539,2.6864,2.6283,2.5368,2.4823,2.4728,2.4629,2.4546,2.4483,2.4366,2.4383,2.4455,2.4348,2.4375,2.4472,2.4456,2.4438,2.442,2.4393,2.4358,2.4284,2.4228,2.4133,2.4055,2.3886,2.3718,2.3403,2.2652,2.1715,2.0741,1.9937,1.9085,1.8302,1.8029,1.785,1.7561,1.7502,1.7385,1.7236,1.7097,1.6876,1.6192,1.5583,1.4725,1.3778,1.3725,1.4054,1.4344,1.4625,1.4876,1.5078,1.5132,1.523,1.5393,1.5639,1.6087,1.6567,1.6861,1.7352,1.7689,1.7836,1.7802,1.7724,1.7769,1.7774,1.7862,1.8132,1.8789,1.9504,1.9717,1.969,1.9675,2.0068,2.0332,1.997,1.8818,1.7295,1.6,1.5481,1.512,1.5004,1.499,1.4994,1.4995,1.4978,1.4966,1.4954,1.4945,1.4954,1.4971,1.497,1.5085,1.5131,1.5386,1.5316,1.5208,1.5131,1.4913,1.4868,1.4851,1.4902,1.5031,1.5149,1.5285,1.5358,1.5232,1.523,1.5353,1.5652,1.6018,2.7499,2.9149,2.9329,2.9375,2.9226,2.8434,2.744,2.6553,2.5604,2.5118,2.496,2.4861,2.476,2.4644,2.4578,2.4588,2.4631,2.4523,2.4479,2.4504,2.4497,2.45,2.4482,2.4482,2.4456,2.4394,2.4339,2.4266,2.4162,2.3997,2.3843,2.3567,2.2864,2.2,2.1266,2.0403,1.9472,1.8799,1.8609,1.8402,1.81,1.7937,1.7758,1.7621,1.7355,1.6596,1.5761,1.5323,1.4949,1.3777,1.3982,1.4271,1.4585,1.4865,1.5055,1.5256,1.5398,1.5561,1.5679,1.6348,1.6882,1.7126,1.7712,1.8104,1.832,1.8456,1.8462,1.8475,1.8204,1.8374,1.8475,1.8945,1.956,2.0204,2.0408,2.0478,2.0508,2.0508,2.0505,2.0417,1.8939,1.7871,1.6939,1.6121,1.5301,1.5098,1.5079,1.5078,1.5087,1.5084,1.5063,1.5043,1.5036,1.5032,1.5049,1.5066,1.5221,1.5384,1.5823,1.5921,1.5746,1.5558,1.5157,1.5012,1.5266,1.5508,1.5721,1.5829,1.6049,1.5899,1.5819,1.5845,1.5948,1.6392,1.6789,2.8002,2.872,2.9621,2.9729,2.9216,2.8392,2.7518,2.6684,2.5756,2.5292,2.5193,2.5092,2.4996,2.4921,2.4842,2.4818,2.4825,2.4742,2.4668,2.4576,2.452,2.4506,2.4499,2.4508,2.45,2.4465,2.4403,2.4303,2.4182,2.4075,2.3963,2.3712,2.3424,2.2917,2.2019,2.1485,2.1074,2.0205,1.9797,1.944,1.908,1.8688,1.8393,1.8182,1.769,1.6738,1.5752,1.5561,1.5409,1.4952,1.4595,1.465,1.4925,1.5113,1.5323,1.5574,1.6028,1.6327,1.6484,1.7131,1.791,1.8374,1.8674,1.9219,1.9907,1.9827,1.9873,1.9936,1.9936,1.9747,1.9757,2.0034,2.0252,2.0436,2.0503,2.0527,2.0565,2.0542,2.0518,2.0273,1.9544,1.8423,1.72,1.6667,1.5973,1.5391,1.517,1.5174,1.5175,1.5176,1.5277,1.5303,1.512,1.5162,1.5393,1.5486,1.572,1.5977,1.6397,1.6612,1.6443,1.6135,1.5779,1.5726,1.5856,1.613,1.6533,1.7003,1.7313,1.6873,1.6457,1.6519,1.67,1.7132,1.7558,2.7226,2.8097,2.8522,2.8607,2.8342,2.7643,2.7061,2.659,2.5819,2.5432,2.5381,2.5287,2.5232,2.5177,2.5096,2.5034,2.5009,2.4934,2.4811,2.4717,2.4659,2.4631,2.4583,2.4541,2.4516,2.4447,2.4312,2.421,2.4134,2.4025,2.3889,2.3754,2.3678,2.3115,2.2323,2.1888,2.0991,2.0199,1.9909,1.9645,1.9336,1.9383,1.9014,1.858,1.796,1.7132,1.6282,1.6432,1.6338,1.6054,1.5808,1.58,1.6047,1.6277,1.6427,1.6616,1.6894,1.7205,1.7392,1.7954,1.8605,1.9039,1.9444,1.9929,2.0332,2.0449,2.0468,2.05,2.0462,2.0462,2.0447,2.0445,2.0463,2.0455,2.0477,2.0503,2.0553,2.0554,2.0558,2.0377,1.9762,1.8732,1.7828,1.7163,1.6264,1.5505,1.526,1.5253,1.5236,1.5293,1.5608,1.562,1.5332,1.5337,1.5677,1.5968,1.6307,1.6682,1.7166,1.7288,1.7233,1.6856,1.646,1.6542,1.6685,1.7169,1.7585,1.8072,1.8245,1.7827,1.7478,1.7355,1.7402,1.776,1.8204,2.5934,2.7195,2.6926,2.6971,2.7061,2.6609,2.6351,2.6194,2.5718,2.5432,2.5469,2.5434,2.5398,2.5382,2.529,2.5236,2.5194,2.512,2.499,2.4872,2.4844,2.478,2.4693,2.4611,2.4521,2.4402,2.4266,2.4163,2.4066,2.3903,2.3809,2.37,2.3638,2.3278,2.2482,2.1794,2.128,2.0683,2.0399,2.012,1.9827,2.0065,1.9736,1.8858,1.8487,1.7766,1.7167,1.7188,1.7342,1.7068,1.735,1.7643,1.7865,1.7793,1.7909,1.7862,1.794,1.8072,1.8214,1.8765,1.9281,1.9234,1.9802,2.0225,2.0342,2.0388,2.041,2.0461,2.0476,2.0449,2.0398,2.04,2.0398,2.0405,2.0447,2.0497,2.0512,2.0566,2.0593,2.0509,2.0102,1.9321,1.8384,1.7591,1.6579,1.5713,1.5484,1.5321,1.5306,1.5373,1.5644,1.5705,1.5386,1.5269,1.5562,1.6272,1.6631,1.7356,1.7873,1.812,1.8194,1.8237,1.7987,1.7501,1.7635,1.8051,1.8397,1.8705,1.8742,1.8564,1.8463,1.8317,1.8338,1.8432,1.88,2.4724,2.5551,2.5917,2.5918,2.5695,2.5755,2.5522,2.516,2.5159,2.5262,2.5411,2.5458,2.547,2.5463,2.5472,2.5432,2.5359,2.5269,2.5176,2.5057,2.5013,2.491,2.479,2.4682,2.4572,2.4469,2.4339,2.4238,2.4133,2.3985,2.3935,2.3756,2.3784,2.3547,2.3331,2.2944,2.2503,2.1955,2.1728,2.155,2.1443,2.1088,2.0496,1.9429,1.9181,1.8564,1.7743,1.7661,1.7834,1.8039,1.8379,1.8952,1.9192,1.8586,1.8167,1.8241,1.8672,1.8949,1.9028,1.958,1.9975,2.0053,2.0132,2.02,2.0253,2.0299,2.0355,2.0399,2.0412,2.0404,2.0389,2.0387,2.0385,2.0405,2.0447,2.0502,2.0505,2.0546,2.0585,2.0547,2.03,1.9951,1.8949,1.8022,1.7123,1.6204,1.5648,1.5462,1.5363,1.5405,1.5528,1.5499,1.535,1.5309,1.5381,1.6241,1.6953,1.7918,1.8558,1.9172,1.9378,1.9791,1.9636,1.8787,1.8468,1.8709,1.904,1.9312,1.9191,1.8949,1.9063,1.9223,1.9048,1.8891,1.913,2.3182,2.3907,2.3964,2.4046,2.4152,2.4405,2.4477,2.4436,2.4634,2.4907,2.5173,2.5373,2.5489,2.5543,2.5566,2.5541,2.5495,2.5437,2.5356,2.526,2.5182,2.5083,2.4942,2.4816,2.4731,2.4627,2.4487,2.4303,2.4197,2.4369,2.4304,2.4419,2.4598,2.462,2.4076,2.3546,2.313,2.2772,2.2408,2.2224,2.219,2.1699,2.1082,2.0674,1.9954,1.9404,1.9075,1.8709,1.8867,1.9121,1.9392,1.9779,1.9873,1.9716,1.9207,1.9266,1.9556,1.9778,1.9735,2.0107,2.0177,2.0148,2.0157,2.0179,2.0207,2.0255,2.0315,2.0367,2.0388,2.0391,2.0383,2.0384,2.0387,2.0406,2.0456,2.0496,2.0518,2.0533,2.055,2.056,2.0449,2.0046,1.932,1.8436,1.7648,1.6813,1.5968,1.5667,1.5522,1.5567,1.5678,1.6329,1.6441,1.6592,1.6525,1.6868,1.7543,1.8421,1.9025,1.9641,2.0038,2.0211,2.0077,1.9559,1.9475,1.9396,1.9554,1.9777,1.956,1.9387,1.9492,1.9546,1.9398,1.9388,1.9576,2.1555,2.2268,2.2074,2.2283,2.2735,2.3068,2.3403,2.3766,2.4088,2.4457,2.4866,2.5164,2.5408,2.554,2.5595,2.5605,2.5617,2.5561,2.5482,2.5441,2.5358,2.5254,2.513,2.5009,2.4891,2.4783,2.4601,2.44,2.4347,2.4676,2.4876,2.4985,2.559,2.5699,2.4941,2.4186,2.3311,2.2799,2.2265,2.21,2.2078,2.2066,2.198,2.1864,2.0831,2.0272,2.0067,1.9687,1.9626,1.9794,2.0011,2.0215,2.0324,2.0447,2.0507,2.0495,2.0427,2.038,2.0299,2.0202,2.0184,2.0121,2.0117,2.014,2.0188,2.0248,2.0327,2.0372,2.0388,2.0387,2.0381,2.0383,2.0383,2.0403,2.0456,2.0509,2.0504,2.0518,2.0514,2.0537,2.0553,2.0273,1.9687,1.901,1.8255,1.738,1.6546,1.6129,1.5987,1.5917,1.6241,1.736,1.7894,1.8141,1.8099,1.7856,1.8428,1.9042,1.9374,1.9728,2.0071,2.0334,2.0131,1.9982,2.0006,1.9949,2.011,2.0122,1.9911,1.9799,1.9903,1.9845,1.9662,1.967,1.9835,2.0028,2.0652,2.1047,2.1473,2.1877,2.2274,2.2613,2.2963,2.3397,2.3906,2.442,2.4853,2.5182,2.5404,2.5562,2.5624,2.5649,2.5629,2.5576,2.5563,2.5505,2.5396,2.526,2.5145,2.5022,2.4904,2.4719,2.4517,2.4579,2.5007,2.528,2.5408,2.593,2.5943,2.5835,2.5007,2.4489,2.4171,2.3475,2.3038,2.3002,2.3077,2.2818,2.2339,2.1692,2.1104,2.0633,2.0161,1.9873,2.0001,2.0132,2.0263,2.0368,2.0468,2.0507,2.0477,2.0433,2.039,2.0321,2.0248,2.0174,2.0126,2.0112,2.0117,2.0176,2.0248,2.0337,2.0376,2.0388,2.04,2.0411,2.0403,2.0394,2.0421,2.0466,2.0502,2.0511,2.0511,2.0511,2.0507,2.0535,2.0559,2.0282,1.958,1.8856,1.7974,1.7208,1.6803,1.6642,1.6707,1.6879,1.7993,1.8738,1.901,1.9155,1.899,1.9165,1.9682,1.9783,1.9893,2.0143,2.0395,2.0379,2.0273,2.031,2.0263,2.0215,2.0175,2.0155,2.0107,2.0039,1.9961,1.9883,1.998,2.0216,1.9099,1.9887,2.0365,2.0805,2.1165,2.1521,2.1882,2.2284,2.2748,2.3294,2.3934,2.4488,2.4957,2.5328,2.5505,2.5584,2.5627,2.5644,2.5654,2.5636,2.5583,2.5486,2.5399,2.5283,2.5157,2.5052,2.4922,2.4816,2.4984,2.5625,2.621,2.6624,2.7161,2.7314,2.6703,2.5955,2.5328,2.4716,2.4028,2.3528,2.3478,2.3502,2.3471,2.3211,2.231,2.1737,2.1291,2.0438,2.0063,2.0111,2.0217,2.0299,2.0378,2.0457,2.0504,2.0508,2.048,2.0437,2.0367,2.0264,2.0189,2.0153,2.014,2.0135,2.0214,2.0292,2.0357,2.0382,2.0427,2.0449,2.0463,2.0473,2.0473,2.0475,2.049,2.0495,2.0507,2.0511,2.0507,2.0504,2.0511,2.0531,2.0471,1.9892,1.9277,1.8708,1.803,1.7606,1.77,1.8029,1.8249,1.8652,1.9246,1.9682,1.9804,1.981,1.9829,2.016,2.0163,2.0262,2.0333,2.0449,2.0424,2.0393,2.0357,2.0308,2.0257,2.0221,2.0193,2.0149,2.0112,2.0049,2.0054,2.0611,2.1039,1.8422,1.9277,1.9806,2.02,2.0515,2.0869,2.1245,2.1609,2.2135,2.2763,2.3497,2.4229,2.4895,2.5287,2.5447,2.5513,2.5603,2.5647,2.5673,2.5658,2.5623,2.5577,2.5505,2.5399,2.5307,2.5253,2.5101,2.5155,2.5527,2.6022,2.6709,2.758,2.8157,2.8132,2.7452,2.6572,2.5762,2.4653,2.408,2.3765,2.3738,2.3765,2.3878,2.3609,2.2993,2.2233,2.1957,2.1115,2.0518,2.0183,2.0259,2.0327,2.042,2.0474,2.0506,2.0507,2.0494,2.0472,2.04,2.0312,2.0225,2.0193,2.0185,2.0172,2.0265,2.0344,2.0385,2.0383,2.0451,2.0485,2.0507,2.0505,2.0505,2.0502,2.0507,2.0507,2.051,2.0505,2.0509,2.0503,2.0505,2.0508,2.036,2.0006,1.9609,1.9285,1.8852,1.8418,1.863,1.9037,1.9326,1.9537,1.9747,2.013,2.0184,2.0339,2.0476,2.0515,2.0518,2.0513,2.0503,2.0474,2.0441,2.0415,2.0405,2.0369,2.0318,2.0277,2.0231,2.0214,2.019,2.015,2.0308,2.0958,2.1844,1.7935,1.86,1.9266,1.9703,1.9919,2.0359,2.0712,2.1055,2.1675,2.235,2.3178,2.4171,2.4882,2.518,2.5338,2.545,2.5583,2.5601,2.5636,2.5644,2.5626,2.56,2.5568,2.5511,2.5435,2.5373,2.5253,2.5543,2.5955,2.5976,2.6462,2.6942,2.7998,2.8143,2.7606,2.6633,2.5581,2.4603,2.4031,2.4014,2.4007,2.4048,2.4107,2.4091,2.3598,2.2954,2.222,2.1519,2.0829,2.0256,2.0253,2.0352,2.0442,2.0482,2.0504,2.0506,2.0512,2.0492,2.0449,2.0361,2.027,2.0221,2.0213,2.0235,2.0299,2.036,2.0385,2.0405,2.0466,2.0498,2.0507,2.0507,2.0507,2.0507,2.0507,2.0507,2.0507,2.0507,2.0505,2.0509,2.0509,2.0506,2.0501,2.0204,2.0039,1.9726,1.9633,1.9218,1.9393,1.9752,2.0102,2.0323,2.0361,2.0484,2.0441,2.0519,2.055,2.056,2.0566,2.0544,2.0532,2.0497,2.0461,2.0459,2.0446,2.0412,2.0388,2.0362,2.0334,2.03,2.0297,2.0375,2.0847,2.1578,2.2543,1.7835,1.838,1.8981,1.9409,1.9697,2.0035,2.0367,2.0704,2.1204,2.212,2.3257,2.4155,2.4725,2.4987,2.5198,2.5354,2.5472,2.5575,2.5611,2.5651,2.5654,2.5655,2.5636,2.5607,2.555,2.55,2.5408,2.5361,2.5588,2.5904,2.6142,2.6672,2.7306,2.733,2.6908,2.6297,2.5266,2.4549,2.4144,2.4144,2.4154,2.4201,2.4257,2.4293,2.3781,2.3051,2.2264,2.1696,2.0962,2.0404,2.0278,2.0356,2.0451,2.0486,2.0508,2.0512,2.0506,2.0508,2.05,2.0408,2.0337,2.029,2.0297,2.0337,2.0361,2.0423,2.0454,2.0471,2.0483,2.0505,2.0507,2.0507,2.0507,2.0507,2.0507,2.0507,2.051,2.051,2.0512,2.0507,2.0503,2.0504,2.0513,2.0475,2.0338,2.0195,2.0142,2.0097,2.0154,2.0202,2.0464,2.06,2.0599,2.0599,2.0558,2.0568,2.062,2.0619,2.0627,2.0644,2.064,2.0521,2.0494,2.0485,2.0488,2.0461,2.0455,2.0442,2.0413,2.034,2.0515,2.0752,2.139,2.2159,2.3126,1.7787,1.8334,1.8874,1.925,1.9531,1.982,2.0123,2.0469,2.0902,2.1919,2.3383,2.4052,2.4525,2.4818,2.5041,2.5234,2.538,2.5511,2.5564,2.5616,2.5667,2.5693,2.5682,2.5654,2.561,2.5589,2.5521,2.5468,2.5428,2.5744,2.5776,2.5864,2.6091,2.6218,2.6301,2.5615,2.4885,2.445,2.4294,2.4284,2.4293,2.433,2.4375,2.4417,2.4095,2.3325,2.2558,2.1924,2.1253,2.0577,2.0237,2.0337,2.0404,2.0463,2.05,2.0509,2.0518,2.0519,2.0504,2.0445,2.0391,2.0349,2.0396,2.0411,2.0442,2.049,2.049,2.0497,2.0503,2.0504,2.0507,2.0505,2.0512,2.0512,2.0507,2.0507,2.0512,2.0512,2.0505,2.0509,2.0507,2.0509,2.0528,2.055,2.0574,2.0458,2.0385,2.0361,2.0408,2.0447,2.0515,2.0603,2.0603,2.0603,2.0593,2.0904,2.1128,2.0767,2.0786,2.0814,2.0791,2.0635,2.0532,2.0528,2.0522,2.0516,2.0493,2.0478,2.0427,2.0355,2.0569,2.0801,2.186,2.2646,2.3535,1.7895,1.851,1.892,1.9176,1.935,1.9661,2.0,2.0399,2.091,2.1873,2.3215,2.3903,2.4381,2.4691,2.4918,2.5109,2.5293,2.5426,2.5521,2.5578,2.5664,2.5691,2.5692,2.5679,2.566,2.5615,2.5563,2.5498,2.5406,2.5437,2.5321,2.5174,2.5293,2.5351,2.5705,2.4972,2.4537,2.45,2.4482,2.4464,2.4455,2.4453,2.4479,2.4491,2.4542,2.3842,2.2624,2.2368,2.1607,2.0445,2.0271,2.0333,2.0397,2.0454,2.0487,2.0505,2.0543,2.0566,2.0559,2.049,2.0628,2.0641,2.0761,2.0718,2.0587,2.0529,2.0511,2.0506,2.0511,2.0508,2.0507,2.0506,2.0509,2.0512,2.051,2.0507,2.0512,2.0507,2.0509,2.0514,2.0508,2.0511,2.0548,2.0596,2.0713,2.0691,2.0618,2.0644,2.074,2.0603,2.0603,2.0603,2.0603,2.0603,2.074,2.1412,2.1588,2.1169,2.0963,2.103,2.0883,2.0635,2.0574,2.0594,2.056,2.0542,2.0524,2.0503,2.0585,2.0677,2.0569,2.0934,2.2065,2.3095,2.3933,1.7895,1.8537,1.8939,1.9195,1.9387,1.9679,1.9993,2.0443,2.1306,2.2247,2.3052,2.3759,2.422,2.4517,2.4802,2.5015,2.5173,2.5354,2.5454,2.5547,2.5645,2.5683,2.5693,2.5699,2.5693,2.5663,2.5618,2.5582,2.5541,2.5394,2.5269,2.5128,2.4974,2.4937,2.4998,2.4691,2.46,2.4523,2.4506,2.4497,2.4499,2.4505,2.4529,2.4572,2.4719,2.4009,2.2605,2.2648,2.1877,2.0594,2.0455,2.046,2.0466,2.0488,2.0499,2.0505,2.0546,2.0825,2.1338,2.173,2.1893,2.1604,2.1273,2.1281,2.1338,2.0753,2.0603,2.0509,2.0504,2.051,2.0508,2.0513,2.0514,2.0512,2.0507,2.0507,2.051,2.0509,2.0506,2.0511,2.0506,2.0529,2.0562,2.1029,2.1221,2.1266,2.1242,2.1258,2.1335,2.0847,2.0623,2.0603,2.0603,2.0603,2.0856,2.1734,2.1744,2.1159,2.1139,2.1334,2.1089,2.0961,2.0844,2.0979,2.0762,2.0564,2.0556,2.0614,2.0927,2.104,2.11,2.1475,2.2532,2.3448,2.4186,1.7888,1.8439,1.8893,1.9209,1.9395,1.9672,2.0055,2.0663,2.1663,2.2454,2.3036,2.3662,2.4116,2.4424,2.4697,2.4948,2.5103,2.5307,2.5435,2.5523,2.564,2.5684,2.57,2.5693,2.5696,2.5683,2.5652,2.5626,2.5591,2.5487,2.5344,2.5194,2.5055,2.4999,2.4889,2.4783,2.4671,2.4596,2.4562,2.4522,2.4523,2.4522,2.4554,2.4654,2.4612,2.4214,2.3268,2.2695,2.2347,2.1329,2.0962,2.0919,2.0839,2.0775,2.07,2.059,2.0873,2.1349,2.2186,2.3037,2.3102,2.2862,2.2256,2.1826,2.1643,2.0981,2.0636,2.0504,2.0545,2.0577,2.0607,2.0593,2.0602,2.0603,2.0823,2.0845,2.1065,2.1104,2.1416,2.1321,2.0993,2.0902,2.0802,2.1355,2.1825,2.1862,2.1897,2.1952,2.1949,2.1442,2.0965,2.0886,2.0916,2.1003,2.1461,2.228,2.2027,2.1198,2.154,2.2134,2.1988,2.1958,2.1657,2.1364,2.1313,2.1144,2.072,2.0721,2.105,2.1515,2.1935,2.2436,2.3155,2.3787,2.4469,1.7888,1.8268,1.8855,1.9183,1.9358,1.9697,2.03,2.1055,2.1832,2.2502,2.3051,2.3575,2.403,2.4381,2.462,2.4854,2.5087,2.5303,2.542,2.5518,2.5623,2.5661,2.5693,2.5692,2.5692,2.5696,2.5681,2.5661,2.5619,2.5525,2.5401,2.5274,2.519,2.5099,2.4993,2.4905,2.48,2.4717,2.4621,2.4564,2.453,2.4556,2.4597,2.4687,2.4684,2.4337,2.3745,2.3433,2.3026,2.2555,2.237,2.2038,2.1794,2.1604,2.1124,2.1031,2.1506,2.2362,2.3081,2.3946,2.434,2.4032,2.293,2.2236,2.1719,2.1347,2.0976,2.082,2.0827,2.0796,2.078,2.0791,2.079,2.1039,2.1369,2.1597,2.1907,2.2207,2.2636,2.2551,2.2076,2.1798,2.1476,2.1816,2.2684,2.2975,2.3049,2.2956,2.2837,2.2241,2.1784,2.1394,2.1443,2.152,2.2095,2.2895,2.2759,2.2067,2.2944,2.35,2.3256,2.2818,2.2486,2.2203,2.2056,2.1761,2.1251,2.108,2.1172,2.1736,2.2574,2.3097,2.3701,2.4091,2.4651,1.7814,1.8235,1.8695,1.9037,1.9362,1.996,2.0614,2.126,2.1863,2.2471,2.3107,2.3522,2.396,2.4338,2.458,2.4806,2.5021,2.5215,2.5379,2.5489,2.5593,2.5648,2.568,2.5697,2.5693,2.5702,2.5693,2.5694,2.5658,2.5579,2.5468,2.5356,2.5283,2.5207,2.5141,2.5094,2.4949,2.4819,2.4711,2.4614,2.4547,2.4556,2.4615,2.4704,2.4772,2.4417,2.401,2.3819,2.3369,2.28,2.2646,2.2419,2.2441,2.2415,2.2267,2.2429,2.3062,2.378,2.4111,2.4811,2.5257,2.5068,2.4166,2.3407,2.2742,2.204,2.1512,2.1439,2.1444,2.1512,2.1629,2.1644,2.1685,2.1932,2.2191,2.2345,2.2686,2.3116,2.3494,2.3245,2.2796,2.2598,2.2273,2.2842,2.366,2.4058,2.4221,2.407,2.3735,2.3149,2.2525,2.2126,2.2272,2.2428,2.2807,2.352,2.3325,2.3217,2.3988,2.432,2.3716,2.3306,2.3179,2.2974,2.2729,2.226,2.1713,2.167,2.1764,2.256,2.3365,2.3794,2.4213,2.458,2.4855,1.7754,1.8143,1.8606,1.9056,1.9537,2.0108,2.0704,2.13,2.1851,2.247,2.3063,2.3475,2.3869,2.4229,2.4551,2.4821,2.5019,2.521,2.537,2.549,2.5571,2.5638,2.5676,2.5698,2.57,2.5693,2.57,2.5698,2.567,2.5571,2.5456,2.5391,2.534,2.5298,2.5243,2.5177,2.5056,2.4929,2.4796,2.4696,2.4615,2.4573,2.4641,2.4722,2.4781,2.4514,2.4272,2.4176,2.3891,2.3564,2.3589,2.3414,2.3229,2.2988,2.3157,2.3318,2.3811,2.4399,2.4826,2.5252,2.5572,2.5542,2.5145,2.4471,2.3618,2.2848,2.2511,2.2314,2.2362,2.243,2.2567,2.2705,2.284,2.2989,2.3051,2.3103,2.3499,2.3936,2.3901,2.3706,2.3518,2.3366,2.3554,2.413,2.4431,2.4487,2.4758,2.5036,2.4652,2.4086,2.3384,2.278,2.3121,2.3471,2.3822,2.4058,2.4077,2.4136,2.4594,2.4702,2.4106,2.4067,2.4204,2.3833,2.3325,2.2885,2.2484,2.2426,2.2588,2.3357,2.3967,2.4356,2.4709,2.5043,2.5258,1.7767,1.7956,1.8572,1.9187,1.979,2.0158,2.0654,2.1229,2.1836,2.2424,2.2989,2.3416,2.3779,2.4154,2.4484,2.4787,2.4997,2.5194,2.5344,2.5505,2.5544,2.5603,2.5668,2.5696,2.5701,2.5701,2.5693,2.5694,2.5652,2.5571,2.5489,2.5404,2.5407,2.5373,2.5317,2.5248,2.5126,2.4994,2.4891,2.4787,2.4706,2.4674,2.4681,2.4781,2.4815,2.4788,2.4899,2.497,2.5027,2.5054,2.4945,2.4556,2.4077,2.3626,2.382,2.4031,2.4465,2.4821,2.5225,2.5525,2.5568,2.5614,2.5568,2.508,2.4358,2.3618,2.3256,2.3186,2.322,2.3495,2.368,2.3523,2.3525,2.374,2.389,2.4064,2.4408,2.4728,2.4766,2.4586,2.4452,2.4297,2.4199,2.4685,2.4917,2.4867,2.503,2.5533,2.5404,2.4847,2.4341,2.3629,2.402,2.4362,2.4343,2.4587,2.4899,2.5113,2.5317,2.5356,2.4965,2.5073,2.5326,2.4731,2.4096,2.3744,2.3422,2.3333,2.34,2.3901,2.4454,2.486,2.5189,2.5435,2.546,1.7686,1.7969,1.8721,1.9306,1.9736,2.0141,2.0663,2.13,2.1807,2.2361,2.2917,2.3342,2.3723,2.4098,2.4415,2.4716,2.4971,2.5158,2.5298,2.5419,2.5499,2.557,2.5639,2.5683,2.5687,2.5694,2.5693,2.5686,2.5629,2.5581,2.5539,2.5482,2.5466,2.5435,2.5387,2.5308,2.5198,2.5076,2.499,2.4894,2.4806,2.4737,2.4722,2.4795,2.4825,2.4889,2.4973,2.5019,2.5047,2.5079,2.5145,2.5063,2.4959,2.4808,2.4876,2.5076,2.508,2.5269,2.5399,2.5553,2.5586,2.5574,2.5543,2.5427,2.5039,2.4387,2.4039,2.4046,2.4173,2.4486,2.463,2.4375,2.4226,2.4475,2.4695,2.4988,2.5263,2.5396,2.5536,2.5459,2.5341,2.5194,2.5018,2.5085,2.5325,2.544,2.5486,2.5678,2.5668,2.5356,2.5297,2.4829,2.5048,2.5253,2.5097,2.5021,2.5274,2.5409,2.5525,2.5622,2.5698,2.5619,2.5512,2.5297,2.4877,2.4506,2.4242,2.4164,2.4317,2.4636,2.4885,2.5255,2.5392,2.5597,2.555,1.7645,1.8003,1.8803,1.9365,1.9747,2.015,2.0696,2.1276,2.1764,2.2281,2.2837,2.3304,2.3698,2.4029,2.4337,2.4636,2.4911,2.5122,2.5283,2.539,2.5462,2.5525,2.5594,2.5655,2.5668,2.5683,2.5693,2.5673,2.5616,2.5604,2.5573,2.5553,2.5524,2.5474,2.5443,2.5374,2.5293,2.52,2.5108,2.5012,2.4927,2.4863,2.4829,2.4865,2.4904,2.4961,2.5051,2.5096,2.5114,2.5147,2.5193,2.523,2.5214,2.5202,2.5283,2.5347,2.5383,2.545,2.5465,2.5508,2.5557,2.5531,2.5488,2.5377,2.5424,2.4865,2.4877,2.488,2.4916,2.5183,2.5246,2.5074,2.5048,2.5205,2.5253,2.5381,2.5498,2.5566,2.5634,2.5605,2.5534,2.5514,2.5387,2.5386,2.5578,2.5576,2.569,2.5698,2.5697,2.5697,2.5697,2.5699,2.5693,2.5694,2.5489,2.5442,2.555,2.5667,2.5694,2.5702,2.5699,2.5698,2.5619,2.5463,2.5336,2.5199,2.4994,2.4857,2.4945,2.5177,2.5388,2.5637,2.5699,2.5701,2.5642,1.7706,1.8129,1.8869,1.9406,1.9782,2.0231,2.073,2.1261,2.1735,2.2234,2.276,2.3321,2.3631,2.391,2.4257,2.455,2.4818,2.5056,2.5237,2.5369,2.5451,2.5507,2.556,2.5608,2.5644,2.5682,2.5692,2.5667,2.5634,2.5627,2.5624,2.5608,2.557,2.5514,2.549,2.5456,2.5384,2.5307,2.5213,2.5126,2.5057,2.4996,2.4977,2.4984,2.5019,2.5087,2.517,2.5219,2.522,2.5225,2.5227,2.5267,2.5297,2.5332,2.537,2.5402,2.5404,2.5406,2.541,2.5464,2.5488,2.547,2.5411,2.5415,2.5464,2.5472,2.5469,2.5504,2.5532,2.5462,2.5519,2.5435,2.5433,2.5339,2.5329,2.5408,2.5445,2.559,2.5689,2.569,2.5679,2.5677,2.5696,2.5694,2.5694,2.5693,2.5701,2.5699,2.5697,2.5697,2.5697,2.57,2.5694,2.5694,2.5695,2.5698,2.57,2.5699,2.5698,2.5694,2.57,2.5699,2.5698,2.5687,2.557,2.5463,2.5502,2.5424,2.5561,2.5569,2.5626,2.5702,2.5699,2.5692,2.5694,1.7962,1.8676,1.9053,1.9479,1.9965,2.0385,2.091,2.147,2.1922,2.2392,2.2812,2.3211,2.3553,2.3807,2.4174,2.4472,2.4736,2.4984,2.5164,2.5302,2.5401,2.5472,2.5531,2.5589,2.5652,2.5683,2.5701,2.5692,2.5663,2.5662,2.5668,2.5665,2.5617,2.5553,2.5512,2.5478,2.5448,2.5365,2.5297,2.5212,2.5145,2.5096,2.5073,2.5097,2.5155,2.518,2.5224,2.5266,2.5286,2.5287,2.5268,2.5297,2.5307,2.5337,2.5365,2.5375,2.5378,2.5373,2.5391,2.5405,2.5419,2.5419,2.5377,2.5392,2.5423,2.5415,2.5443,2.5506,2.5432,2.5149,2.5067,2.4722,2.4597,2.4339,2.4224,2.4478,2.4644,2.5208,2.5657,2.5636,2.5616,2.5643,2.5701,2.57,2.57,2.5699,2.5699,2.5697,2.5697,2.5697,2.5697,2.5701,2.5694,2.5698,2.5699,2.5702,2.5693,2.5692,2.57,2.5696,2.5693,2.5699,2.5698,2.5698,2.5697,2.5629,2.5687,2.5697,2.5687,2.5648,2.5667,2.5695,2.5694,2.5741,2.5793]}]]